     2              OBSERVATION DATA    GPS                 RINEX VERSION / TYPE
srx-v1.5-(11/13/93) SEISMO 18-MAR-1994                      PGM / RUN BY / DATE
                                                            COMMENT
sig: 9 8 7 6 5 4 1 0                                        COMMENT
sig: 9 8 7 6 5 4 1 0                                        COMMENT
sig: 9 8 7 6 5 4 1 0                                        COMMENT
Original Marker Name: oatt                                  COMMENT
Campaign Name: jpl 1993-1997                                COMMENT
4-Character Station Name: OATT                              COMMENT
6-Character Antenna Code: DMRCHT                            COMMENT
Vertical Measurement Point: BPA                             COMMENT
Vertical Offset to Rinex Ref. Point: 0.0000                 COMMENT
Radial Measurement Point: RRP                               COMMENT
Radial Offset to Rinex Ref. Point: 0.0000                   COMMENT
Antenna Height from Field Measurement: 0.0614 m             COMMENT
Additional Antenna Identification Info.:                    COMMENT
Turborogue and Ashtech Choke Ring                           COMMENT
Original XYZ: -2524530.4686 -4630087.6855 3577365.0287      COMMENT
New XYZ position is based on association with SCEC monument COMMENT
E1E9I3F8+0101. Position of that monument is believed to be  COMMENT
valid to within 1 m horizontally; vertical accuracy         COMMENT
should be no worse than 3-times this value.                 COMMENT
                                                            COMMENT
Revised Rinex header created by UCSD GPS archive for        COMMENT
GSAC on 28-May-1999 (1999:148) 19:42:22 GMT                 COMMENT
For assistance contact dagnew@ucsd.edu or hjohnson@ucsd.edu COMMENT
                                                            COMMENT
OAT MOUNTAIN                                                MARKER NAME
GNOG JET PROPULSION LABORATORY                              OBSERVER / AGENCY
330 TURBOROGUE SNR-8000 93.09.02                            REC # / TYPE / VERS
S/N UNKNOWN DORNE-MARGOL. TYPE T                            ANT # / TYPE
 -2524531.0000 -4630086.0000  3577365.0000                  APPROX POSITION XYZ
        0.0614        0.0000        0.0000                  ANTENNA: DELTA H/E/N
     1     1     0                                          WAVELENGTH FACT L1/2
     5    L1    L2    P1    P2    C1                        # / TYPES OF OBSERV
    30                                                      INTERVAL
  1994     3    17     0     0    0.000000                  TIME OF FIRST OBS
  1994     3    17    23    59   30.000000                  TIME OF LAST OBS
    26                                                      # OF SATELLITES
                                                            END OF HEADER
 94 03 17 00 00 00.0000000  0  7 02 04 07 09 12 13 26
 -17921776.54449 -13964999.40247         0.00041  21298305.90247  21298303.18249
  -3432890.57148  -2674973.51546         0.00041  23377782.88546  23377779.22748
 -15100433.91249 -11766553.32448         0.00041  20467406.62848  20467404.06749
  -9016733.07148  -7026020.19446         0.00041  23470635.32646  23470629.27148
  -1969494.46008  -1534668.88407  24387898.61708  24387905.21907         0.00001
  -9442774.84408  -7357996.45608  21504467.64108  21504471.99008         0.00001
    980988.97048    764406.67946         0.00041  22667071.57246  22667067.47348
 94 03 17 00 00 30.0000000  0  7 02 04 07 09 12 13 26
 -17894231.26649 -13943535.55047         0.00041  21303548.18347  21303545.43249
  -3532717.13548  -2752760.32846         0.00041  23358786.50346  23358782.89448
 -15074514.85849 -11746356.64748         0.00041  20472338.39948  20472336.29549
  -9111150.58248  -7099592.21246         0.00041  23452667.95546  23452663.50748
  -2059511.84508  -1604812.20907  24370768.94608  24370775.47607         0.00001
  -9519108.63608  -7417477.28608  21489941.75108  21489945.99208         0.00001
   1019839.07248    794679.46746         0.00041  22674465.87446  22674459.71448
 94 03 17 00 01 00.0000000  0  7 02 04 07 09 12 13 26
 -17866549.03849 -13921964.99247         0.00041  21308816.08047  21308812.76249
  -3632492.25748  -2830507.05446         0.00041  23339799.53746  23339796.40348
 -15048261.40349 -11725899.40148         0.00041  20477334.32948  20477331.93249
  -9205446.43748  -7173069.41446         0.00041  23434723.55646  23434719.91948
  -2149611.21008  -1675019.41907  24353623.49008  24353630.26207         0.00001
  -9595014.22108  -7476624.44608  21475497.26008  21475501.57308         0.00001
   1059069.02748    825248.24446         0.00041  22681931.81446  22681925.71648
 94 03 17 00 01 30.0000000  0  7 02 04 07 09 12 13 26
 -17838692.48649 -13900258.59247         0.00041  21314116.50947  21314113.63449
  -3732170.21148  -2908178.08346         0.00041  23320831.59846  23320828.70448
 -15021643.38849 -11705158.08148         0.00041  20482399.88748  20482397.42349
  -9299588.51448  -7246426.76946         0.00041  23416806.79746  23416801.97948
  -2239746.28508  -1745254.45207  24336471.35608  24336478.08807         0.00001
  -9670444.80808  -7535401.48008  21461143.38908  21461147.58208         0.00001
   1098729.23048    856152.27346         0.00041  22689478.11346  22689474.35948
 94 03 17 00 02 00.0000000  0  7 02 04 07 09 12 13 26
 -17810628.79049 -13878390.78547         0.00041  21319457.41247  21319454.32149
  -3831721.26748  -2985750.20346         0.00041  23301886.71746  23301883.21348
 -14994635.17449 -11684112.71148         0.00041  20487538.86648  20487536.44049
  -9393562.08448  -7319652.86446         0.00041  23398926.22746  23398920.93848
  -2329882.63108  -1815490.47807  24319318.95108  24319325.70407         0.00001
  -9745365.21708  -7593780.97508  21446886.42008  21446890.53108         0.00001
   1138856.03548    887419.88546         0.00041  22697114.12146  22697109.91248
 94 03 17 00 02 30.0000000  0  7 02 04 07 09 12 13 26
 -17782339.29949 -13856347.02947         0.00041  21324840.53147  21324837.59349
  -3931132.85748  -3063213.68046         0.00041  23282970.04146  23282965.85948
 -14967210.53649 -11662742.85748         0.00041  20492757.85948  20492755.43449
  -9487366.48448  -7392747.12546         0.00041  23381073.51446  23381071.22948
  -2420008.92108  -1885718.67907  24302168.54308  24302175.11007         0.00001
  -9819764.23808  -7651754.19408  21432728.62608  21432732.90408         0.00001
   1179450.80548    919052.13946         0.00041  22704839.29546  22704835.23048
 94 03 17 00 03 00.0000000  0  7 02 04 07 09 12 13 26
 -17753849.22749 -13834146.98347         0.00041  21330261.86447  21330259.36349
  -4030419.97048  -3140580.12545         0.00041  23264076.17245  23264071.60748
 -14939376.86549 -11641054.27848         0.00041  20498054.53348  20498052.22149
  -9581024.59048  -7465727.40646         0.00041  23363251.88446  23363248.31748
  -2510143.45508  -1955953.29307  24285016.37008  24285022.89307         0.00001
  -9893659.36908  -7709334.76508  21418666.63008  21418671.07008         0.00001
   1220503.55048    951041.25946         0.00041  22712651.85546  22712648.68848
 94 03 17 00 03 30.0000000  0  7 02 04 07 09 12 13 26
 -17725188.38049 -13811813.86147         0.00041  21335715.54947  21335712.37649
  -4129600.74348  -3217863.70846         0.00041  23245200.78846  23245197.08148
 -14911135.23649 -11619047.80648         0.00041  20503428.67448  20503426.00849
  -9674551.87048  -7538605.72746         0.00041  23345455.82146  23345451.74948
  -2600303.41908  -2026207.72507  24267859.48908  24267865.89107         0.00001
  -9967067.54908  -7766535.90008  21404697.39708  21404701.88708         0.00001
   1262001.60448    983377.36446         0.00041  22720548.42146  22720544.91348
 94 03 17 00 04 00.0000000  0  7 02 04 07 09 12 13 26
 -17696344.35149 -13789337.99647         0.00041  21341205.26347  21341202.44049
  -4228644.49548  -3295040.51745         0.00041  23226354.47345  23226349.26048
 -14882468.37349 -11596709.99148         0.00041  20508883.62548  20508881.21649
  -9767921.02448  -7611360.82546         0.00041  23327685.83946  23327684.10048
  -2690474.66308  -2096470.93307  24250700.39408  24250706.77907         0.00001
 -10039974.27308  -7823346.28808  21390823.74108  21390828.18608         0.00001
   1303947.87848   1016062.73446         0.00041  22728529.91546  22728527.08248
 94 03 17 00 04 30.0000000  0  7 02 04 07 09 12 13 26
 -17667347.13849 -13766742.77147         0.00041  21346722.56247  21346719.47049
  -4327562.09348  -3372119.02645         0.00041  23207530.77345  23207525.97848
 -14853398.49849 -11574058.13448         0.00041  20514415.33548  20514412.94449
  -9861144.28648  -7684002.26246         0.00041  23309946.04846  23309942.82848
  -2780679.88808  -2166760.63307  24233534.86708  24233540.94207         0.00001
 -10112402.13508  -7879783.53808  21377041.21108  21377045.59608         0.00001
   1346306.91948   1049069.73746         0.00041  22736590.84546  22736586.96648
 94 03 17 00 05 00.0000000  0  8 02 04 07 09 12 13 26 27
 -17638125.13649 -13743972.37747         0.00041  21352283.90247  21352280.93449
  -4426280.10648  -3449042.01545         0.00041  23188746.36745  23188740.73048
 -14823869.30549 -11551048.37148         0.00041  20520034.83048  20520032.17449
  -9954133.37948  -7756461.20846         0.00041  23292251.15246  23292248.42448
  -2870839.58408  -2237014.83807  24216377.92408  24216384.01707         0.00001
 -10184271.10508  -7935785.28808  21363365.00208  21363369.25008         0.00001
   1389148.47448   1082452.72946         0.00041  22744742.29646  22744738.70548
         0.16857         0.17854         0.00051  23248679.80254  23248680.18057
 94 03 17 00 05 30.0000000  0  8 02 04 07 09 12 13 26 27
 -17608750.49149 -13721083.04647         0.00041  21357873.29447  21357870.02449
  -4524878.05248  -3525871.43745         0.00041  23169983.22345  23169978.79748
 -14793969.72849 -11527749.99548         0.00041  20525724.39048  20525721.52149
 -10046965.17948  -7828797.62246         0.00041  23274586.89046  23274583.99948
  -2961032.12808  -2307294.64608  24199214.71208  24199220.95508         0.00001
 -10255659.56208  -7991412.62108  21349780.27008  21349784.41408         0.00001
   1432365.07348   1116127.99946         0.00041  22752966.74046  22752962.00248
    105946.93047     82555.76144         0.00041  23268846.85744  23268843.04947
 94 03 17 00 06 00.0000000  0  7 02 04 07 09 12 13 26
 -17579256.15249 -13698100.44647         0.00041  21363485.70847  21363482.92849
  -4623400.40148  -3602641.97545         0.00041  23151233.24345  23151231.02748
 -14763765.07249 -11504213.89348         0.00041  20531472.12448  20531469.42749
 -10139690.95448  -7901051.39646         0.00041  23256941.14546  23256937.46348
  -3051309.02208  -2377640.17608  24182035.51708  24182041.75508         0.00001
 -10326618.62408  -8046705.36008  21336277.15008  21336281.40008         0.00001
   1475890.35648   1150043.78046         0.00041  22761249.16546  22761243.84148
 94 03 17 00 06 30.0000000  0  7 02 04 07 09 12 13 26
 -17549629.01649 -13675014.36847         0.00041  21369123.97047  21369120.94249
  -4721843.42448  -3679350.69746         0.00041  23132500.71846  23132497.19148
 -14733241.25549 -11480429.09848         0.00041  20537280.57348  20537278.28749
 -10232300.12048  -7973214.31246         0.00041  23239319.44346  23239315.15648
  -3141653.66108  -2448038.48208  24164843.32708  24164849.76608         0.00001
 -10397131.50508  -8101650.41408  21322859.00408  21322863.08808         0.00001
   1519745.37948   1184216.50446         0.00041  22769592.23346  22769589.36248
 94 03 17 00 07 00.0000000  0  7 02 04 07 09 12 13 26
 -17519778.31949 -13651754.08547         0.00041  21374804.29747  21374801.09149
  -4820124.93948  -3755933.58145         0.00041  23113801.66845  23113794.87048
 -14702303.07649 -11456321.42748         0.00041  20543168.05148  20543165.79249
 -10324709.10348  -8045221.24246         0.00041  23221736.36146  23221731.75848
  -3231977.53808  -2518420.62008  24147655.47908  24147661.53808         0.00001
 -10467109.77508  -8156178.89308  21309542.65908  21309546.58308         0.00001
   1564023.12248   1218718.59246         0.00041  22778018.49446  22778017.71748
 94 03 17 00 07 30.0000000  0  7 02 04 07 09 12 13 26
 -17489689.50849 -13628308.25947         0.00041  21380529.84047  21380526.92849
  -4918221.21148  -3832372.15346         0.00041  23095131.18646  23095127.95648
 -14670940.25649 -11431882.86148         0.00041  20549136.34148  20549133.88649
 -10416913.26248  -8117068.58646         0.00041  23204187.51946  23204183.31548
  -3322272.52608  -2588780.24308  24130472.67908  24130478.97508         0.00001
 -10536544.80908  -8210284.06808  21296329.62408  21296333.61208         0.00001
   1608739.35148   1253562.35446         0.00041  22786528.51846  22786527.91048
 94 03 17 00 08 00.0000000  0  7 02 04 07 09 12 13 26
 -17459410.11649 -13604713.93047         0.00041  21386291.45947  21386288.99449
  -5016164.68048  -3908691.63745         0.00041  23076493.75245  23076489.88848
 -14639191.10549 -11407143.26148         0.00041  20555177.86848  20555175.02949
 -10508942.60948  -8188779.70246         0.00041  23186675.77246  23186671.94348
  -3412577.29108  -2659147.49608  24113288.26308  24113294.35208         0.00001
 -10605475.39808  -8263996.16808  21283212.55108  21283216.60308         0.00001
   1653875.25548   1288733.12346         0.00041  22795118.52846  22795117.10048
 94 03 17 00 08 30.0000000  0  7 02 04 07 09 12 13 26
 -17428954.79149 -13580982.50647         0.00041  21392087.63847  21392084.61849
  -5113967.77048  -3984901.74746         0.00041  23057883.23446  23057878.85048
 -14607056.63549 -11382103.40648         0.00041  20561292.61748  20561289.99549
 -10600798.73748  -8260355.84646         0.00041  23169193.91546  23169191.81148
  -3502892.56208  -2729522.93008  24096101.63708  24096108.00308         0.00001
 -10673902.07908  -8317315.61708  21270191.27808  21270195.40808         0.00001
   1699435.41348   1324234.49846         0.00041  22803789.12746  22803786.98748
 94 03 17 00 09 00.0000000  0  7 02 04 07 09 12 13 26
 -17398303.59449 -13557098.46147         0.00041  21397920.46647  21397917.33049
  -5211622.68348  -4060996.39846         0.00041  23039298.92246  23039296.33648
 -14574532.33349 -11356759.79448         0.00041  20567482.06948  20567479.45649
 -10692471.20448  -8331788.86746         0.00041  23151749.57946  23151745.95248
  -3593208.11508  -2799898.60208  24078915.16208  24078921.40708         0.00001
 -10741814.97208  -8370234.71408  21257267.87408  21257272.02708         0.00001
   1745418.26548   1360065.25046         0.00041  22812539.52546  22812537.28648
 94 03 17 00 09 30.0000000  0  7 02 04 07 09 12 13 26
 -17367482.45049 -13533081.99347         0.00041  21403785.54247  21403782.70949
  -5309146.78848  -4136989.08546         0.00041  23020741.75346  23020737.96648
 -14541648.55449 -11331136.06748         0.00041  20573739.75748  20573737.34749
 -10783971.13548  -8403087.44746         0.00041  23134338.78046  23134334.63948
  -3683542.25408  -2870288.75308  24061724.88408  24061731.41308         0.00001
 -10809232.11508  -8422767.50908  21244438.67408  21244442.92008         0.00001
   1791802.14148   1396208.48846         0.00041  22821366.68146  22821364.03048
 94 03 17 00 10 00.0000000  0  7 02 04 07 09 12 13 26
 -17336478.23449 -13508922.87947         0.00041  21409684.90647  21409681.95149
  -5406546.88148  -4212885.14646         0.00041  23002206.01446  23002202.87148
 -14508385.70349 -11305216.95448         0.00041  20580069.93348  20580067.23149
 -10875284.59148  -8474240.72146         0.00041  23116962.27046  23116959.10548
  -3773881.44808  -2940682.84708  24044533.88408  24044540.31108         0.00001
 -10876140.21608  -8474903.65208  21231706.42208  21231710.73108         0.00001
   1838593.16148   1432668.98946         0.00041  22830271.20746  22830267.79348
 94 03 17 00 10 30.0000000  0  7 02 04 07 09 12 13 26
 -17305282.94149 -13484614.85947         0.00041  21415621.92947  21415618.66749
  -5503829.34948  -4288689.55646         0.00041  22983694.01646  22983690.43348
 -14474747.97249 -11279005.73348         0.00041  20586470.77448  20586468.02149
 -10966424.68448  -8545258.91746         0.00041  23099616.75946  23099614.95448
  -3864225.35808  -3011080.61608  24027341.80708  24027348.36908         0.00001
 -10942538.74708  -8526642.73008  21219071.18508  21219075.43908         0.00001
   1885773.73948   1469433.05246         0.00041  22839249.86546  22839245.52548
 94 03 17 00 11 00.0000000  0  7 02 04 07 09 12 13 26
 -17273877.14349 -13460142.81147         0.00041  21421597.58447  21421594.66649
  -5600955.32148  -4364372.03346         0.00041  22965210.76646  22965207.29948
 -14440718.79949 -11252489.49447         0.00041  20592946.00347  20592943.51849
 -11057363.55948  -8616120.29946         0.00041  23082314.45646  23082312.51948
  -3954552.77408  -3081465.54208  24010152.95608  24010159.51808         0.00001
 -11008406.76708  -8577968.41608  21206536.86208  21206541.08808         0.00001
   1933357.59148   1506511.35446         0.00041  22848303.23446  22848298.45548
 94 03 17 00 11 30.0000000  0  7 02 04 07 09 12 13 26
 -17242271.78849 -13435515.26647         0.00041  21427612.04047  21427609.10349
  -5697913.40748  -4439923.67146         0.00041  22946760.31346  22946756.22948
 -14406314.11049 -11225680.63948         0.00041  20599492.88148  20599490.44149
 -11148103.23948  -8686826.47846         0.00041  23065045.69946  23065042.90948
  -4044875.13808  -3151846.52808  23992965.15208  23992971.64508         0.00001
 -11073755.87408  -8628889.75808  21194101.43608  21194105.52408         0.00001
   1981334.00848   1543895.58146         0.00041  22857432.83046  22857427.29248
 94 03 17 00 12 00.0000000  0  7 02 04 07 09 12 13 26
 -17210451.02649 -13410719.87147         0.00041  21433667.39347  21433664.46049
  -5794685.99348  -4515330.73945         0.00041  22928344.01545  22928340.44548
 -14371536.62149 -11198581.30448         0.00041  20606111.08348  20606108.31749
 -11238637.64048  -8757372.69946         0.00041  23047816.44846  23047814.68848
  -4135192.11808  -3222223.31408  23975778.26508  23975784.75208         0.00001
 -11138586.03608  -8679406.72208  21181764.57108  21181768.78208         0.00001
   2029691.95348   1581577.12846         0.00041  22866636.28746  22866629.01548
 94 03 17 00 12 30.0000000  0  7 02 04 07 09 12 13 26
 -17178431.68849 -13385769.74447         0.00041  21439760.27847  21439757.43049
  -5891255.41348  -4590579.51945         0.00041  22909968.69345  22909964.37248
 -14336404.77849 -11171205.84048         0.00041  20612795.87348  20612793.39049
 -11328969.61448  -8827761.20246         0.00041  23030628.42746  23030625.36348
  -4225514.43608  -3292604.26107  23958590.80808  23958596.93107         0.00001
 -11202907.84508  -8729527.57408  21169524.53908  21169528.65908         0.00001
   2078411.92448   1619540.77646         0.00041  22875905.65046  22875900.51248
 94 03 17 00 13 00.0000000  0  7 02 04 07 09 12 13 26
 -17146216.09549 -13360666.69147         0.00041  21445890.77947  21445888.03949
  -5987618.12148  -4665667.22145         0.00041  22891632.16045  22891627.20548
 -14300919.98849 -11143555.35148         0.00041  20619548.74448  20619546.02549
 -11419086.11148  -8897981.79346         0.00041  23013479.84046  23013476.49748
  -4315844.55308  -3362991.30008  23941401.47208  23941407.52408         0.00001
 -11266724.20108  -8779254.56308  21157380.56308  21157384.88608         0.00001
   2127493.30448   1657785.99246         0.00041  22885244.95846  22885242.11848
 94 03 17 00 13 30.0000000  0  7 02 04 07 09 12 13 26
 -17113802.55949 -13335409.39847         0.00041  21452058.94247  21452055.91349
  -6083782.37948  -4740600.24946         0.00041  22873331.65246  22873327.89348
 -14265075.53049 -11115624.60348         0.00041  20626370.07948  20626367.39449
 -11508995.11748  -8968040.71446         0.00041  22996370.67446  22996366.65248
  -4406179.82508  -3433382.33908  23924211.31308  23924217.25108         0.00001
 -11330032.78908  -8828585.89208  21145333.23308  21145337.60108         0.00001
   2176927.86248   1696306.33345         0.00041  22894651.09545  22894650.78348
 94 03 17 00 14 00.0000000  0  7 02 04 07 09 12 13 26
 -17081212.81549 -13310014.79647         0.00041  21458260.42747  21458257.92549
  -6179774.45348  -4815399.18546         0.00041  22855064.33046  22855061.36448
 -14228882.85749 -11087422.52348         0.00041  20633257.24948  20633254.94849
 -11598711.94948  -9037949.88846         0.00041  22979297.33346  22979294.05448
  -4496522.17308  -3503778.88708  23907019.69208  23907025.52108         0.00001
 -11392835.83308  -8877523.28908  21133382.16708  21133386.50408         0.00001
   2226706.11848   1735094.60546         0.00041  22904124.79146  22904123.33548
 94 03 17 00 14 30.0000000  0  7 02 04 07 09 12 13 26
 -17048454.80649 -13284489.07347         0.00041  21464493.97347  21464491.00449
  -6275604.81948  -4890072.09346         0.00041  22836827.37546  22836825.89148
 -14192333.26149 -11058942.32148         0.00041  20640212.56248  20640210.22049
 -11688239.95148  -9107711.92446         0.00041  22962260.18746  22962257.29848
  -4586861.80908  -3574173.32808  23889828.48108  23889834.45708         0.00001
 -11455123.80508  -8926059.33608  21121529.18808  21121533.38008         0.00001
   2276833.75948   1774155.01746         0.00041  22913662.66646  22913663.24648
 94 03 17 00 15 00.0000000  0  7 02 04 07 09 12 13 26
 -17015509.41749 -13258817.34547         0.00041  21470763.82447  21470760.90449
  -6371268.46548  -4964615.11946         0.00041  22818623.65046  22818621.75148
 -14155411.85249 -11030172.40148         0.00041  20647238.12248  20647235.70049
 -11777581.73848  -9177328.85146         0.00041  22945259.76146  22945257.44048
  -4677177.67608  -3644549.24108  23872641.81608  23872647.94408         0.00001
 -11516876.02008  -8974177.91108  21109778.11708  21109782.21408         0.00001
   2327328.71848   1813501.68046         0.00041  22923272.31646  22923271.41948
 94 03 17 00 15 30.0000000  0  7 02 04 07 09 12 13 26
 -16982393.87649 -13233013.03647         0.00041  21477065.63047  21477062.40849
  -6466768.63748  -5039030.74446         0.00041  22800450.41046  22800448.21948
 -14118144.91349 -11001133.22947         0.00041  20654329.53247  20654327.00049
 -11866753.72448  -9246813.46546         0.00041  22928288.13946  22928286.46048
  -4767480.06408  -3714914.66108  23855457.89408  23855463.83608         0.00001
 -11578102.93708  -9021887.15808  21098126.95508  21098131.04808         0.00001
   2378178.34848   1853124.74546         0.00041  22932948.96546  22932948.54648
 94 03 17 00 16 00.0000000  0  7 02 04 07 09 12 13 26
 -16949084.45549 -13207057.65047         0.00041  21483403.80147  21483400.91449
  -6562080.20548  -5113299.42646         0.00041  22782314.06346  22782311.76848
 -14080529.27049 -10971822.34747         0.00041  20661487.78447  20661485.32249
 -11955728.48548  -9316144.39846         0.00041  22911359.23646  22911356.27348
  -4857755.49408  -3785259.07308  23838278.75208  23838284.97208         0.00001
 -11638791.90708  -9069177.22908  21086578.19308  21086582.27008         0.00001
   2429401.02048   1893038.44546         0.00041  22942697.40446  22942695.07948
 94 03 17 00 16 30.0000000  0  7 02 04 07 09 12 13 26
 -16915552.39049 -13180928.78047         0.00041  21489785.20947  21489782.04949
  -6657172.46948  -5187397.19746         0.00041  22764219.04046  22764215.89648
 -14042545.26549 -10942224.43247         0.00041  20668715.68947  20668712.94949
 -12044476.99148  -9385299.02146         0.00041  22894471.05746  22894468.56848
  -4947991.67108  -3855572.89808  23821107.50808  23821113.54108         0.00001
 -11698931.03808  -9116038.85308  21075134.13708  21075138.19308         0.00001
   2481013.98548   1933256.29346         0.00041  22952519.74046  22952516.76148
 94 03 17 00 17 00.0000000  0  7 02 04 07 09 12 13 26
 -16881797.21449 -13154626.05146         0.00041  21496207.93646  21496204.99649
  -6752038.03448  -5261318.34346         0.00041  22746167.57746  22746163.15148
 -14004207.54649 -10912350.89347         0.00041  20676011.18447  20676008.88249
 -12132985.37048  -9454266.53146         0.00041  22877628.40946  22877625.66048
  -5038195.45908  -3925861.48808  23803942.20808  23803948.30208         0.00001
 -11758527.73708  -9162477.80408  21063793.32608  21063797.19908         0.00001
   2533019.89148   1973780.33446         0.00041  22962415.48746  22962412.27148
 94 03 17 00 17 30.0000000  0  7 02 04 07 09 12 13 26
 -16847823.00849 -13128152.65746         0.00041  21502673.16746  21502670.51649
  -6846673.46348  -5335060.16246         0.00041  22728157.30646  22728154.24548
 -13965525.18449 -10882208.80347         0.00041  20683372.40547  20683369.76049
 -12221228.12448  -9523027.05646         0.00041  22860837.80646  22860833.28648
  -5128371.39708  -3996128.36308  23786782.35608  23786788.21208         0.00001
 -11817586.87408  -9208497.87908  21052554.80808  21052558.67008         0.00001
   2585413.07648   2014606.18246         0.00041  22972386.19646  22972381.43048
 94 03 17 00 18 00.0000000  0  7 02 04 07 09 12 13 26
 -16813649.15749 -13101523.68846         0.00041  21509176.33246  21509173.51549
  -6941093.46848  -5408634.13546         0.00041  22710189.47446  22710186.63548
 -13926505.65949 -10851803.98847         0.00041  20690797.60247  20690795.18249
 -12309220.47548  -9591592.47946         0.00041  22844092.45746  22844088.47548
  -5218536.28908  -4066386.64208  23769624.42908  23769630.18208         0.00001
 -11876126.09408  -9254112.82408  21041415.10208  21041418.99808         0.00001
   2638173.52348   2055718.19046         0.00041  22982426.18046  22982419.81048
 94 03 17 00 18 30.0000000  0  7 02 04 07 09 12 13 26
 -16779299.82449 -13074757.98746         0.00041  21515712.51146  21515709.90049
  -7035319.65648  -5482057.08546         0.00041  22692258.78346  22692256.04848
 -13887161.83449 -10821146.47247         0.00041  20698284.51447  20698282.17249
 -12396987.86748  -9659982.59546         0.00041  22827390.73846  22827387.04648
  -5308704.99108  -4136647.88308  23752465.91708  23752471.77208         0.00001
 -11934160.43508  -9299334.35408  21030371.52008  21030375.44608         0.00001
   2691284.07148   2097103.04546         0.00041  22992533.92346  22992524.79548
 94 03 17 00 19 00.0000000  0  7 02 04 07 09 12 13 26
 -16744778.11049 -13047857.96846         0.00041  21522281.46646  21522279.21049
  -7129338.94548  -5555318.77446         0.00041  22674366.98846  22674364.91948
 -13847499.52949 -10790240.78747         0.00041  20705832.05647  20705829.49649
 -12484545.34248  -9728209.13746         0.00041  22810727.30046  22810725.39848
  -5398870.64408  -4206906.75108  23735307.91408  23735313.85208         0.00001
 -11991683.88708  -9344157.78908  21019425.22208  21019429.02608         0.00001
   2744740.76948   2138757.63746         0.00041  23002705.52946  23002698.39248
 94 03 17 00 19 30.0000000  0  7 02 04 07 09 12 13 26
 -16710070.41149 -13020813.02246         0.00041  21528886.91246  21528884.03049
  -7223129.86848  -5628402.54746         0.00041  22656518.89446  22656516.94448
 -13807504.76849 -10759076.05447         0.00041  20713442.87647  20713440.26849
 -12571891.98548  -9796271.39946         0.00041  22794106.77646  22794104.19248
  -5489016.01108  -4277149.82808  23718153.91108  23718159.44908         0.00001
 -12048679.99508  -9388570.30908  21008579.20708  21008583.06408         0.00001
   2798544.54748   2180682.65346         0.00041  23012945.38446  23012938.95648
 94 03 17 00 20 00.0000000  0  7 02 04 07 09 12 13 26
 -16675189.31048 -12993632.96446         0.00041  21535523.77546  21535521.27448
  -7316719.87248  -5701329.73946         0.00041  22638709.97746  22638706.92548
 -13767185.08849 -10727658.12947         0.00041  20721115.16247  20721112.75149
 -12659050.60648  -9864187.14446         0.00041  22777521.76246  22777518.73248
  -5579147.15108  -4347381.81107  23701002.39108  23701008.04107         0.00001
 -12105155.33008  -9432577.03408  20997832.23608  20997836.09708         0.00001
   2852686.67348   2222871.30246         0.00041  23023247.47946  23023243.25348
 94 03 17 00 20 30.0000000  0  7 02 04 07 09 12 13 26
 -16640107.85349 -12966296.77746         0.00041  21542200.30646  21542197.70049
  -7410099.66048  -5774093.12246         0.00041  22620941.27946  22620937.68748
 -13726526.74449 -10695976.31447         0.00041  20728852.13347  20728849.39549
 -12745995.56648  -9931936.40246         0.00041  22760976.54346  22760972.89748
  -5669239.28908  -4417583.39907  23683858.16308  23683863.81707         0.00001
 -12161086.01408  -9476159.35208  20987188.87008  20987192.80308         0.00001
   2907179.49048   2265333.20446         0.00041  23033616.50546  23033613.73548
 94 03 17 00 21 00.0000000  0  7 02 04 07 09 12 13 26
 -16604830.08448 -12938807.62646         0.00041  21548913.69746  21548910.05148
  -7503271.37148  -5846694.36846         0.00041  22603210.04046  22603207.96448
 -13685545.12749 -10664042.59847         0.00041  20736650.84647  20736648.45149
 -12832712.42648  -9999507.93246         0.00041  22744474.80246  22744470.76848
  -5759297.14708  -4487758.27907  23666720.66108  23666726.30907         0.00001
 -12216477.60108  -9519321.60108  20976648.09608  20976652.09008         0.00001
   2961995.58248   2308046.99146         0.00041  23044046.71346  23044044.07548
 94 03 17 00 21 30.0000000  0  7 02 04 07 09 12 13 26
 -16569343.15449 -12911155.49146         0.00041  21555665.90546  21555663.89749
  -7596239.52748  -5919137.02146         0.00041  22585519.08046  22585516.46448
 -13644213.71649 -10631836.31147         0.00041  20744515.54747  20744513.41449
 -12919169.11148 -10066876.71846         0.00041  22728021.94746  22728018.07348
  -5849301.86208  -4557891.73607  23649593.27108  23649598.89907         0.00001
 -12271311.87608  -9562049.58208  20966213.48508  20966217.46408         0.00001
   3017147.00948   2351022.08046         0.00041  23054542.29846  23054540.63048
 94 03 17 00 22 00.0000000  0  7 02 04 07 09 12 13 26
 -16533636.89148 -12883332.44746         0.00041  21562461.06446  21562457.55948
  -7688998.88448  -5991416.96146         0.00041  22567867.86846  22567864.24348
 -13602514.98049 -10599343.79647         0.00041  20752450.94247  20752448.63049
 -13005349.01548 -10134029.82846         0.00041  22711622.07846  22711619.24848
  -5939246.19708  -4627978.15707  23632477.33508  23632483.01407         0.00001
 -12325582.55808  -9604338.39908  20955886.10208  20955890.11208         0.00001
   3072638.13748   2394261.87346         0.00041  23065101.12046  23065099.62348
 94 03 17 00 22 30.0000000  0  7 02 04 07 09 12 13 26
 -16497718.24048 -12855343.90846         0.00041  21569296.04646  21569293.17048
  -7781523.04648  -6063513.64446         0.00041  22550261.25446  22550257.65148
 -13560464.05149 -10566576.84347         0.00041  20760452.65347  20760450.44849
 -13091253.81148 -10200968.58746         0.00041  22695274.71246  22695272.90848
  -6029141.38708  -4698026.27007  23615370.85308  23615376.42007         0.00001
 -12379301.66008  -9646197.41808  20945663.74808  20945667.70808         0.00001
   3128446.90948   2437749.15946         0.00041  23075720.95346  23075719.67948
 94 03 17 00 23 00.0000000  0  6 02 04 07 09 12 13
 -16461599.61848 -12827199.53546         0.00041  21576169.22146  21576166.20448
  -7873801.80548  -6135419.11046         0.00041  22532701.02146  22532697.60448
 -13518064.81549 -10533538.48447         0.00041  20768520.98447  20768518.66249
 -13176893.51748 -10267700.77246         0.00041  22678978.11146  22678975.05648
  -6118991.71608  -4768039.44107  23598272.83208  23598278.28907         0.00001
 -12432474.15608  -9687630.50308  20935545.26908  20935549.26008         0.00001
 94 03 17 00 23 30.0000000  0  6 02 04 07 09 12 13
 -16425309.42348 -12798921.47746         0.00041  21583075.24746  21583071.91348
  -7965856.99948  -6207150.37046         0.00041  22515182.78546  22515179.81448
 -13475350.33349 -10500254.47847         0.00041  20776649.62647  20776647.23449
 -13262313.88848 -10334262.04446         0.00041  22662722.90146  22662720.50148
  -6208825.63608  -4838039.81807  23581177.71908  23581183.54007         0.00001
 -12485129.96708  -9728660.98108  20925525.15808  20925529.17308         0.00001
 94 03 17 00 24 00.0000000  0  7 02 04 05 07 09 12 13
 -16388766.15448 -12770446.21646         0.00041  21590028.80646  21590025.89048
  -8057595.44648  -6278634.80246         0.00041  22497725.82746  22497722.73048
         0.26058         1.20754         0.00051  25374939.94154  25374936.52258
 -13432272.53749 -10466687.36447         0.00041  20784847.07747  20784844.34449
 -13347444.64748 -10400597.64346         0.00041  22646524.84546  22646522.44648
  -6298575.90208  -4907975.00307  23564098.91908  23564104.58907         0.00001
 -12537202.65208  -9769237.07308  20915615.96708  20915619.98708         0.00001
 94 03 17 00 24 30.0000000  0  7 02 04 05 07 09 12 13
 -16352027.54648 -12741818.73946         0.00041  21597020.18846  21597017.09848
  -8149076.08548  -6349918.35946         0.00041  22480318.01246  22480314.39548
    -77360.49448    -60279.87644         0.00041  25360221.51044  25360214.21748
 -13388904.86949 -10432894.38747         0.00041  20793099.52947  20793096.53049
 -13432342.75748 -10466751.96646         0.00041  22630367.83246  22630364.59648
  -6388291.16808  -4977882.92608  23547026.47108  23547032.46608         0.00001
 -12588741.68308  -9809397.33508  20905808.49508  20905812.43708         0.00001
 94 03 17 00 25 00.0000000  0  7 02 04 05 07 09 12 13
 -16315089.28348 -12713035.68746         0.00041  21604049.63246  21604046.78448
  -8240324.68948  -6421021.10346         0.00041  22462952.82746  22462950.65048
   -154803.55348   -120625.08244         0.00041  25345484.75344  25345479.43048
 -13345255.48049 -10398881.87947         0.00041  20801405.85847  20801403.05049
 -13517015.05748 -10532730.33046         0.00041  22614256.58546  22614253.45048
  -6477976.44408  -5047767.48608  23529959.74508  23529965.90208         0.00001
 -12639753.18608  -9849146.53108  20896101.35408  20896105.33708         0.00001
 94 03 17 00 25 30.0000000  0  7 02 04 05 07 09 12 13
 -16277932.61648 -12684082.44046         0.00041  21611119.89846  21611116.88148
  -8331334.11148  -6491937.47846         0.00041  22445634.30746  22445632.58148
   -232322.51848   -181029.52744         0.00041  25330733.23644  25330727.76748
 -13301317.05249 -10364644.14347         0.00041  20809767.01947  20809764.84549
 -13601436.71948 -10598513.40046         0.00041  22598190.89546  22598188.16148
  -6567617.68508  -5117617.72508  23512901.69708  23512907.52908         0.00001
 -12690224.23908  -9888474.60108  20886497.07508  20886500.89208         0.00001
 94 03 17 00 26 00.0000000  0  7 02 04 05 07 09 12 13
 -16240553.68348 -12654956.01346         0.00041  21618232.69846  21618229.91648
  -8422102.01448  -6562665.64346         0.00041  22428361.98846  22428359.85448
   -309899.04148   -241478.76344         0.00041  25315974.29744  25315966.04148
 -13257069.92449 -10330165.87247         0.00041  20818186.75047  20818184.45549
 -13685587.68848 -10664085.53946         0.00041  22582176.67246  22582173.83248
  -6657200.59208  -5187422.50908  23495854.64908  23495860.40608         0.00001
 -12740141.44508  -9927371.10008  20876998.12208  20877002.02008         0.00001
 94 03 17 00 26 30.0000000  0  7 02 04 05 07 09 12 13
 -16202962.44248 -12625664.14646         0.00041  21625385.95546  21625383.26948
  -8512633.60248  -6633209.68046         0.00041  22411134.17846  22411131.58048
   -387514.55848   -301958.40544         0.00041  25301198.71344  25301195.52548
 -13212505.78549 -10295440.57747         0.00041  20826666.99247  20826664.67949
 -13769465.55248 -10729444.87646         0.00041  22566216.17446  22566212.84448
  -6746726.63808  -5257182.99008  23478818.39808  23478824.00208         0.00001
 -12789507.72608  -9965838.30308  20867604.05608  20867607.84708         0.00001
 94 03 17 00 27 00.0000000  0  7 02 04 05 07 09 12 13
 -16165139.77148 -12596191.96146         0.00041  21632583.54046  21632580.71348
  -8602897.62348  -6703545.20546         0.00041  22393957.69946  22393954.76648
   -465129.16147   -362437.24944         0.00041  25286430.47244  25286424.30847
 -13167599.72949 -10260448.84647         0.00041  20835212.48747  20835210.10649
 -13853043.25348 -10794570.31946         0.00041  22550309.85646  22550306.62548
  -6836182.97408  -5326889.15308  23461795.51208  23461801.00808         0.00001
 -12838311.38008 -10003867.10008  20858316.89508  20858320.78608         0.00001
 94 03 17 00 27 30.0000000  0  7 02 04 05 07 09 12 13
 -16127125.49348 -12566570.45446         0.00041  21639817.92446  21639814.55748
  -8692902.66048  -6773678.95446         0.00041  22376831.17246  22376827.53048
   -542779.94947   -422944.21044         0.00041  25271680.95744  25271664.05947
 -13122370.36549 -10225205.19847         0.00041  20843819.17447  20843816.76249
 -13936346.20148 -10859481.66246         0.00041  22534461.77446  22534457.22048
  -6925591.74208  -5396558.25008  23444781.46108  23444787.02008         0.00001
 -12886575.53508 -10041475.50808  20849132.54708  20849136.45708         0.00001
 94 03 17 00 28 00.0000000  0  6 02 04 07 09 12 13
 -16088919.64248 -12536799.67146         0.00041  21647087.42546  21647084.71548
  -8782619.88648  -6843588.44846         0.00041  22359758.51246  22359754.64448
 -13076808.10349 -10189702.14447         0.00041  20852489.35647  20852487.17249
 -14019365.78948 -10924172.23546         0.00041  22518659.83346  22518657.15848
  -7014941.31408  -5466181.21708  23427778.80008  23427784.19508         0.00001
 -12934290.05208 -10078655.62608  20840052.79108  20840056.60108         0.00001
 94 03 17 00 28 30.0000000  0  7 02 04 05 07 09 12 13
 -16050492.23748 -12506856.25646         0.00041  21654400.47946  21654397.79548
  -8872010.53548  -6913243.46746         0.00041  22342748.53346  22342744.11248
        -0.38258         0.04855         0.00051  25242118.97955  25242116.08158
 -13030889.52149 -10153921.43647         0.00041  20861227.86547  20861225.36749
 -14102071.09448 -10988617.89446         0.00041  22502922.22046  22502920.01848
  -7104200.98408  -5535734.14908  23410793.25208  23410798.54408         0.00001
 -12981425.29208 -10115384.35908  20831083.25108  20831087.05808         0.00001
 94 03 17 00 29 00.0000000  0  7 02 04 05 07 09 12 13
 -16011927.21148 -12476805.60746         0.00041  21661739.31346  21661735.97048
  -8961155.47448  -6982707.00146         0.00041  22325783.87846  22325780.63248
    -77699.26448    -60544.33844         0.00041  25227334.12644  25227329.07448
 -12984690.78449 -10117922.43147         0.00041  20870018.94447  20870016.49649
 -14184549.69748 -11052886.91446         0.00041  22487227.75946  22487225.56448
  -7193440.72108  -5605271.53308  23393811.43208  23393816.67908         0.00001
 -13028052.79608 -10151717.45608  20822210.26608  20822214.13408         0.00001
 94 03 17 00 29 30.0000000  0  7 02 04 05 07 09 12 13
 -15973235.26348 -12446656.05746         0.00041  21669101.94246  21669098.68748
  -9050065.25148  -7051987.29346         0.00041  22308865.06146  22308861.97748
   -155489.69048   -121160.06444         0.00041  25212528.84344  25212527.16748
 -12938227.50349 -10081717.28247         0.00041  20878860.32747  20878857.93549
 -14266818.11148 -11116992.15146         0.00041  22471571.87546  22471569.23448
  -7282661.20208  -5674793.91308  23376833.36508  23376838.38808         0.00001
 -13074174.28008 -10187656.24908  20813433.61308  20813437.47808         0.00001
 94 03 17 00 30 00.0000000  0  7 02 04 05 07 09 12 13
 -15934374.39448 -12416374.88346         0.00041  21676496.64246  21676493.98448
  -9138712.30648  -7121062.87246         0.00041  22291995.56646  22291993.06248
   -233336.01948   -181819.25044         0.00041  25197715.15444  25197709.85748
 -12891482.65349 -10045292.74147         0.00041  20887756.09147  20887753.50949
 -14348833.90148 -11180900.53446         0.00041  22455966.63746  22455963.86148
  -7371823.31108  -5744270.81108  23359866.21008  23359871.44008         0.00001
 -13119752.21908 -10223171.50508  20804760.36008  20804764.27508         0.00001
 94 03 17 00 30 30.0000000  0  7 02 04 05 07 09 12 13
 -15895287.42648 -12385917.53446         0.00041  21683934.81746  21683932.10348
  -9227080.99648  -7189921.55146         0.00041  22275179.05146  22275177.04548
   -311200.54747   -242492.80344         0.00041  25182890.04944  25182889.29347
 -12844429.07949 -10008627.63047         0.00041  20896709.78947  20896707.24449
 -14430562.37648 -11244585.03646         0.00041  22440412.47346  22440409.48348
  -7460892.32808  -5813675.16408  23342916.65708  23342922.19408         0.00001
 -13164753.42708 -10258237.35608  20796196.82708  20796200.81108         0.00001
 94 03 17 00 31 00.0000000  0  7 02 04 05 07 09 12 13
 -15855951.35848 -12355266.08646         0.00041  21691420.60846  21691417.28948
  -9315155.63048  -7258551.09446         0.00041  22258417.98446  22258417.18448
   -389059.78148   -303162.11544         0.00041  25168084.59644  25168077.94648
 -12797060.81549  -9971717.30047         0.00041  20905723.85447  20905720.97449
 -14511985.97548 -11308031.98346         0.00041  22424919.46546  22424916.61248
  -7549858.18608  -5882999.14808  23325986.95508  23325992.38508         0.00001
 -13209168.99008 -10292846.86208  20787744.80308  20787748.79508         0.00001
 94 03 17 00 31 30.0000000  0  7 02 04 05 07 09 12 13
 -15816383.65148 -12324434.12646         0.00041  21698949.61546  21698946.79448
  -9402949.78848  -7326962.10446         0.00041  22241712.53046  22241710.19648
   -466932.77348   -363842.21444         0.00041  25153262.46644  25153259.78748
 -12749411.52049  -9934587.99347         0.00041  20914791.15847  20914788.34749
 -14593109.89748 -11371245.39646         0.00041  22409480.58546  22409477.59848
  -7638748.01208  -5952263.87608  23309071.71408  23309077.20608         0.00001
 -13253027.77008 -10327022.51508  20779398.71508  20779402.75208         0.00001
 94 03 17 00 32 00.0000000  0  7 02 04 05 07 09 12 13
 -15776572.60948 -12293412.55846         0.00041  21706525.91846  21706522.96648
  -9490463.32548  -7395154.43446         0.00041  22225059.28646  22225056.02748
   -544828.11348   -424539.82244         0.00041  25138442.45144  25138437.72948
 -12701469.55949  -9897230.63347         0.00041  20923914.37747  20923911.66649
 -14673923.59448 -11434217.09246         0.00041  22394102.49746  22394099.84448
  -7727562.04008  -6021469.54908  23292170.93708  23292176.51408         0.00001
 -13296331.42908 -10360765.60508  20771158.28608  20771162.31408         0.00001
 94 03 17 00 32 30.0000000  0  7 02 04 05 07 09 12 13
 -15736509.59048 -12262194.65446         0.00041  21714149.74046  21714146.75248
  -9577693.18948  -7463125.71646         0.00041  22208459.67746  22208457.51348
   -622746.08348   -485255.05644         0.00041  25123615.28344  25123612.33848
 -12653218.51649  -9859632.42547         0.00041  20933096.01047  20933093.56149
 -14754432.94448 -11496951.63846         0.00041  22378782.39646  22378779.44348
  -7816299.67808  -6090615.69808  23275284.76108  23275290.22408         0.00001
 -13339080.71208 -10394076.71008  20763023.41208  20763027.33208         0.00001
 94 03 17 00 33 00.0000000  0  7 02 04 05 07 09 12 13
 -15696223.37148 -12230802.80446         0.00041  21721815.63246  21721812.86848
  -9664629.34148  -7530868.15246         0.00041  22191916.95546  22191914.00348
   -700696.50148   -545995.67144         0.00041  25108784.08144  25108780.56448
 -12604669.92149  -9821802.36347         0.00041  20942334.91147  20942331.99649
 -14834643.20148 -11559453.10646         0.00041  22363517.02146  22363514.84648
  -7904966.67508  -6159706.79608  23258411.95908  23258417.41408         0.00001
 -13381283.30308 -10426961.82408  20754992.60108  20754996.50408         0.00001
 94 03 17 00 33 30.0000000  0  7 02 04 05 07 09 12 13
 -15655740.00648 -12199257.34346         0.00041  21729519.63246  21729516.44448
  -9751290.87748  -7598396.59446         0.00041  22175426.60746  22175423.03348
   -778714.86948   -606789.14144         0.00041  25093933.88144  25093928.91348
 -12555846.64449  -9783758.26947         0.00041  20951625.62247  20951623.22849
 -14914576.88148 -11621739.06446         0.00041  22348308.38646  22348305.68848
  -7993578.01408  -6228754.53808  23241549.77108  23241555.11708         0.00001
 -13422955.66608 -10459433.77308  20747062.59308  20747066.47808         0.00001
 94 03 17 00 34 00.0000000  0  7 02 04 05 07 09 12 13
 -15615042.93548 -12167545.35946         0.00041  21737263.94346  21737261.21548
  -9837673.13348  -7665707.39046         0.00041  22158986.95546  22158984.88748
   -856803.18148   -667637.10744         0.00041  25079071.30244  25079063.18648
 -12506745.14149  -9745497.37047         0.00041  20960969.19647  20960966.72749
 -14994231.65248 -11683807.68246         0.00041  22333150.09346  22333146.66848
  -8082120.42908  -6297748.57108  23224700.73108  23224706.00408         0.00001
 -13464086.26808 -10491483.57208  20739235.65708  20739239.56708         0.00001
 94 03 17 00 34 30.0000000  0  7 02 04 05 07 09 12 13
 -15574136.28548 -12135670.05646         0.00041  21745048.62746  21745045.68148
  -9923748.38548  -7732778.98546         0.00041  22142607.74746  22142605.49048
   -934951.75548   -728531.89144         0.00041  25064199.76144  25064194.48448
 -12457365.70049  -9707019.89747         0.00041  20970365.78047  20970363.68949
 -15073587.13348 -11745643.09446         0.00041  22318049.88246  22318046.36348
  -8170577.30208  -6366675.93608  23207867.87408  23207873.02208         0.00001
 -13504659.92008 -10523099.38708  20731514.72808  20731518.71208         0.00001
 94 03 17 00 35 00.0000000  0  7 02 04 05 07 09 12 13
 -15533025.60148 -12103635.76746         0.00041  21752871.20946  21752868.18548
 -10009498.78848  -7799597.43746         0.00041  22126289.61146  22126287.85448
  -1013162.63848   -789475.32945         0.00041  25049320.46745  25049314.12348
 -12407711.22649  -9668328.11747         0.00041  20979815.27547  20979812.78549
 -15152623.58048 -11807229.90446         0.00041  22303008.43846  22303005.84648
  -8258941.59508  -6435531.16908  23191052.52508  23191057.75708         0.00001
 -13544671.58408 -10554277.28308  20723900.70608  20723904.72308         0.00001
 94 03 17 00 35 30.0000000  0  7 02 04 05 07 09 12 13
 -15491696.21048 -12071431.06246         0.00041  21760736.68346  21760733.33548
 -10094918.15948  -7866157.93446         0.00041  22110035.20146  22110032.97748
  -1091426.10348   -850459.76645         0.00041  25034425.94845  25034420.69948
 -12357764.73049  -9629408.78547         0.00041  20989319.29347  20989317.23149
 -15231332.19748 -11868561.26046         0.00041  22288030.95646  22288027.38448
  -8347201.42608  -6504305.01508  23174257.20108  23174262.42708         0.00001
 -13584110.96508 -10585009.25408  20716395.76908  20716399.60208         0.00001
 94 03 17 00 36 00.0000000  0  7 02 04 05 07 09 12 13
 -15450148.73048 -12039056.41346         0.00041  21768642.24946  21768639.17648
 -10179990.77748  -7932448.24446         0.00041  22093846.58546  22093843.89248
  -1169725.93448   -911473.31844         0.00041  25019522.91444  25019520.51948
 -12307520.54049  -9590257.48147         0.00041  20998880.59547  20998877.71649
 -15309706.75648 -11929632.31646         0.00041  22273117.35646  22273114.25248
  -8435354.37908  -6572995.56708  23157482.25908  23157487.41608         0.00001
 -13622977.54008 -10615294.88008  20708999.62308  20709003.41508         0.00001
 94 03 17 00 36 30.0000000  0  7 02 04 05 07 09 12 13
 -15408404.03848 -12006528.09246         0.00041  21776586.35546  21776583.05048
 -10264718.08748  -7998469.46246         0.00041  22077723.83846  22077720.60348
  -1248066.38148   -972517.90245         0.00041  25004616.52645  25004611.89148
 -12256992.05349  -9550884.64847         0.00041  21008495.26347  21008492.81249
 -15387760.38848 -11990453.29546         0.00041  22258264.31846  22258261.15448
  -8523413.03808  -6641612.64708  23140725.11308  23140730.28708         0.00001
 -13661285.79408 -10645145.44108  20701709.83208  20701713.60408         0.00001
 94 03 17 00 37 00.0000000  0  7 02 04 05 07 09 12 13
 -15366460.53948 -11973844.86246         0.00041  21784568.07546  21784564.33148
 -10349113.41348  -8064232.00746         0.00041  22061663.29346  22061660.55648
  -1326444.97448  -1033592.01344         0.00041  24989705.17744  24989693.28448
 -12206191.15949  -9511299.54547         0.00041  21018162.51347  21018159.98649
 -15465512.95248 -12051039.67846         0.00041  22243468.21646  22243464.91048
  -8611385.60308  -6710162.64808  23123984.48608  23123989.57408         0.00001
 -13699045.72608 -10674568.74108  20694524.30108  20694527.98008         0.00001
 94 03 17 00 37 30.0000000  0  7 02 04 05 07 09 12 13
 -15324307.20248 -11940998.12446         0.00041  21792589.24746  21792586.20848
 -10433175.98448  -8129735.27646         0.00041  22045666.07046  22045663.87448
  -1404845.36947  -1094683.10944         0.00041  24974787.01744  24974772.35047
 -12155113.34849  -9471498.66947         0.00041  21027882.61147  21027879.58749
 -15542951.29548 -12111381.21346         0.00041  22228731.81846  22228728.90448
  -8699257.65308  -6778634.32308  23107262.96808  23107268.01508         0.00001
 -13736244.69208 -10703554.92408  20687445.39808  20687449.24508         0.00001
 94 03 17 00 38 00.0000000  0  7 02 04 05 07 09 12 13
 -15281942.17148 -11907986.43646         0.00041  21800650.57246  21800647.89348
 -10516905.17548  -8194978.74446         0.00041  22029732.93346  22029730.76748
  -1483262.90048  -1155787.66444         0.00041  24959855.45344  24959853.93348
 -12103761.45849  -9431484.22147         0.00041  21037654.20147  21037651.51549
 -15620059.44648 -12171465.44846         0.00041  22214059.05546  22214056.03848
  -8787023.89808  -6847023.55208  23090561.64808  23090566.61608         0.00001
 -13772879.51408 -10732101.52208  20680473.89508  20680477.89508         0.00001
 94 03 17 00 38 30.0000000  0  7 02 04 05 07 09 12 13
 -15239388.65748 -11874827.87146         0.00041  21808748.58746  21808745.67448
 -10600338.87748  -8259991.99346         0.00041  22013856.05546  22013854.13248
  -1561728.32848  -1216929.43744         0.00041  24944930.24844  24944922.20348
 -12052165.54149  -9391279.62147         0.00041  21047472.91347  21047469.87749
 -15696855.92148 -12231306.82946         0.00041  22199444.46746  22199441.07048
  -8874701.82408  -6915343.97108  23073877.25108  23073881.99008         0.00001
 -13808969.51208 -10760223.57908  20673606.24508  20673610.23108         0.00001
 94 03 17 00 39 00.0000000  0  7 02 04 05 07 09 12 13
 -15196647.79448 -11841523.33346         0.00041  21816882.33346  21816879.29448
 -10683475.42048  -8324773.68146         0.00041  21998036.34146  21998033.86448
  -1640235.63748  -1278103.93645         0.00041  24929987.29345  24929984.66648
 -12000319.13149  -9350879.82747         0.00041  21057339.13047  21057336.83349
 -15773322.17748 -12290890.89346         0.00041  22184894.28146  22184891.07248
  -8962283.33608  -6983589.25508  23057210.96108  23057215.85708         0.00001
 -13844508.53808 -10787916.31108  20666843.42908  20666847.40008         0.00001
 94 03 17 00 39 30.0000000  0  7 02 04 05 07 09 12 13
 -15153705.45348 -11808061.79846         0.00041  21825053.60046  21825050.28448
 -10766303.47148  -8389314.97146         0.00041  21982274.22946  21982272.29148
  -1718776.82648  -1339304.79045         0.00041  24915040.25845  24915040.34748
 -11948196.48449  -9310264.78947         0.00041  21067257.68747  21067255.39949
 -15849431.57948 -12350196.87446         0.00041  22170410.30946  22170407.29248
  -9049753.31408  -7051747.62308  23040565.94608  23040570.74208         0.00001
 -13879483.60808 -10815169.59508  20660187.98308  20660191.84008         0.00001
 94 03 17 00 40 00.0000000  0  7 02 04 05 07 09 12 13
 -15110535.81448 -11774423.13946         0.00041  21833269.31646  21833265.82948
 -10848794.48848  -8453593.63946         0.00041  21966577.41946  21966574.64148
  -1797329.99548  -1400514.98545         0.00041  24900095.62145  24900091.08448
 -11895782.11649  -9269422.43747         0.00041  21077232.06247  21077229.39649
 -15925169.20148 -12409213.17346         0.00041  22155998.66546  22155995.65548
  -9137093.01108  -7119804.47608  23023945.72208  23023950.65408         0.00001
 -13913878.05308 -10841970.44008  20653642.90108  20653646.69408         0.00001
 94 03 17 00 40 30.0000000  0  7 02 04 05 07 09 12 13
 -15067154.65848 -11740619.66046         0.00041  21841523.84146  21841520.45948
 -10930964.33348  -8517622.04246         0.00041  21950940.21046  21950937.79048
  -1875903.60548  -1461741.08945         0.00041  24885141.26045  24885136.83448
 -11843109.39249  -9228378.76047         0.00041  21087255.38847  21087252.87849
 -16000568.91948 -12467966.16146         0.00041  22141649.00146  22141646.42148
  -9224326.86608  -7187778.85208  23007345.50608  23007350.53008         0.00001
 -13947718.34208 -10868339.48008  20647203.21908  20647207.10008         0.00001
 94 03 17 00 41 00.0000000  0  7 02 04 05 07 09 12 13
 -15023543.81448 -11706637.21346         0.00041  21849823.10746  21849820.01948
 -11012798.25448  -8581388.68646         0.00041  21935367.87246  21935365.51248
  -1954471.56248  -1522962.76045         0.00041  24870191.39645  24870185.84648
 -11790160.09749  -9187119.57847         0.00041  21097331.18847  21097328.40249
 -16075624.74148 -12526451.18046         0.00041  22127367.82546  22127364.47648
  -9311446.08008  -7255663.89808  22990767.18408  22990772.36908         0.00001
 -13980997.79208 -10894271.50008  20640870.46908  20640874.25008         0.00001
 94 03 17 00 41 30.0000000  0  7 02 04 05 07 09 12 13
 -14979690.24848 -11672465.62846         0.00041  21858168.19746  21858164.82948
 -11094298.49448  -8644895.32046         0.00041  21919858.99746  21919856.52548
  -2033041.67148  -1584186.12445         0.00041  24855237.34545  24855237.26348
 -11736939.40649  -9145648.92447         0.00041  21107458.31247  21107455.94949
 -16150346.81048 -12584676.14146         0.00041  22113148.15846  22113145.13248
  -9398450.97408  -7323459.86508  22974210.57108  22974215.90508         0.00001
 -14013718.81408 -10919768.38208  20634643.87508  20634647.63108         0.00001
 94 03 17 00 42 00.0000000  0  7 02 04 05 07 09 12 13
 -14935617.36048 -11638123.14246         0.00041  21866554.96446  21866551.99048
 -11175466.28848  -8708142.90846         0.00041  21904413.15346  21904410.45448
  -2111634.11748  -1645426.89045         0.00041  24840285.87845  24840281.85348
 -11683479.96349  -9103992.22047         0.00041  21117631.08347  21117628.55449
 -16224758.65548 -12642659.36346         0.00041  22098988.08946  22098985.13348
  -9485354.88908  -7391177.15108  22957673.26908  22957678.52908         0.00001
 -14045897.23708 -10944842.45908  20628520.58008  20628524.27608         0.00001
 94 03 17 00 42 30.0000000  0  7 02 04 05 07 09 12 13
 -14891332.69848 -11603615.64046         0.00041  21874981.87446  21874978.66948
 -11256294.40248  -8771125.80846         0.00041  21889032.16546  21889029.33948
  -2190252.51248  -1706687.86545         0.00041  24825323.80045  24825318.21548
 -11629773.81149  -9062143.27747         0.00041  21127851.33947  21127848.57449
 -16298856.91348 -12700398.23746         0.00041  22084888.05546  22084884.92548
  -9572151.09408  -7458810.51808  22941156.47408  22941161.73208         0.00001
 -14077528.19708 -10969489.94208  20622501.35208  20622505.10308         0.00001
 94 03 17 00 43 00.0000000  0  7 02 04 05 07 09 12 13
 -14846836.25848 -11568943.10446         0.00041  21883449.09046  21883446.18648
 -11336776.88848  -8833839.38046         0.00041  21873716.86446  21873714.03448
  -2268927.07548  -1767992.59044         0.00041  24810353.21044  24810345.74448
 -11575813.87649  -9020096.58247         0.00041  21138119.58947  21138117.01049
 -16372629.24948 -12757883.13646         0.00041  22070848.23946  22070846.05148
  -9658832.77008  -7526354.63008  22924661.47808  22924666.69808         0.00001
 -14108607.32208 -10993707.42408  20616587.16808  20616590.90108         0.00001
 94 03 17 00 43 30.0000000  0  7 02 04 05 07 09 12 13
 -14802113.97248 -11534094.59646         0.00041  21891959.11346  21891956.89948
 -11416873.93448  -8896252.61946         0.00041  21858474.92546  21858472.46348
  -2347662.36348  -1829344.72644         0.00041  24795373.93544  24795362.46648
 -11521594.66149  -8977847.85947         0.00041  21148437.42647  21148434.57549
 -16446044.98248 -12815090.17446         0.00041  22056878.85346  22056876.56448
  -9745377.05708  -7593791.68508  22908192.69808  22908197.81808         0.00001
 -14139113.97308 -11017478.82208  20610781.84008  20610785.58408         0.00001
 94 03 17 00 44 00.0000000  0  7 02 04 05 07 09 12 13
 -14757174.34248 -11499076.72346         0.00041  21900511.15046  21900508.05248
 -11496582.07748  -8958362.81546         0.00041  21843306.70746  21843303.87948
  -2426461.88948  -1890746.86244         0.00041  24780373.76044  24780367.82348
 -11467128.53249  -8935406.72847         0.00041  21158802.12847  21158799.32549
 -16519109.10748 -12872023.22346         0.00041  22042974.45346  22042971.79048
  -9831787.71208  -7661124.62508  22891749.27308  22891754.36408         0.00001
 -14169054.37608 -11040808.98908  20605084.31808  20605088.10308         0.00001
 94 03 17 00 44 30.0000000  0  7 02 04 05 07 09 12 13
 -14712016.16748 -11463888.56046         0.00041  21909105.05646  21909101.48348
 -11575921.95348  -9020186.04546         0.00041  21828208.89746  21828206.20848
  -2505329.65348  -1952202.11745         0.00041  24765366.10045  24765359.51948
 -11412426.52849  -8892781.80247         0.00041  21169211.88747  21169208.95449
 -16591827.09048 -12928686.55946         0.00041  22029137.29646  22029134.27248
  -9918076.89508  -7728362.89908  22875328.92408  22875333.92608         0.00001
 -14198442.95208 -11063709.16408  20599491.80308  20599495.59808         0.00001
 94 03 17 00 45 00.0000000  0  7 02 04 05 07 09 12 13
 -14666612.06348 -11428508.75146         0.00041  21917744.29646  21917741.26648
 -11654862.43848  -9081698.09046         0.00041  21813187.24646  21813184.27548
  -2584248.25448  -2013696.92245         0.00041  24750347.52945  24750341.70848
 -11357470.33949  -8849958.81347         0.00041  21179669.30247  21179666.55649
 -16664172.08648 -12985059.25446         0.00041  22015370.76146  22015367.61348
 -10004224.83608  -7795491.11108  22858935.48908  22858940.45908         0.00001
 -14227262.21408 -11086165.71708  20594007.78608  20594011.53508         0.00001
 94 03 17 00 45 30.0000000  0  7 02 04 05 07 09 12 13
 -14620966.25248 -11392940.61046         0.00041  21926430.88746  21926427.73748
 -11733402.85448  -9142898.37746         0.00041  21798240.98246  21798238.30748
  -2663198.75048  -2075216.71345         0.00041  24735323.99745  24735316.64348
 -11302272.64449  -8806947.63747         0.00041  21190172.76747  21190169.94049
 -16736153.90348 -13041148.95546         0.00041  22001672.11646  22001669.46948
 -10090232.04508  -7862509.66008  22842568.77608  22842573.92308         0.00001
 -14255515.26908 -11108181.06908  20588631.45208  20588635.12208         0.00001
 94 03 17 00 46 00.0000000  0  7 02 04 05 07 09 12 13
 -14575086.02448 -11357189.80346         0.00041  21935161.45646  21935158.48448
 -11811567.71848  -9203806.03246         0.00041  21783366.91846  21783364.21748
  -2742169.45848  -2136752.16045         0.00041  24720295.01945  24720289.73648
 -11246833.23449  -8763748.11347         0.00041  21200722.50547  21200719.97949
 -16807786.44948 -13096966.49346         0.00041  21988041.35146  21988039.12048
 -10176106.32408  -7929424.62908  22826227.45908  22826232.44908         0.00001
 -14283212.28808 -11129763.14508  20583360.83608  20583364.52608         0.00001
 94 03 17 00 46 30.0000000  0  7 02 04 05 07 09 12 13
 -14528985.01148 -11321266.95946         0.00041  21943935.08646  21943931.27048
 -11889362.62848  -9264425.41246         0.00041  21768562.54446  21768560.25348
  -2821165.07048  -2198307.04045         0.00041  24705263.32945  24705259.41348
 -11191154.14849  -8720361.82947         0.00041  21211318.70547  21211315.86249
 -16879061.02448 -13152505.09746         0.00041  21974478.65746  21974475.69148
 -10261852.49508  -7996239.76808  22809910.47608  22809915.24908         0.00001
 -14310360.69808 -11150917.74008  20578194.54208  20578198.30808         0.00001
 94 03 17 00 47 00.0000000  0  7 02 04 05 07 09 12 13
 -14482665.14148 -11285173.57446         0.00041  21952748.49946  21952745.50848
 -11966792.60848  -9324760.42946         0.00041  21753828.73646  21753826.29448
  -2900193.36548  -2259887.39445         0.00041  24690227.18645  24690221.64548
 -11135240.41949  -8676792.72047         0.00041  21221958.61647  21221956.08349
 -16949979.58348 -13207766.28746         0.00041  21960982.85746  21960980.40048
 -10347467.96608  -8062953.06108  22793618.26608  22793623.07608         0.00001
 -14336960.23808 -11171644.64108  20573132.85408  20573136.59308         0.00001
 94 03 17 00 47 30.0000000  0  7 02 04 05 07 09 12 13
 -14436118.99748 -11248903.87246         0.00041  21961606.50846  21961602.93348
 -12043878.56748  -9384827.37846         0.00041  21739159.06046  21739157.21048
  -2979247.66548  -2321488.02145         0.00041  24675182.99345  24675177.66648
 -11079094.50949  -8633042.68247         0.00041  21232643.13047  21232640.55249
 -17020539.47548 -13262747.99846         0.00041  21947555.96446  21947553.16148
 -10432948.53508  -8129561.22908  22777351.78808  22777356.66108         0.00001
 -14363009.39808 -11191942.68008  20568175.84208  20568179.56108         0.00001
 94 03 17 00 48 00.0000000  0  7 02 04 05 07 09 12 13
 -14389347.92648 -11212458.90646         0.00041  21970506.52246  21970503.11748
 -12120616.38648  -9444623.04946         0.00041  21724557.27946  21724554.55248
  -3058333.79148  -2383113.41245         0.00041  24660131.20645  24660126.74048
 -11022702.03449  -8589100.51647         0.00041  21243373.97647  21243371.20449
 -17090730.77148 -13317442.49146         0.00041  21934198.63546  21934195.96548
 -10518292.57008  -8196063.01408  22761111.28308  22761116.12208         0.00001
 -14388509.03008 -11211812.50908  20563323.46408  20563327.13408         0.00001
 94 03 17 00 48 30.0000000  0  7 02 04 05 07 09 12 13
 -14342336.53148 -11175826.67346         0.00041  21979452.13546  21979449.23648
 -12196977.04748  -9504124.82546         0.00041  21710026.26646  21710023.44748
  -3137453.90248  -2444765.33544         0.00041  24645074.68544  24645069.54148
 -10966063.01749  -8544966.23947         0.00041  21254151.51247  21254148.86949
 -17160536.55148 -13371836.58146         0.00041  21920915.14846  21920912.69348
 -10603482.70508  -8262444.87608  22744900.13608  22744904.83108         0.00001
 -14413444.54008 -11231242.76508  20558578.38508  20558582.09408         0.00001
 94 03 17 00 49 00.0000000  0  7 02 04 05 07 09 12 13
 -14295086.71748 -11139008.66246         0.00041  21988444.28346  21988440.45248
 -12272962.35948  -9563334.12346         0.00041  21695566.38346  21695563.31948
  -3216611.49148  -2506446.45944         0.00041  24630021.18644  24630008.03648
 -10909189.67749  -8500649.37447         0.00041  21264974.01847  21264971.04749
 -17229966.67448 -13425937.95746         0.00041  21907703.01146  21907700.69348
 -10688518.85008  -8328706.74008  22728718.31708  22728722.99508         0.00001
 -14437818.16908 -11250235.19408  20553940.28508  20553943.95708         0.00001
 94 03 17 00 49 30.0000000  0  7 02 04 05 07 09 12 13
 -14247621.32548 -11102022.66546         0.00041  21997476.84846  21997472.90648
 -12348546.62348  -9622230.91446         0.00041  21681183.04546  21681179.87048
  -3295806.67748  -2568156.87244         0.00041  24614945.10644  24614937.98148
 -10852081.42749  -8456149.45447         0.00041  21275841.48247  21275838.93449
 -17299019.62048 -13479745.42846         0.00041  21894562.20346  21894559.75148
 -10773401.96908  -8394849.36708  22712565.60708  22712570.25308         0.00001
 -14461633.75608 -11268792.78208  20549408.28608  20549412.01408         0.00001
 94 03 17 00 50 00.0000000  0  7 02 04 05 07 09 12 13
 -14199913.56548 -11064847.80346         0.00041  22006554.47246  22006552.09048
 -12423668.41448  -9680767.33346         0.00041  21666887.89046  21666885.53048
  -3374996.49648  -2629863.10445         0.00041  24599875.74245  24599869.42048
 -10794706.23249  -8411441.52047         0.00041  21286760.43447  21286758.00449
 -17367654.73548 -13533227.31346         0.00041  21881501.69646  21881499.22048
 -10858089.54008  -8460839.62608  22696449.96408  22696454.76208         0.00001
 -14484851.65708 -11286884.64108  20544990.05308  20544993.83008         0.00001
 94 03 17 00 50 30.0000000  0  8 02 04 05 07 09 12 13 24
 -14152000.15748 -11027512.70946         0.00041  22015671.68146  22015669.10448
 -12498370.34348  -9738976.59846         0.00041  21652672.16046  21652669.88348
  -3454210.91848  -2691588.46545         0.00041  24584800.51945  24584795.66748
 -10737127.66849  -8366575.11447         0.00041  21297717.75047  21297715.46449
 -17435907.19248 -13586411.01846         0.00041  21868512.68846  21868510.98048
 -10942616.81608  -8526704.98008  22680365.00308  22680369.67508         0.00001
 -14507509.62508 -11304540.18808  20540678.34908  20540682.10408         0.00001
        -0.25657         0.17954         0.00051  23486315.62654  23486314.12957
 94 03 17 00 51 00.0000000  0  8 02 04 05 07 09 12 13 24
 -14103912.60548 -10990041.90146         0.00041  22024823.41246  22024819.97048
 -12572689.60148  -9796887.68346         0.00041  21638529.30146  21638527.19848
  -3533473.52748  -2753351.40245         0.00041  24569717.54045  24569712.51548
 -10679375.86649  -8321573.72847         0.00041  21308707.30547  21308705.18149
 -17503810.50948 -13639322.66746         0.00041  21855592.37346  21855589.68348
 -11027014.98708  -8592469.72708  22664304.49408  22664309.12508         0.00001
 -14529641.69308 -11321785.94008  20536466.68608  20536470.45108         0.00001
   -105121.93647    -81912.76544         0.00041  23466306.63344  23466308.44147
 94 03 17 00 51 30.0000000  0  8 02 04 05 07 09 12 13 24
 -14055632.67248 -10952421.18946         0.00041  22034010.12746  22034007.37948
 -12646620.63048  -9854496.24246         0.00041  21624460.92046  21624458.31048
  -3612778.49948  -2815147.37845         0.00041  24554622.98145  24554620.86948
 -10621431.25549  -8276422.09947         0.00041  21319733.38647  21319730.47149
 -17571345.52248 -13691947.33146         0.00041  21842739.91446  21842738.02348
 -11111269.48108  -8658122.52208  22648271.32208  22648276.06608         0.00001
 -14551235.99708 -11338612.66008  20532357.41108  20532361.15008         0.00001
   -210153.67047   -163755.76244         0.00041  23446316.44944  23446323.35247
 94 03 17 00 52 00.0000000  0  8 02 04 05 07 09 12 13 24
 -14007118.80748 -10914618.18646         0.00041  22043242.89946  22043239.35348
 -12720162.52348  -9911801.56646         0.00041  21610466.81146  21610463.41548
  -3692108.17148  -2876962.60845         0.00041  24539528.61845  24539525.90648
 -10563278.86149  -8231108.55347         0.00041  21330798.59947  21330795.86249
 -17638492.68148 -13744269.76446         0.00041  21829962.57346  21829960.20348
 -11195357.61608  -8723645.69508  22632270.00308  22632274.50708         0.00001
 -14572272.87208 -11355005.01508  20528354.16008  20528358.00808         0.00001
   -315074.52247   -245512.81544         0.00041  23426357.31444  23426357.02547
 94 03 17 00 52 30.0000000  0  8 02 04 05 07 09 12 13 24
 -13958362.47648 -10876626.25646         0.00041  22052520.66546  22052517.13648
 -12793322.06548  -9968808.97246         0.00041  21596544.95946  21596542.06648
  -3771465.41348  -2938799.36046         0.00041  24524427.46546  24524423.40648
 -10504913.65749  -8185629.17847         0.00041  21341905.48447  21341902.59949
 -17705251.56948 -13796289.65346         0.00041  21817258.08946  21817256.05448
 -11279278.16408  -8789038.27908  22616300.30608  22616304.78608         0.00001
 -14592753.80808 -11370964.17708  20524456.84308  20524460.61908         0.00001
   -419887.94547   -327185.89844         0.00041  23406409.55744  23406412.45647
 94 03 17 00 53 00.0000000  0  8 02 04 05 07 09 12 13 24
 -13909351.53848 -10838435.92446         0.00041  22061846.55846  22061843.64448
 -12866093.58248 -10025514.02446         0.00041  21582697.31546  21582694.45148
  -3850865.01448  -3000669.11445         0.00041  24509318.91245  24509314.39248
 -10446314.53549  -8139967.52947         0.00041  21353056.99547  21353054.43649
 -17771618.72548 -13848004.29546         0.00041  21804629.59946  21804627.60248
 -11363026.37908  -8854296.59008  22600363.52308  22600368.07208         0.00001
 -14612676.82608 -11386488.59708  20520665.69708  20520669.45708         0.00001
   -524598.73647   -408778.68744         0.00041  23386482.46444  23386486.85247
 94 03 17 00 53 30.0000000  0  8 02 04 05 07 09 12 13 24
 -13860075.57048 -10800039.08446         0.00041  22071224.28646  22071220.42948
 -12938460.83148 -10081904.06346         0.00041  21568925.98046  21568923.41348
  -3930303.41748  -3062569.10645         0.00041  24494203.36145  24494196.69748
 -10387472.02649  -8094116.23647         0.00041  21364254.17147  21364252.06749
 -17837574.77948 -13899398.59946         0.00041  21792078.56546  21792076.02348
 -11446588.92408  -8919410.22608  22584462.07108  22584466.68108         0.00001
 -14632031.82108 -11401570.40308  20516982.50508  20516986.32908         0.00001
   -629179.15847   -490269.75344         0.00041  23366584.00944  23366585.56047
 94 03 17 00 54 00.0000000  0  8 02 04 05 07 09 12 13 24
 -13810539.12648 -10761439.27246         0.00041  22080649.71246  22080646.37048
 -13010414.39348 -10137971.73646         0.00041  21555233.45046  21555231.15548
  -4009769.49048  -3124490.73445         0.00041  24479082.55145  24479073.09648
 -10328408.59449  -8048092.79647         0.00041  21375493.36847  21375490.97049
 -17903123.53548 -13950475.52946         0.00041  21779604.86046  21779602.76148
 -11529969.12208  -8984381.76808  22568595.20708  22568599.87008         0.00001
 -14650824.87408 -11416214.33208  20513406.35808  20513410.06308         0.00001
   -733623.39647   -571654.70744         0.00041  23346709.67244  23346710.04147
 94 03 17 00 54 30.0000000  0  8 02 04 05 07 09 12 13 24
 -13760757.83548 -10722648.67546         0.00041  22090122.66246  22090119.98748
 -13081963.88548 -10193724.55246         0.00041  21541617.32546  21541615.36248
  -4089273.51748  -3186441.90545         0.00041  24463949.54145  24463942.38848
 -10269138.53149  -8001908.33547         0.00041  21386771.82847  21386769.03949
 -17968260.47448 -14001231.56446         0.00041  21767209.82746  21767207.59648
 -11613173.78108  -9049216.53408  22552761.87808  22552766.52608         0.00001
 -14669065.80908 -11430428.03708  20509935.20308  20509938.89608         0.00001
   -837930.71047   -652933.17244         0.00041  23326858.33044  23326860.66547
 94 03 17 00 55 00.0000000  0  8 02 04 05 07 09 12 13 24
 -13710746.93348 -10683679.16246         0.00041  22099640.21846  22099637.09048
 -13153107.56448 -10249161.14946         0.00041  21528079.30246  21528076.87148
  -4168823.37548  -3248428.84245         0.00041  24448814.73545  24448806.09248
 -10209670.30049  -7955569.46247         0.00041  21398088.17847  21398085.23649
 -18032979.14448 -14051661.67846         0.00041  21754893.85246  21754891.69248
 -11696204.07008  -9113915.42808  22536961.64908  22536966.42508         0.00001
 -14686758.87708 -11444214.83208  20506568.25308  20506571.90508         0.00001
   -942089.98547   -734096.15444         0.00041  23307035.99544  23307039.80447
 94 03 17 00 55 30.0000000  0  8 02 04 05 07 09 12 13 24
 -13660526.67348 -10644546.51146         0.00041  22109196.34146  22109193.72448
 -13223839.31648 -10304276.76846         0.00041  21514619.84646  21514617.22748
  -4248401.25048  -3310437.51645         0.00041  24433669.09345  24433664.03448
 -10150016.78149  -7909086.21047         0.00041  21409440.06347  21409437.85849
 -18097278.06148 -14101764.71546         0.00041  21742658.70046  21742656.44048
 -11779059.78308  -9178478.29208  22521194.88008  22521199.52708         0.00001
 -14703906.83908 -11457576.86808  20503305.06608  20503308.70808         0.00001
  -1046094.10647   -815138.13744         0.00041  23287251.91244  23287247.17447
 94 03 17 00 56 00.0000000  0  8 02 04 05 07 09 12 13 24
 -13610107.56548 -10605258.92446         0.00041  22118791.32346  22118787.96648
 -13294153.34348 -10359066.88646         0.00041  21501239.17746  21501237.24948
  -4328001.06248  -3372463.32545         0.00041  24418522.48445  24418515.65148
 -10090176.72249  -7862457.60247         0.00041  21420827.90647  21420825.41549
 -18161159.19548 -14151542.20547         0.00041  21730502.60747  21730499.79148
 -11861741.73808  -9242905.76008  22505461.02008  22505465.51408         0.00001
 -14720513.64108 -11470517.22308  20500145.01608  20500148.57308         0.00001
  -1149938.73347   -896055.89644         0.00041  23267487.98144  23267486.95547
 94 03 17 00 56 30.0000000  0  8 02 04 05 07 09 12 13 24
 -13559483.68348 -10565811.77346         0.00041  22128425.18946  22128421.65048
 -13364036.89748 -10413521.56946         0.00041  21487941.69246  21487938.98648
  -4407627.96448  -3434510.17245         0.00041  24403367.37045  24403363.05048
 -10030115.06349  -7815656.32547         0.00041  21432257.05947  21432254.58349
 -18224622.08248 -14200993.78847         0.00041  21718425.64447  21718423.20248
 -11944242.10408  -9307191.72808  22489761.64508  22489766.27408         0.00001
 -14736574.56108 -11483032.21508  20497088.66708  20497092.28508         0.00001
  -1253616.87147   -976844.08844         0.00041  23247750.40244  23247758.08847
 94 03 17 00 57 00.0000000  0  8 02 04 05 07 09 12 13 24
 -13508641.48048 -10526194.50746         0.00041  22138099.66146  22138096.82248
 -13433460.74549 -10467618.04246         0.00041  21474730.06446  21474728.14449
  -4487268.98248  -3496567.97945         0.00041  24388210.13045  24388209.08248
  -9969816.83549  -7768670.69447         0.00041  21443731.24647  21443728.50449
 -18287671.40048 -14250123.11647         0.00041  21706428.27347  21706425.35848
 -12026555.50308  -9371332.00608  22474097.85008  22474102.67608         0.00001
 -14752087.42508 -11495120.15408  20494136.70608  20494140.29008         0.00001
  -1357134.65947  -1057507.29744         0.00041  23228058.93244  23228060.48147
 94 03 17 00 57 30.0000000  0  8 02 04 05 07 09 12 13 24
 -13457568.19248 -10486397.16446         0.00041  22147818.93246  22147815.23648
 -13502428.62649 -10521359.22547         0.00041  21461606.43847  21461603.61449
  -4566928.50448  -3558640.20745         0.00041  24373054.59645  24373051.35448
  -9909290.34549  -7721507.20447         0.00041  21455248.71847  21455246.09449
 -18350322.42948 -14298942.08347         0.00041  21694505.94247  21694503.29248
 -12108688.56508  -9435331.77208  22458468.37208  22458473.23108         0.00001
 -14767061.92408 -11506788.58608  20491287.15308  20491290.74508         0.00001
  -1460501.07447  -1138052.29244         0.00041  23208394.03844  23208387.74847
 94 03 17 00 58 00.0000000  0  7 02 04 05 07 09 12 13
 -13406273.68048 -10446427.45346         0.00041  22157580.50046  22157576.60248
 -13570976.71648 -10574773.29347         0.00041  21448561.79647  21448559.20448
  -4646635.54748  -3620749.48145         0.00041  24357888.40745  24357885.00548
  -9848551.91348  -7674178.57447         0.00041  21466807.35047  21466804.23348
 -18412601.44548 -14347471.17247         0.00041  21682655.26247  21682652.54248
 -12190664.18208  -9499208.84908  22442869.01908  22442873.74108         0.00001
 -14781524.03408 -11518057.75908  20488535.00108  20488538.71108         0.00001
 94 03 17 00 58 30.0000000  0  7 02 04 05 07 09 12 13
 -13354774.45848 -10406298.22146         0.00041  22167380.08146  22167376.25748
 -13639145.95748 -10627892.15046         0.00041  21435589.24746  21435586.76048
  -4726417.06548  -3682916.78345         0.00041  24342707.28845  24342703.66648
  -9787637.29448  -7626712.65047         0.00041  21478399.07747  21478396.24148
 -18474530.52848 -14395727.58247         0.00041  21670869.42947  21670867.12048
 -12272504.80808  -9562980.73008  22427295.16208  22427299.94108         0.00001
 -14795499.58208 -11528947.79608  20485875.47908  20485879.22408         0.00001
 94 03 17 00 59 00.0000000  0  7 02 04 05 07 09 12 13
 -13302992.17248 -10365948.41746         0.00041  22177233.73946  22177230.12748
 -13706848.03648 -10680646.98346         0.00041  21422705.64446  21422703.73748
  -4806176.65648  -3745066.94545         0.00041  24327529.53345  24327525.17548
  -9726490.48948  -7579065.80147         0.00041  21490034.83947  21490031.96248
 -18535998.11749 -14443624.39247         0.00041  21659173.57047  21659171.08249
 -12354111.75908  -9626570.52508  22411765.79008  22411770.52408         0.00001
 -14808892.88208 -11539384.13308  20483326.82308  20483330.58408         0.00001
 94 03 17 00 59 30.0000000  0  7 02 04 05 07 09 12 13
 -13250932.42548 -10325382.40746         0.00041  22187140.47946  22187137.01448
 -13774082.51848 -10733037.46146         0.00041  21409911.56846  21409909.63048
  -4885900.29248  -3807189.15845         0.00041  24312356.94345  24312353.94748
  -9665118.63948  -7531243.58947         0.00041  21501713.31547  21501710.30248
 -18596985.04448 -14491146.66247         0.00041  21647566.40647  21647564.39048
 -12435466.07908  -9689963.47008  22396284.64208  22396289.34808         0.00001
 -14821688.42408 -11549354.68408  20480891.95608  20480895.66808         0.00001
 94 03 17 01 00 00.0000000  0  8 02 04 05 07 09 12 13 24
 -13198646.26448 -10284639.96646         0.00041  22197089.59346  22197086.89848
 -13840873.29848 -10785082.19247         0.00041  21397201.86047  21397199.51148
  -4965616.97448  -3869305.93145         0.00041  24297188.14345  24297183.47748
  -9603562.59049  -7483277.84647         0.00041  21513426.99947  21513424.20649
 -18657515.06649 -14538312.89247         0.00041  21636048.93247  21636046.80949
 -12516598.48508  -9753183.48508  22380845.62008  22380850.31408         0.00001
 -14833920.28108 -11558886.00008  20478564.32308  20478568.04508         0.00001
        -0.62158        -0.44354         0.00051  23110421.10054  23110417.14658
 94 03 17 01 00 30.0000000  0  8 02 04 05 07 09 12 13 24
 -13146184.40148 -10243760.62046         0.00041  22207072.81846  22207070.00248
 -13907247.56048 -10836802.37046         0.00041  21384571.01146  21384568.71648
  -5045383.20248  -3931461.32545         0.00041  24282007.15545  24282002.08748
  -9541898.30348  -7435227.76547         0.00041  21525161.31347  21525158.22048
 -18717628.30949 -14585154.36847         0.00041  21624609.65947  21624607.32249
 -12597552.44008  -9816264.44108  22365440.53508  22365445.15508         0.00001
 -14845635.19408 -11568014.50108  20476335.09008  20476338.82008         0.00001
   -102539.97748    -79901.10444         0.00041  23090909.99644  23090904.14348
 94 03 17 01 01 00.0000000  0  8 02 04 05 07 09 12 13 24
 -13093535.97748 -10202735.88746         0.00041  22217092.03346  22217088.82748
 -13973183.87448 -10888181.29646         0.00041  21372023.87746  21372021.51048
  -5125196.88048  -3993653.76745         0.00041  24266820.86145  24266812.56048
  -9480113.53248  -7387083.81146         0.00041  21536918.67046  21536915.41748
 -18777320.18748 -14631667.50647         0.00041  21613250.48547  21613248.00548
 -12678319.71108  -9879199.92608  22350070.87408  22350075.64108         0.00001
 -14856828.40408 -11576736.47708  20474205.12108  20474208.82808         0.00001
   -204954.81248   -159704.76044         0.00041  23071419.82044  23071415.64648
 94 03 17 01 01 30.0000000  0  8 02 04 05 07 09 12 13 24
 -13040637.61048 -10161516.40146         0.00041  22227157.44046  22227155.27248
 -14038637.46948 -10939184.06746         0.00041  21359568.22946  21359566.12248
  -5205008.04948  -4055844.25745         0.00041  24251630.87345  24251622.63448
  -9418135.41248  -7338789.19446         0.00041  21548712.18846  21548709.31548
 -18836556.97948 -14677826.02247         0.00041  21601978.00447  21601975.19648
 -12758854.40908  -9941954.18608  22334745.69208  22334750.40608         0.00001
 -14867457.07908 -11585018.56008  20472182.52608  20472186.25508         0.00001
   -307184.98548   -239364.50244         0.00041  23051965.94344  23051962.27948
 94 03 17 01 02 00.0000000  0  8 02 04 05 07 09 12 13 24
 -12987483.76748 -10120097.84346         0.00041  22237272.54846  22237269.60648
 -14103619.77848 -10989819.60446         0.00041  21347202.02146  21347200.49148
  -5284832.01848  -4118044.68245         0.00041  24236441.28045  24236434.02648
  -9355957.15848  -7290338.62046         0.00041  21560544.66146  21560541.54048
 -18895358.28749 -14723645.19847         0.00041  21590788.93547  21590786.62449
 -12839162.66708 -10004532.00108  22319463.45008  22319468.15308         0.00001
 -14877530.95708 -11592868.33308  20470265.52108  20470269.28408         0.00001
   -409228.99348   -318879.32145         0.00041  23032548.86145  23032542.86148
 94 03 17 01 02 30.0000000  0  8 02 04 05 07 09 12 13 24
 -12934096.22048 -10078497.17946         0.00041  22247432.06346  22247428.90048
 -14168166.24548 -11040115.50247         0.00041  21334919.37447  21334917.44648
  -5364713.48348  -4180289.95246         0.00041  24221239.23146  24221233.34148
  -9293598.04548  -7241747.11046         0.00041  21572411.49546  21572408.34048
 -18953760.70848 -14769153.55447         0.00041  21579675.34847  21579672.84048
 -12919271.58408 -10066954.48708  22304219.26208  22304223.84308         0.00001
 -14887080.76008 -11600309.73508  20468448.26008  20468451.95008         0.00001
   -511103.06148   -398261.67444         0.00041  23013165.19244  23013156.09848
 94 03 17 01 03 00.0000000  0  8 02 04 05 07 09 12 13 24
 -12880453.52048 -10036697.68446         0.00041  22257640.49946  22257637.03848
 -14232262.07749 -11090060.26347         0.00041  21322722.92747  21322720.64349
  -5444621.89848  -4242556.23445         0.00041  24206032.55445  24206028.34348
  -9231008.19448  -7192975.80346         0.00041  21584321.98446  21584319.28748
 -19011747.76049 -14814338.24547         0.00041  21568640.28347  21568638.14549
 -12999158.73908 -10129204.17408  22289017.18308  22289021.75608         0.00001
 -14896087.23608 -11607327.75708  20466734.36108  20466738.01508         0.00001
   -612773.02448   -477484.92244         0.00041  22993816.69544  22993808.76248
 94 03 17 01 03 30.0000000  0  8 02 04 05 07 09 12 13 24
 -12826563.15548  -9994705.20446         0.00041  22267896.05446  22267892.27448
 -14295901.34449 -11139649.27447         0.00041  21310613.18847  21310610.38949
  -5524555.03548  -4304841.73945         0.00041  24190822.02045  24190818.32948
  -9168197.14048  -7144032.13146         0.00041  21596274.44346  21596271.93348
 -19069307.38349 -14859189.87447         0.00041  21557687.04647  21557684.88949
 -13078818.24108 -10191276.46508  22273858.47008  22273862.89408         0.00001
 -14904547.90808 -11613920.48208  20465124.38408  20465127.95608         0.00001
   -714232.51848   -556544.28045         0.00041  22974506.03245  22974499.48648
 94 03 17 01 04 00.0000000  0  8 02 04 05 07 09 12 13 24
 -12772445.48548  -9952535.61546         0.00041  22278194.53046  22278190.47348
 -14359086.19449 -11188884.19247         0.00041  21298589.23347  21298586.43249
  -5604540.80948  -4367168.27545         0.00041  24175602.50645  24175596.97048
  -9105196.86648  -7094941.01546         0.00041  21608263.26446  21608260.42748
 -19126438.80849 -14903707.83747         0.00041  21546815.60847  21546813.21249
 -13158265.96708 -10253183.73908  22258740.03608  22258744.41608         0.00001
 -14912482.44908 -11620103.22808  20463614.46908  20463618.11308         0.00001
   -815510.94948   -635462.44144         0.00041  22955233.12044  22955227.37948
 94 03 17 01 04 30.0000000  0  8 02 04 05 07 09 12 13 24
 -12718084.20148  -9910176.19446         0.00041  22288539.07846  22288534.60148
 -14421794.55549 -11237747.81947         0.00041  21286656.46747  21286653.57849
  -5684562.18048  -4429522.54145         0.00041  24160375.01945  24160369.70848
  -9042004.67748  -7045700.35946         0.00041  21620288.23146  21620285.40948
 -19183102.36149 -14947861.23347         0.00041  21536032.67647  21536030.51049
 -13237487.02108 -10314914.39308  22243664.66508  22243669.12808         0.00001
 -14919879.37208 -11625867.05508  20462206.82908  20462210.41108         0.00001
   -916606.37048   -714238.05744         0.00041  22935996.34644  22935988.52748
 94 03 17 01 05 00.0000000  0  8 02 04 05 07 09 12 13 24
 -12663493.73348  -9867638.18046         0.00041  22298926.36346  22298922.65748
 -14484033.42749 -11286245.60047         0.00041  21274812.09647  21274809.88849
  -5764599.51348  -4491889.26145         0.00041  24145141.29045  24145138.14248
  -8978631.91248  -6996318.99446         0.00041  21632347.96146  21632345.26848
 -19239282.14349 -14991637.65747         0.00041  21525341.80447  21525339.56949
 -13316481.40408 -10376468.42408  22228632.64808  22228637.03308         0.00001
 -14926742.24808 -11631214.73608  20460900.78308  20460904.52108         0.00001
  -1017525.63748   -792876.37745         0.00041  22916793.21445  22916786.54448
 94 03 17 01 05 30.0000000  0  8 02 04 05 07 09 12 13 24
 -12608675.66648  -9824922.83446         0.00041  22309358.22746  22309354.27648
 -14545806.73149 -11334380.60847         0.00041  21263056.85447  21263054.61449
  -5844657.36048  -4554271.97045         0.00041  24129905.58245  24129903.49548
  -8915087.41148  -6946803.80146         0.00041  21644439.52346  21644437.04048
 -19294977.69249 -15035036.75747         0.00041  21514744.09547  21514741.67249
 -13395250.95108 -10437847.25608  22213643.38308  22213647.64408         0.00001
 -14933076.43908 -11636150.46108  20459695.42208  20459699.12608         0.00001
  -1118268.74548   -871377.44245         0.00041  22897622.75445  22897616.63748
 94 03 17 01 06 00.0000000  0  8 02 04 05 07 09 12 13 24
 -12553611.75248  -9782015.91646         0.00041  22319836.55246  22319832.78248
 -14607109.05049 -11382148.61247         0.00041  21251391.41247  21251389.13549
  -5924718.21748  -4616656.98545         0.00041  24114672.86945  24114669.48348
  -8851353.36348  -6897140.91246         0.00041  21656567.51646  21656564.56548
 -19350184.09749 -15078054.70447         0.00041  21504238.13047  21504235.36549
 -13473785.89008 -10499043.27608  22198698.53708  22198702.89008         0.00001
 -14938875.78908 -11640669.42108  20458591.74808  20458595.57008         0.00001
  -1218824.98748   -949732.90145         0.00041  22878486.80845  22878481.22848
 94 03 17 01 06 30.0000000  0  8 02 04 05 07 09 12 13 24
 -12498333.39348  -9738941.89846         0.00041  22330355.97346  22330352.09848
 -14667984.82749 -11429584.24447         0.00041  21239807.04447  21239804.53349
  -6004795.65648  -4679054.99444         0.00041  24099437.22344  24099431.29648
  -8787466.72748  -6847359.11746         0.00041  21668724.24946  21668721.83448
 -19404941.16849 -15120722.52147         0.00041  21493818.81247  21493816.26949
 -13552109.77008 -10560074.83608  22183793.97308  22183798.35708         0.00001
 -14944167.52908 -11644792.84808  20457584.81608  20457588.63608         0.00001
  -1319203.11748  -1027949.54345         0.00041  22859384.63545  22859381.08648
 94 03 17 01 07 00.0000000  0  8 02 04 05 07 09 12 13 24
 -12442836.34348  -9695697.46646         0.00041  22340916.01046  22340912.77248
 -14728414.13349 -11476671.98847         0.00041  21228307.86947  21228305.64449
  -6084883.78348  -4741461.24445         0.00041  24084194.61045  24084191.63548
  -8723415.06748  -6797448.73546         0.00041  21680913.91946  21680911.39348
 -19459259.56249 -15163048.51047         0.00041  21483481.23747  21483478.91149
 -13630212.04408 -10620933.72008  22168931.56108  22168935.92708         0.00001
 -14948944.96608 -11648515.52108  20456675.72708  20456679.59908         0.00001
  -1419387.01248  -1106014.83945         0.00041  22840320.71445  22840316.22648
 94 03 17 01 07 30.0000000  0  8 02 04 05 07 09 12 13 24
 -12387087.13348  -9652256.55846         0.00041  22351524.89346  22351521.82548
 -14788352.13649 -11523376.88947         0.00041  21216902.66947  21216899.56949
  -6164976.25848  -4803870.88344         0.00041  24068957.10144  24068951.16448
  -8659195.79348  -6747407.74546         0.00041  21693134.79346  21693132.24748
 -19513136.27849 -15205030.33647         0.00041  21473229.61247  21473227.37849
 -13708070.74108 -10681602.80208  22154115.64208  22154119.84008         0.00001
 -14953189.58708 -11651823.01208  20455868.09508  20455871.87008         0.00001
  -1519349.87948  -1183907.88046         0.00041  22821297.88546  22821293.78248
 94 03 17 01 08 00.0000000  0  8 02 04 05 07 09 12 13 24
 -12331099.08548  -9608629.52646         0.00041  22362179.28846  22362175.79848
 -14847799.98949 -11569699.85247         0.00041  21205589.93847  21205587.39549
  -6245084.65248  -4866292.97745         0.00041  24053710.24345  24053706.71248
  -8594840.72048  -6697260.93046         0.00041  21705381.08246  21705379.01348
 -19566579.26848 -15246674.20047         0.00041  21463059.07847  21463056.27848
 -13785690.74808 -10742085.88808  22139345.08308  22139349.25208         0.00001
 -14956909.74908 -11654721.83508  20455160.23808  20455163.92208         0.00001
  -1619106.21248  -1261640.00046         0.00041  22802314.78746  22802310.91348
 94 03 17 01 08 30.0000000  0  8 02 04 05 07 09 12 13 24
 -12274884.27948  -9564825.81346         0.00041  22372875.92846  22372874.17448
 -14906747.46849 -11615632.92847         0.00041  21194372.50747  21194370.19049
  -6325222.79648  -4928738.22745         0.00041  24038461.41145  24038457.50448
  -8530353.63548  -6647011.25946         0.00041  21717652.62746  21717650.16948
 -19619594.41949 -15287984.67747         0.00041  21452970.59447  21452968.16249
 -13863070.37008 -10802381.66108  22124620.14908  22124624.28108         0.00001
 -14960107.86108 -11657213.86208  20454551.63908  20454555.32708         0.00001
  -1718657.79648  -1339212.56646         0.00041  22783370.98046  22783367.66248
 94 03 17 01 09 00.0000000  0  8 02 04 05 07 09 12 13 24
 -12218424.04148  -9520830.85846         0.00041  22383619.80746  22383616.74048
 -14965167.26349 -11661154.82347         0.00041  21183255.21947  21183252.94949
  -6405383.60048  -4991201.07645         0.00041  24023208.20145  24023203.44448
  -8465707.40648  -6596637.58646         0.00041  21729954.20446  21729951.63148
 -19672158.83749 -15328943.93347         0.00041  21442968.26847  21442966.55149
 -13940193.63908 -10862477.67308  22109944.04608  22109948.22708         0.00001
 -14962771.73808 -11659289.60208  20454044.65808  20454048.34308         0.00001
  -1817995.17648  -1416618.25146         0.00041  22764467.12246  22764463.67748
 94 03 17 01 09 30.0000000  0  8 02 04 05 07 09 12 13 24
 -12161721.00948  -9476646.68846         0.00041  22394410.21746  22394408.15048
 -15023078.78349 -11706280.66047         0.00041  21172235.07847  21172232.68149
  -6485570.44748  -5053684.29145         0.00041  24007950.89245  24007944.58048
  -8400912.88248  -6546148.35146         0.00041  21742283.82546  21742281.26948
 -19724266.50749 -15369547.29147         0.00041  21433052.40547  21433050.57649
 -14017064.92908 -10922377.33808  22095315.87508  22095320.10108         0.00001
 -14964909.29808 -11660955.22508  20453637.88608  20453641.49508         0.00001
  -1917125.05648  -1493862.23746         0.00041  22745604.33646  22745600.12548
 94 03 17 01 10 00.0000000  0  8 02 04 05 07 09 12 13 24
 -12104776.25648  -9432274.20146         0.00041  22405245.68446  22405242.28148
 -15080497.86549 -11751022.77047         0.00041  21161309.20047  21161306.25949
  -6565778.26948  -5116183.77745         0.00041  23992685.96645  23992681.28748
  -8335941.65948  -6495521.43446         0.00041  21754647.32146  21754644.62948
 -19775905.65949 -15409785.56847         0.00041  21423225.34747  21423223.17949
 -14093680.24008 -10982077.53408  22080736.43208  22080740.54108         0.00001
 -14966520.67408 -11662210.83308  20453331.27108  20453334.95408         0.00001
  -2016049.10348  -1570945.84346         0.00041  22726779.14246  22726774.84948
 94 03 17 01 10 30.0000000  0  8 02 04 05 07 09 12 13 24
 -12047566.33548  -9387695.05646         0.00041  22416134.70046  22416130.36248
 -15137407.97349 -11795368.27847         0.00041  21150479.14447  21150476.71949
  -6645981.05448  -5178679.36846         0.00041  23977423.08046  23977419.60648
  -8270767.45248  -6444736.35046         0.00041  21767049.95846  21767046.75448
 -19827053.70449 -15449641.16447         0.00041  21413492.34647  21413490.15049
 -14170019.87008 -11041562.91108  22066209.38008  22066213.54508         0.00001
 -14967589.58008 -11663043.73808  20453127.76908  20453131.40408         0.00001
  -2114744.64248  -1647851.38446         0.00041  22707996.75846  22707993.54048
 94 03 17 01 11 00.0000000  0  8 02 04 05 07 09 12 13 24
 -11990110.91048  -9342924.62346         0.00041  22427067.67046  22427062.98548
 -15193843.59349 -11839344.06747         0.00041  21139739.44447  21139737.37249
  -6726196.99248  -5241185.16546         0.00041  23962157.51446  23962153.94848
  -8205426.74648  -6393821.52646         0.00041  21779484.71546  21779481.63748
 -19877729.90449 -15489129.09247         0.00041  21403849.89847  21403847.28949
 -14246108.13508 -11100852.41808  22051730.15408  22051734.33608         0.00001
 -14968144.36708 -11663476.03008  20453022.24208  20453025.91608         0.00001
  -2213232.67148  -1724595.24646         0.00041  22689256.62446  22689251.56548
 94 03 17 01 11 30.0000000  0  8 02 04 05 07 09 12 13 24
 -11932400.84748  -9297955.77346         0.00041  22438048.34646  22438046.08148
 -15249786.80349 -11882936.16447         0.00041  21129093.87747  21129091.59549
  -6806418.32348  -5303695.16446         0.00041  23946893.95346  23946889.26348
  -8139908.82648  -6342768.60846         0.00041  21791951.25546  21791949.45948
 -19927929.60749 -15528245.72847         0.00041  21394296.16347  21394294.17749
 -14321925.76708 -11159931.04108  22037302.45708  22037306.70108         0.00001
 -14968169.69408 -11663495.75708  20453017.36508  20453021.06908         0.00001
  -2311485.74548  -1801156.02646         0.00041  22670557.88546  22670554.49148
 94 03 17 01 12 00.0000000  0  8 02 04 05 07 09 12 13 24
 -11874461.43448  -9252808.20146         0.00041  22449075.62546  22449071.40748
 -15305251.79849 -11926155.62247         0.00041  21118539.26347  21118536.97249
  -6886657.95148  -5366219.39946         0.00041  23931623.28746  23931620.37848
  -8074234.10048  -6291593.49746         0.00041  21804449.58546  21804446.62048
 -19977667.21049 -15567002.28347         0.00041  21384831.87947  21384829.48649
 -14397483.18708 -11218806.90308  22022924.34308  22022928.69008         0.00001
 -14967679.85408 -11663114.05208  20453110.50108  20453114.34908         0.00001
  -2409503.42248  -1877533.36646         0.00041  22651907.18746  22651902.28748
 94 03 17 01 12 30.0000000  0  8 02 04 05 07 09 12 13 24
 -11816317.47148  -9207501.24946         0.00041  22460139.79946  22460136.13948
 -15360261.84649 -11969020.57247         0.00041  21108071.06547  21108068.80749
  -6966946.61548  -5428781.87146         0.00041  23916345.80146  23916343.19048
  -8008448.81548  -6240332.22646         0.00041  21816967.36746  21816964.56348
 -20026967.13649 -15605417.79747         0.00041  21375450.08747  21375447.93049
 -14472802.39608 -11277497.14708  22008591.60608  22008595.90008         0.00001
 -14966700.65108 -11662351.02708  20453296.94808  20453300.63708         0.00001
  -2507300.33548  -1953738.69546         0.00041  22633296.07546  22633292.76048
 94 03 17 01 13 00.0000000  0  8 02 04 05 07 09 12 13 24
 -11757943.44548  -9162015.01646         0.00041  22471247.12546  22471243.68448
 -15414782.36249 -12011504.06247         0.00041  21097696.45947  21097694.31649
  -7047262.83648  -5491365.80045         0.00041  23901062.94645  23901059.12848
  -7942515.25148  -6188955.41646         0.00041  21829514.13946  21829511.23348
 -20075797.45249 -15643467.38347         0.00041  21366158.12047  21366155.61749
 -14547848.01308 -11335974.20108  21994310.79508  21994315.18308         0.00001
 -14965200.86908 -11661182.35308  20453582.34308  20453586.02408         0.00001
  -2604836.20648  -2029740.62746         0.00041  22614736.33046  22614732.35948
 94 03 17 01 13 30.0000000  0  8 02 04 05 07 09 12 13 24
 -11699334.45748  -9116345.71146         0.00041  22482401.50846  22482397.15448
 -15468798.26449 -12053594.34547         0.00041  21087417.17347  21087415.48949
  -7127602.80848  -5553968.23745         0.00041  23885772.69145  23885769.16948
  -7876428.22348  -6137459.03846         0.00041  21842089.88846  21842087.31748
 -20124138.97549 -15681136.08847         0.00041  21356958.96147  21356956.43249
 -14622609.67608 -11394229.99508  21980084.08708  21980088.64308         0.00001
 -14963173.85908 -11659602.84908  20453968.08908  20453971.71008         0.00001
  -2702099.42848  -2105530.10646         0.00041  22596227.07646  22596223.56748
 94 03 17 01 14 00.0000000  0  8 02 04 05 07 09 12 13 24
 -11640486.22848  -9070489.97646         0.00041  22493597.28646  22493594.79748
 -15522304.34149 -12095287.36247         0.00041  21077235.60047  21077233.26149
  -7207948.72948  -5616575.32645         0.00041  23870481.09445  23870478.31748
  -7810198.64848  -6085851.58346         0.00041  21854693.22446  21854690.52548
 -20171971.34049 -15718408.04847         0.00041  21347857.17547  21347854.81849
 -14697087.13708 -11452264.33408  21965911.49508  21965915.82708         0.00001
 -14960623.38008 -11657615.44908  20454453.39908  20454457.06108         0.00001
  -2799099.80948  -2181114.75546         0.00041  22577769.51446  22577764.42748
 94 03 17 01 14 30.0000000  0  8 02 04 05 07 09 12 13 24
 -11581392.86948  -9024443.22446         0.00041  22504845.44046  22504840.04848
 -15575283.70949 -12136569.95547         0.00041  21067153.99747  21067151.58249
  -7288306.44948  -5679191.64045         0.00041  23855189.40545  23855184.74748
  -7743823.69148  -6034130.84146         0.00041  21867323.57946  21867321.03548
 -20219288.99249 -15755278.93747         0.00041  21338852.72047  21338850.74949
 -14771280.36108 -11510077.18808  21951793.04608  21951797.39108         0.00001
 -14957553.49208 -11655223.31608  20455037.58508  20455041.18908         0.00001
  -2895847.61548  -2256502.61646         0.00041  22559357.37046  22559353.88048
 94 03 17 01 15 00.0000000  0  8 02 04 05 07 09 12 13 24
 -11522060.37648  -8978210.13246         0.00041  22516132.41946  22516130.80448
 -15627734.36949 -12177440.56547         0.00041  21057172.77547  21057170.54049
  -7368671.82448  -5741813.88845         0.00041  23839895.09645  23839891.57148
  -7677299.16348  -5982293.55746         0.00041  21879983.25646  21879980.11648
 -20266090.94149 -15791747.97447         0.00041  21329946.12747  21329943.91949
 -14845193.41308 -11567671.72608  21937727.82608  21937732.18608         0.00001
 -14953972.18208 -11652432.67008  20455719.11808  20455722.72208         0.00001
  -2992350.97748  -2331699.98846         0.00041  22540994.03946  22540989.95648
 94 03 17 01 15 30.0000000  0  8 02 04 05 07 09 12 13 24
 -11462483.82248  -8931786.88146         0.00041  22527471.34146  22527468.07948
 -15679660.50449 -12217902.45847         0.00041  21047291.41547  21047289.09449
  -7449045.35548  -5804442.51345         0.00041  23824603.55445  23824596.72248
  -7610632.77348  -5930345.74146         0.00041  21892669.17146  21892666.24548
 -20312378.00749 -15827815.80647         0.00041  21321138.04147  21321135.99849
 -14918829.52908 -11625050.47308  21923715.48608  21923719.60908         0.00001
 -14949886.72508 -11649249.18708  20456496.54508  20456500.17108         0.00001
  -3088615.63048  -2406711.35146         0.00041  22522674.41546  22522670.93148
 94 03 17 01 16 00.0000000  0  8 02 04 05 07 09 12 13 24
 -11402648.03148  -8885161.62146         0.00041  22538857.16146  22538854.63848
 -15731065.10749 -12257957.95447         0.00041  21037508.87447  21037507.10949
  -7529415.35548  -5867068.41045         0.00041  23809307.95945  23809303.98948
  -7543815.49448  -5878280.33546         0.00041  21905384.06046  21905381.17648
 -20358147.91549 -15863480.65347         0.00041  21312428.48147  21312425.98649
 -14992181.67608 -11682207.94408  21909756.76008  21909761.20208         0.00001
 -14945294.19308 -11645670.58208  20457370.49808  20457374.10408         0.00001
  -3184639.23248  -2481534.89046         0.00041  22504402.28046  22504398.24748
 94 03 17 01 16 30.0000000  0  8 02 04 05 07 09 12 13 24
 -11342554.60048  -8838335.62546         0.00041  22550291.76146  22550290.78448
 -15781970.10649 -12297624.14647         0.00041  21027822.10047  21027820.20549
  -7609804.72548  -5929709.39445         0.00041  23794010.14345  23794006.40748
  -7476856.56148  -5826104.56246         0.00041  21918125.67646  21918123.46548
 -20403427.17049 -15898763.16947         0.00041  21303812.27047  21303810.26849
 -15065258.68608 -11739151.02708  21895850.63708  21895854.97908         0.00001
 -14940207.28108 -11641706.74508  20458338.40908  20458342.05708         0.00001
  -3280426.17948  -2556174.03246         0.00041  22486175.47346  22486170.73248
 94 03 17 01 17 00.0000000  0  8 02 04 05 07 09 12 13 24
 -11282208.27948  -8791312.52546         0.00041  22561777.82046  22561773.44148
 -15832402.38149 -12336921.98547         0.00041  21018225.11047  21018223.26449
  -7690221.23748  -5992371.55945         0.00041  23778706.83045  23778703.85848
  -7409784.62448  -5773840.71646         0.00041  21930889.43046  21930887.09248
 -20448241.14149 -15933683.12647         0.00041  21295284.02247  21295281.96949
 -15138073.33708 -11795889.67608  21881994.30608  21881998.81808         0.00001
 -14934643.20008 -11637371.09108  20459397.15908  20459400.83008         0.00001
  -3375981.40848  -2630632.60446         0.00041  22467991.22046  22467987.40148
 94 03 17 01 17 30.0000000  0  8 02 04 05 07 09 12 13 24
 -11221597.00948  -8744083.00146         0.00041  22573310.52546  22573307.40048
 -15882350.42349 -12375842.50147         0.00041  21008720.32547  21008718.48149
  -7770645.50348  -6055039.75446         0.00041  23763403.45146  23763400.26848
  -7342601.45748  -5721490.19646         0.00041  21943674.29946  21943671.40048
 -20492578.82149 -15968231.94347         0.00041  21286847.38947  21286844.90449
 -15210609.68708 -11852411.46608  21868191.22008  21868195.64508         0.00001
 -14928590.03008 -11632654.33308  20460548.96408  20460552.74608         0.00001
  -3471292.94948  -2704901.29046         0.00041  22449853.59146  22449850.27548
 94 03 17 01 18 00.0000000  0  8 02 04 05 07 09 12 13 24
 -11160722.63648  -8696648.42946         0.00041  22584895.89146  22584891.59748
 -15931792.21749 -12414368.53247         0.00041  20999312.20347  20999309.97249
  -7851055.67048  -6117696.97446         0.00041  23748102.55146  23748099.32448
  -7275302.49648  -5669049.44146         0.00041  21956480.15046  21956477.70148
 -20536435.41049 -16002405.89047         0.00041  21278501.09447  21278499.02349
 -15282855.15008 -11908706.58908  21854443.32808  21854447.56608         0.00001
 -14922039.25008 -11627549.82308  20461795.52708  20461799.19808         0.00001
  -3566346.35448  -2778968.82746         0.00041  22431765.91046  22431762.44048
 94 03 17 01 18 30.0000000  0  8 02 04 05 07 09 12 13 24
 -11099591.90748  -8649014.12246         0.00041  22596527.75846  22596523.83848
 -15980694.53049 -12452474.17447         0.00041  20990005.92347  20990004.07449
  -7931441.68648  -6180335.37846         0.00041  23732807.04246  23732802.67848
  -7207887.90048  -5616518.59746         0.00041  21969309.65746  21969306.70048
 -20579807.52549 -16036202.32047         0.00041  21270248.15047  21270246.31149
 -15354800.74508 -11964768.05008  21840752.52208  21840756.80708         0.00001
 -14914986.07908 -11622053.84108  20463137.86408  20463141.37108         0.00001
  -3661130.73648  -2852826.74846         0.00041  22413728.69746  22413725.44148
 94 03 17 01 19 00.0000000  0  8 02 04 05 07 09 12 13 24
 -11038224.65448  -8601195.51746         0.00041  22608205.39746  22608201.74648
 -16029044.49849 -12490149.43747         0.00041  20980805.17447  20980803.47749
  -8011791.85648  -6242945.87846         0.00041  23717517.38146  23717513.01548
  -7140346.24948  -5563888.73946         0.00041  21982161.68446  21982159.49948
 -20622668.78349 -16069600.69047         0.00041  21262091.86947  21262089.75249
 -15426436.29408 -12020587.91708  21827120.61408  21827124.96008         0.00001
 -14907424.27808 -11616161.52008  20464576.82608  20464580.28608         0.00001
  -3755637.09048  -2926468.01846         0.00041  22395745.27546  22395741.70548
 94 03 17 01 19 30.0000000  0  8 02 04 05 07 09 12 13 24
 -10976657.65248  -8553221.22846         0.00041  22619922.87346  22619918.04948
 -16076847.63949 -12527398.61147         0.00041  20971708.37647  20971706.79849
  -8092128.86248  -6305546.09246         0.00041  23702229.99746  23702226.08348
  -7072678.89148  -5511160.92346         0.00041  21995039.36746  21995036.20348
 -20665028.68949 -16102608.39647         0.00041  21254030.25547  21254028.31949
 -15497775.10308 -12076176.55908  21813545.29308  21813549.50108         0.00001
 -14899371.45508 -11609886.58408  20466109.24408  20466112.74508         0.00001
  -3849882.61148  -2999906.03846         0.00041  22377811.44346  22377807.80048
 94 03 17 01 20 00.0000000  0  8 02 04 05 07 09 12 13 24
 -10914892.25648  -8505092.38446         0.00041  22631673.81146  22631671.28548
 -16124104.36049 -12564221.98747         0.00041  20962716.57147  20962713.59449
  -8172463.44048  -6368144.41245         0.00041  23686941.52045  23686939.07448
  -7004874.12148  -5458326.04046         0.00041  22007941.37446  22007938.97048
 -20706878.12349 -16135218.33547         0.00041  21246067.04947  21246065.64849
 -15568817.92608 -12131534.56308  21800026.29308  21800030.48608         0.00001
 -14890832.59008 -11603232.91208  20467734.12808  20467737.64408         0.00001
  -3943862.09648  -3073136.76046         0.00041  22359928.37446  22359923.61648
 94 03 17 01 20 30.0000000  0  8 02 04 05 07 09 12 13 24
 -10852921.44248  -8456803.47446         0.00041  22643468.72646  22643463.92148
 -16170841.41949 -12600640.43247         0.00041  20953822.84347  20953820.18949
  -8252811.05948  -6430752.91546         0.00041  23671651.69546  23671649.22148
  -6936929.17948  -5405381.93546         0.00041  22020870.93646  22020868.13448
 -20748206.74049 -16167422.43847         0.00041  21238202.63547  21238200.57949
 -15639565.17108 -12186662.24808  21786563.56208  21786567.60908         0.00001
 -14881812.37008 -11596204.15608  20469450.49408  20469454.17708         0.00001
  -4037584.51348  -3146167.18746         0.00041  22342092.90046  22342088.69748
 94 03 17 01 21 00.0000000  0  8 02 04 05 07 09 12 13 24
 -10790725.17448  -8408338.85546         0.00041  22655301.81246  22655299.92948
 -16217068.37949 -12636661.40347         0.00041  20945025.61547  20945023.72449
  -8333172.86548  -6493372.46745         0.00041  23656362.02445  23656356.16948
  -6868821.05648  -5352310.67846         0.00041  22033831.21646  22033828.45148
 -20789004.68549 -16199213.03147         0.00041  21230438.56347  21230436.69049
 -15710000.19608 -12241546.64908  21773160.17708  21773164.29308         0.00001
 -14872298.47508 -11588790.72008  20471261.03308  20471264.61508         0.00001
  -4131025.83148  -3218978.56546         0.00041  22324311.21046  22324307.06348
 94 03 17 01 21 30.0000000  0  8 02 04 05 07 09 12 13 24
 -10728277.82948  -8359678.63346         0.00041  22667187.37946  22667181.94448
 -16262780.05749 -12672280.85647         0.00041  20936326.85347  20936324.69049
  -8413550.42448  -6556004.27346         0.00041  23641063.12646  23641058.72648
  -6800549.24748  -5299111.87146         0.00041  22046822.42246  22046819.77948
 -20829280.44049 -16230596.72847         0.00041  21222775.20547  21222772.77749
 -15780120.13608 -12296185.53008  21759816.79108  21759820.92108         0.00001
 -14862292.17108 -11580993.58908  20473165.14608  20473168.70308         0.00001
  -4224185.86648  -3291570.75646         0.00041  22306583.20846  22306579.09748
 94 03 17 01 22 00.0000000  0  8 02 04 05 07 09 12 13 24
 -10665576.47748  -8310820.46646         0.00041  22679118.09546  22679114.90348
 -16307990.35349 -12707509.62447         0.00041  20927723.31247  20927721.13549
  -8493948.92648  -6618652.40145         0.00041  23625763.57345  23625759.91848
  -6732127.47448  -5245796.20046         0.00041  22059843.12046  22059840.20948
 -20869036.02349 -16261575.09347         0.00041  21215209.93047  21215207.38749
 -15849929.28408 -12350582.23508  21746532.55208  21746536.69408         0.00001
 -14851801.86908 -11572819.31308  20475161.30108  20475164.95508         0.00001
  -4317072.64448  -3363950.03446         0.00041  22288906.20646  22288903.00748
 94 03 17 01 22 30.0000000  0  8 02 04 05 07 09 12 13 24
 -10602635.23748  -8261775.35546         0.00041  22691095.69546  22691091.93048
 -16352704.11749 -12742351.48247         0.00041  20919214.51547  20919212.65449
  -8574371.79548  -6681319.52445         0.00041  23610462.48045  23610457.00148
  -6663584.59848  -5192386.17446         0.00041  22072885.98346  22072883.95748
 -20908293.02549 -16292164.95347         0.00041  21207739.10347  21207736.66149
 -15919434.19208 -12404741.87108  21733306.08708  21733310.30008         0.00001
 -14840838.29308 -11564276.25008  20477247.65408  20477251.31308         0.00001
  -4409693.50448  -3436122.10646         0.00041  22271282.29846  22271277.74948
 94 03 17 01 23 00.0000000  0  8 02 04 05 07 09 12 13 24
 -10539443.31048  -8212534.91646         0.00041  22703121.50746  22703117.33048
 -16396882.14449 -12776775.88447         0.00041  20910807.85847  20910806.26249
  -8654799.24348  -6743990.19846         0.00041  23595154.26546  23595152.85348
  -6594919.65248  -5138881.01446         0.00041  22085952.96146  22085950.68648
 -20947026.27849 -16322346.69747         0.00041  21200368.73147  21200366.12649
 -15988615.93008 -12458649.68608  21720141.26708  21720145.39808         0.00001
 -14829387.14408 -11555353.26208  20479426.63308  20479430.31708         0.00001
  -4502021.40148  -3508065.88746         0.00041  22253712.21846  22253708.60348
 94 03 17 01 23 30.0000000  0  8 02 04 05 07 09 12 13 24
 -10475993.31348  -8163093.37446         0.00041  22715195.86546  22715191.72648
 -16440513.04149 -12810773.94747         0.00041  20902505.10847  20902503.04749
  -8735213.54448  -6806650.61946         0.00041  23579851.94046  23579849.38348
  -6526141.66848  -5085287.78546         0.00041  22099040.80146  22099038.15748
 -20985219.13149 -16352107.34447         0.00041  21193100.81847  21193098.43549
 -16057467.49408 -12512300.23208  21707039.24408  21707043.34508         0.00001
 -14817445.48708 -11546048.05808  20481699.05008  20481702.68908         0.00001
  -4594057.48748  -3579782.27646         0.00041  22236199.53346  22236194.73348
 94 03 17 01 24 00.0000000  0  8 02 04 05 07 09 12 13 24
 -10412289.85548  -8113454.33146         0.00041  22727317.48346  22727314.23048
 -16483597.75249 -12844346.40347         0.00041  20894306.98747  20894304.39149
  -8815605.88748  -6869293.91146         0.00041  23564553.57946  23564551.20848
  -6457264.60848  -5031617.34446         0.00041  22112147.68346  22112144.97948
 -21022867.29649 -16381443.56247         0.00041  21185936.42647  21185934.02549
 -16125983.75608 -12565689.50608  21694001.08908  21694005.16408         0.00001
 -14805012.72508 -11536360.17408  20484064.95608  20484068.55208         0.00001
  -4685791.31848  -3651263.13846         0.00041  22218742.80046  22218738.28548
 94 03 17 01 24 30.0000000  0  8 02 04 05 07 09 12 13 24
 -10348346.01548  -8063627.99946         0.00041  22739485.93046  22739482.49848
 -16526151.35649 -12877505.02047         0.00041  20886208.71247  20886207.02949
  -8895992.54848  -6931932.81146         0.00041  23549257.01146  23549254.82248
  -6388313.97048  -4977889.56946         0.00041  22125268.98946  22125266.23148
 -21060000.51849 -16410378.52447         0.00041  21178870.62847  21178868.13049
 -16194178.25908 -12618828.05608  21681023.99808  21681028.12208         0.00001
 -14792106.64708 -11526303.47008  20486520.82908  20486524.48108         0.00001
  -4777231.51648  -3722515.18946         0.00041  22201341.19846  22201338.43948
 94 03 17 01 25 00.0000000  0  8 02 04 05 07 09 12 13 24
 -10284161.30348  -8013613.95046         0.00041  22751700.26246  22751695.81148
 -16568173.40049 -12910249.44047         0.00041  20878212.20647  20878210.27149
  -8976380.69648  -6994572.85846         0.00041  23533960.78146  23533958.02448
  -6319277.76548  -4924095.12846         0.00041  22138405.96846  22138403.04648
 -21096629.29349 -16438920.41247         0.00041  21171900.13647  21171898.13949
 -16262047.51208 -12671713.16308  21668108.88008  21668112.98408         0.00001
 -14778727.99908 -11515878.53208  20489066.74308  20489070.35908         0.00001
  -4868380.49448  -3793540.32946         0.00041  22183996.85646  22183992.96448
 94 03 17 01 25 30.0000000  0  8 02 04 05 07 09 12 13 24
 -10219711.49048  -7963393.31646         0.00041  22763964.13546  22763959.29448
 -16609640.34049 -12942561.30347         0.00041  20870321.43247  20870319.08749
  -9056739.88348  -7057190.31746         0.00041  23518669.50346  23518665.98248
  -6250119.62948  -4870205.67446         0.00041  22151566.25846  22151563.30348
 -21132755.74749 -16467070.88347         0.00041  21165025.31747  21165022.98149
 -16329564.51608 -12724323.78908  21655260.81208  21655264.93608         0.00001
 -14764854.21708 -11505067.77108  20491706.84708  20491710.40008         0.00001
  -4959217.62248  -3864322.44946         0.00041  22166711.82246  22166707.26948
 94 03 17 01 26 00.0000000  0  8 02 04 05 07 09 12 13 24
 -10155020.74348  -7912984.97746         0.00041  22776272.88246  22776270.91848
 -16650555.27549 -12974443.02947         0.00041  20862535.70747  20862533.68649
  -9137081.64348  -7119794.20346         0.00041  23503379.87146  23503376.31348
  -6180855.18048  -4816233.38146         0.00041  22164746.75246  22164743.83648
 -21168392.00649 -16494839.38547         0.00041  21158244.14947  21158242.04649
 -16396742.76908 -12776670.45108  21642477.23008  21642481.26708         0.00001
 -14750503.05208 -11493885.02808  20494437.73808  20494441.27708         0.00001
  -5049767.72348  -3934880.90946         0.00041  22149480.21346  22149475.57848
 94 03 17 01 26 30.0000000  0  8 02 04 05 07 09 12 13 24
 -10090089.02648  -7862388.84845         0.00041  22788629.23645  22788625.35648
 -16690900.91449 -13005881.15647         0.00041  20854858.01847  20854855.92749
  -9217412.49648  -7182389.61846         0.00041  23488090.11146  23488089.33648
  -6111466.25148  -4762164.08346         0.00041  22177950.88246  22177948.44448
 -21203533.00249 -16522221.96447         0.00041  21151556.74347  21151554.83249
 -16463576.34908 -12828748.53708  21629759.17908  21629763.20608         0.00001
 -14735673.18408 -11482329.26608  20497259.89808  20497263.30108         0.00001
  -5140033.70748  -4005217.98946         0.00041  22132303.01846  22132298.31748
 94 03 17 01 27 00.0000000  0  8 02 04 05 07 09 12 13 24
 -10024914.65948  -7811603.64545         0.00041  22801029.79245  22801029.07848
 -16730647.85949 -13036852.77147         0.00041  20847294.08447  20847292.05349
  -9297723.62348  -7244969.64446         0.00041  23472808.80746  23472806.10948
  -6041929.49048  -4707979.60046         0.00041  22191183.99946  22191181.43948
 -21238137.81149 -16549186.73847         0.00041  21144971.85147  21144969.62649
 -16530050.20908 -12880546.31908  21617109.63708  21617113.67608         0.00001
 -14720353.98208 -11470392.20708  20500174.98408  20500178.47108         0.00001
  -5230002.57648  -4075323.55046         0.00041  22115182.12446  22115178.56648
 94 03 17 01 27 30.0000000  0  8 02 04 05 07 09 12 13 24
  -9959500.83948  -7760631.85946         0.00041  22813480.19746  22813477.59148
 -16769806.46749 -13067365.93747         0.00041  20839842.84147  20839840.69049
  -9378028.19748  -7307544.56446         0.00041  23457527.63546  23457525.27748
  -5972273.88648  -4653702.50846         0.00041  22204438.72246  22204436.41048
 -21272192.16749 -16575722.58647         0.00041  21138490.79147  21138488.82749
 -16596178.59208 -12932074.90008  21604525.82608  21604529.77308         0.00001
 -14704564.06208 -11458088.35708  20503179.70308  20503183.11308         0.00001
  -5319676.86448  -4145199.56446         0.00041  22098117.79246  22098114.30148
 94 03 17 01 28 00.0000000  0  8 02 04 05 07 09 12 13 24
  -9893861.63448  -7709484.46345         0.00041  22825969.82845  22825967.40948
 -16808394.74649 -13097434.68947         0.00041  20832499.67247  20832497.75149
  -9458351.38648  -7370134.00146         0.00041  23442243.91946  23442239.72148
  -5902530.82248  -4599357.26346         0.00041  22217710.65546  22217707.89348
 -21305692.82949 -16601826.98147         0.00041  21132115.55247  21132114.13949
 -16661976.69608 -12983346.11308  21592004.77808  21592008.85208         0.00001
 -14688322.91308 -11445432.90408  20506270.24908  20506273.67908         0.00001
  -5409056.31948  -4214845.84646         0.00041  22081109.24946  22081105.36848
 94 03 17 01 28 30.0000000  0  8 02 04 05 07 09 12 13 24
  -9827970.73248  -7658140.93146         0.00041  22838509.46546  22838506.48648
 -16846405.19249 -13127053.17947         0.00041  20825266.56547  20825264.42649
  -9538681.53848  -7432728.85346         0.00041  23426957.53546  23426954.11648
  -5832677.19848  -4544925.87046         0.00041  22231002.74146  22231000.22948
 -21338624.01749 -16627487.62947         0.00041  21125849.48147  21125847.51349
 -16727422.39208 -13034342.71908  21579550.87608  21579554.85608         0.00001
 -14671612.89708 -11432412.09908  20509449.93708  20509453.48508         0.00001
  -5498089.60048  -4284222.36646         0.00041  22064167.52446  22064162.78548
 94 03 17 01 29 00.0000000  0  8 02 04 05 07 09 12 13 24
  -9761837.82448  -7606608.79645         0.00041  22851095.50845  22851090.81648
 -16883866.74649 -13156243.96447         0.00041  20818137.40847  20818135.20349
  -9619021.02048  -7495330.99146         0.00041  23411670.09646  23411665.50448
  -5762742.51848  -4490431.30946         0.00041  22244310.74246  22244308.20348
 -21371005.79749 -16652720.16947         0.00041  21119687.48447  21119685.55549
 -16792534.44308 -13085079.34008  21567160.45208  21567164.37008         0.00001
 -14654457.18608 -11419044.00608  20512714.56608  20512718.12108         0.00001
  -5586774.29248  -4353327.25546         0.00041  22047291.06246  22047286.78848
 94 03 17 01 29 30.0000000  0  8 02 04 05 07 09 12 13 24
  -9695450.07248  -7554878.10045         0.00041  22863730.43845  22863722.43748
 -16920796.96749 -13185020.72347         0.00041  20811110.02147  20811107.77349
  -9699351.71948  -7557926.22546         0.00041  23396381.13146  23396378.76748
  -5692731.01548  -4435876.89746         0.00041  22257633.89246  22257631.06148
 -21402852.18849 -16677535.52347         0.00041  21113627.60747  21113625.39649
 -16857308.27608 -13135552.41308  21554834.34108  21554838.41808         0.00001
 -14636855.50808 -11405328.40708  20516064.05508  20516067.61708         0.00001
  -5675111.88248  -4422161.67546         0.00041  22030481.27346  22030476.46048
 94 03 17 01 30 00.0000000  0  8 02 04 05 07 09 12 13 24
  -9628828.76448  -7502965.46745         0.00041  22876405.43645  22876401.00848
 -16957217.15549 -13213400.04947         0.00041  20804179.32147  20804177.61749
  -9779678.32848  -7620518.31246         0.00041  23381095.90846  23381092.97248
  -5622638.46848  -4381259.33546         0.00041  22270972.50946  22270969.13448
 -21434189.15349 -16701953.91847         0.00041  21107664.43747  21107662.72849
 -16921750.58608 -13185767.16208  21542571.30608  21542575.23108         0.00001
 -14618819.47808 -11391274.35008  20519496.16108  20519499.77608         0.00001
  -5763115.14048  -4490735.57746         0.00041  22013734.27846  22013730.57748
 94 03 17 01 30 30.0000000  0  8 02 04 05 07 09 12 13 24
  -9561968.04348  -7450866.18645         0.00041  22889128.39645  22889124.87948
 -16993129.93549 -13241383.99747         0.00041  20797345.34547  20797343.54349
  -9859990.93348  -7683099.44746         0.00041  23365812.34746  23365808.74348
  -5552447.05748  -4326564.72346         0.00041  22284329.70346  22284326.30848
 -21465026.66749 -16725983.13647         0.00041  21101795.74747  21101793.53449
 -16985855.80708 -13235719.24108  21530372.41008  21530376.45908         0.00001
 -14600347.52208 -11376880.60608  20523011.32408  20523014.87608         0.00001
  -5850789.50548  -4559053.19946         0.00041  21997050.21746  21997046.55148
 94 03 17 01 31 00.0000000  0  8 02 04 05 07 09 12 13 24
  -9494841.68648  -7398559.94945         0.00041  22901902.82345  22901898.56448
 -17028503.91549 -13268948.10247         0.00041  20790613.98747  20790612.22049
  -9940252.86648  -7745641.11046         0.00041  23350537.88946  23350535.75948
  -5482127.62748  -4271770.36946         0.00041  22297710.75446  22297707.84748
 -21495334.05749 -16749599.26447         0.00041  21096028.91447  21096026.80849
 -17049589.98408 -13285382.19708  21518244.22108  21518248.26008         0.00001
 -14581410.32808 -11362124.34208  20526614.95508  20526618.55208         0.00001
  -5938125.03448  -4627106.78446         0.00041  21980430.55746  21980426.86948
 94 03 17 01 31 30.0000000  0  8 02 04 05 07 09 12 13 24
  -9427481.04148  -7346071.13245         0.00041  22914718.52745  22914718.85048
 -17063359.29449 -13296108.09747         0.00041  20783980.97447  20783978.79749
 -10020502.70048  -7808173.34346         0.00041  23335268.64346  23335264.02148
  -5411699.41348  -4216891.23246         0.00041  22311111.93746  22311109.87248
 -21525134.31149 -16772820.22647         0.00041  21090357.95847  21090355.77149
 -17112972.56708 -13334771.18708  21506182.92008  21506186.83208         0.00001
 -14562031.85508 -11347024.21908  20530302.49508  20530306.09808         0.00001
  -6025157.09848  -4694923.90446         0.00041  21963869.07346  21963864.91848
 94 03 17 01 32 00.0000000  0  8 02 04 05 07 09 12 13 24
  -9359861.93748  -7293380.94646         0.00041  22927588.50746  22927584.63648
 -17097647.45149 -13322826.10147         0.00041  20777455.90347  20777454.25749
 -10100730.28048  -7870688.23546         0.00041  23320001.58046  23319998.68548
  -5341140.21848  -4161910.04446         0.00041  22324539.07346  22324536.54748
 -21554399.91549 -16795624.57447         0.00041  21084789.01547  21084786.93949
 -17175971.69308 -13383861.37908  21494194.60708  21494198.61108         0.00001
 -14542184.75708 -11331558.93008  20534079.33408  20534082.83608         0.00001
  -6111849.68548  -4762476.49646         0.00041  21947372.04546  21947367.39448
 94 03 17 01 32 30.0000000  0  8 02 04 05 07 09 12 13 24
  -9291999.08448  -7240500.81545         0.00041  22940500.91345  22940498.09848
 -17131366.52349 -13349100.66947         0.00041  20771039.79747  20771037.98849
 -10180958.21048  -7933203.40646         0.00041  23304735.70846  23304732.68248
  -5270475.34948  -4106846.51246         0.00041  22337986.47046  22337983.56248
 -21583132.27749 -16818013.41247         0.00041  21079321.06847  21079318.94749
 -17238597.37108 -13432660.57608  21482277.22208  21482281.16908         0.00001
 -14521883.43308 -11315739.69608  20537942.44308  20537945.97908         0.00001
  -6198219.91448  -4829777.89546         0.00041  21930936.20146  21930931.89848
 94 03 17 01 33 00.0000000  0  8 02 04 05 07 09 12 13 24
  -9223890.89948  -7187429.51545         0.00041  22953461.42445  22953456.99648
 -17164503.75349 -13374921.84747         0.00041  20764733.87347  20764731.79649
 -10261188.41648  -7995720.33046         0.00041  23289469.08346  23289465.82848
  -5199715.33748  -4051708.83246         0.00041  22351451.44046  22351448.90048
 -21611308.27449 -16839968.71947         0.00041  21073959.89147  21073957.72349
 -17300839.84108 -13481161.17008  21470432.89408  21470436.79408         0.00001
 -14501122.77408 -11299562.53608  20541893.07908  20541896.56808         0.00001
  -6284264.73448  -4896825.73746         0.00041  21914562.27046  21914557.94948
 94 03 17 01 33 30.0000000  0  8 02 04 05 07 09 12 13 24
  -9155544.17448  -7134172.38245         0.00041  22966468.97045  22966462.82948
 -17197047.27749 -13400280.40147         0.00041  20758540.98147  20758538.94949
 -10341420.85448  -8058239.02446         0.00041  23274200.56446  23274197.51048
  -5128863.12248  -3996499.32346         0.00041  22364933.90446  22364931.34648
 -21638918.32249 -16861483.02847         0.00041  21068705.26947  21068703.44549
 -17362696.24708 -13529360.93908  21458661.83508  21458665.86008         0.00001
 -14479904.45908 -11283028.76008  20545930.84308  20545934.30708         0.00001
  -6369975.86848  -4963613.56446         0.00041  21898251.17846  21898247.68248
 94 03 17 01 34 00.0000000  0  8 02 04 05 07 09 12 13 24
  -9086965.92248  -7080734.82645         0.00041  22979519.63145  22979514.73148
 -17229005.29949 -13425182.71947         0.00041  20752459.59747  20752457.64849
 -10421650.55048  -8120755.59046         0.00041  23258933.44846  23258929.94048
  -5057927.50948  -3941224.80846         0.00041  22378432.37546  22378430.52148
 -21665956.64749 -16882551.84247         0.00041  21063560.25647  21063558.38149
 -17424167.80208 -13577260.82708  21446964.28708  21446968.16708         0.00001
 -14458233.98408 -11266142.65008  20550054.48608  20550058.01408         0.00001
  -6455351.28748  -5030139.79946         0.00041  21882005.48246  21882001.18648
 94 03 17 01 34 30.0000000  0  8 02 04 05 07 09 12 13 24
  -9018145.17248  -7027108.25945         0.00041  22992614.88545  22992611.74548
 -17260381.04149 -13449631.31747         0.00041  20746488.98247  20746487.13549
 -10501851.24948  -8183249.53446         0.00041  23243669.81546  23243666.29948
  -4986889.29648  -3885870.37346         0.00041  22391951.25746  22391948.40648
 -21692405.63649 -16903161.42947         0.00041  21058526.61247  21058524.89549
 -17485246.02708 -13624854.22308  21435341.38308  21435345.34708         0.00001
 -14436107.53708 -11248901.24008  20554265.04308  20554268.51208         0.00001
  -6540376.06648  -5096392.80046         0.00041  21865825.42446  21865821.41348
 94 03 17 01 35 00.0000000  0  8 02 04 05 07 09 12 13 24
  -8949086.58248  -6973296.37045         0.00041  23005756.78845  23005752.86748
 -17291187.70949 -13473636.48347         0.00041  20740626.23947  20740624.54849
 -10582018.29448  -8245717.28946         0.00041  23228414.82446  23228410.83748
  -4915762.51648  -3830446.91046         0.00041  22405485.69446  22405483.15748
 -21718276.00249 -16923320.14547         0.00041  21053603.97547  21053602.13949
 -17545943.97008 -13672151.29208  21423791.07808  21423794.81108         0.00001
 -14413542.83708 -11231318.33108  20558558.92408  20558562.41808         0.00001
  -6625053.03748  -5162374.78246         0.00041  21849711.78646  21849708.31748
 94 03 17 01 35 30.0000000  0  8 02 04 05 07 09 12 13 24
  -8879797.36248  -6919304.80845         0.00041  23018940.43545  23018938.52248
 -17321443.24549 -13497212.19247         0.00041  20734869.06447  20734867.23449
 -10662147.22448  -8308155.33246         0.00041  23213167.31446  23213164.79348
  -4844560.87448  -3774965.10646         0.00041  22419034.45246  22419032.78348
 -21743589.97949 -16943045.30747         0.00041  21048786.86547  21048784.79049
 -17606276.86808 -13719163.90508  21412309.96408  21412313.90008         0.00001
 -14390559.56908 -11213409.26908  20562932.46608  20562936.06308         0.00001
  -6709391.37148  -5228092.88846         0.00041  21833662.93446  21833659.18248
 94 03 17 01 36 00.0000000  0  8 02 04 05 07 09 12 13 24
  -8810256.32048  -6865117.02645         0.00041  23032170.98945  23032170.93148
 -17351144.74049 -13520356.18147         0.00041  20729217.19347  20729215.22949
 -10742228.10148  -8370555.94646         0.00041  23197928.97446  23197925.06048
  -4773285.50648  -3719425.86046         0.00041  22432598.12346  22432595.74948
 -21768345.74349 -16962335.49347         0.00041  21044076.13147  21044074.19949
 -17666238.71008 -13765887.38208  21400899.67308  21400903.48508         0.00001
 -14367156.43308 -11195173.04308  20567385.94508  20567389.44608         0.00001
  -6793386.30948  -5293543.40746         0.00041  21817679.34746  21817675.84948
 94 03 17 01 36 30.0000000  0  8 02 04 05 07 09 12 13 24
  -8740429.42948  -6810706.53144         0.00041  23045466.48244  23045456.40048
 -17380258.68449 -13543042.33447         0.00041  20723676.74747  20723675.04349
 -10822231.68348  -8432896.34846         0.00041  23182704.99546  23182701.42648
  -4701908.35248  -3663807.30746         0.00041  22446179.80846  22446177.91948
 -21792518.08249 -16981171.06647         0.00041  21039476.37047  21039474.39849
 -17725800.69608 -13812299.28308  21389565.29608  21389569.14108         0.00001
 -14343308.97608 -11176590.59108  20571923.97108  20571927.38508         0.00001
  -6877011.27448  -5358705.64146         0.00041  21801765.77446  21801762.27048
 94 03 17 01 37 00.0000000  0  8 02 04 05 07 09 12 13 24
  -8670363.38048  -6756109.59144         0.00041  23058793.40344  23058790.98848
 -17408828.58049 -13565304.56147         0.00041  20718239.78047  20718238.18749
 -10902200.55448  -8495209.69446         0.00041  23167487.63846  23167483.23148
  -4630478.93748  -3608148.04146         0.00041  22459774.15746  22459770.65948
 -21816156.83449 -16999590.85647         0.00041  21034977.78047  21034975.68449
 -17784996.25708 -13858425.65608  21378300.78408  21378304.62608         0.00001
 -14319055.17808 -11157691.51308  20576539.29108  20576542.74808         0.00001
  -6960305.21648  -5423609.93646         0.00041  21785915.94746  21785912.18148
 94 03 17 01 37 30.0000000  0  8 02 04 05 07 09 12 13 24
  -8600068.86248  -6701334.66744         0.00041  23072173.87244  23072167.80248
 -17436869.83049 -13587154.85047         0.00041  20712903.83547  20712902.04749
 -10982158.95848  -8557514.89246         0.00041  23152272.06846  23152268.78248
  -4558997.94148  -3552448.55246         0.00041  22473377.26946  22473373.74148
 -21839282.93649 -17017611.17747         0.00041  21030577.15347  21030575.45049
 -17843826.84508 -13904267.63408  21367105.53608  21367109.39708         0.00001
 -14294401.17708 -11138480.58808  20581230.85208  20581234.26608         0.00001
  -7043276.81248  -5488263.06246         0.00041  21770126.08046  21770123.01748
 94 03 17 01 38 00.0000000  0  8 02 04 05 07 09 12 13 24
  -8529536.74148  -6646374.62845         0.00041  23085594.54145  23085591.13748
 -17464348.50449 -13608566.77247         0.00041  20707674.60047  20707673.08049
 -11062108.59348  -8619813.25546         0.00041  23137056.94346  23137054.14348
  -4487444.71648  -3496692.80246         0.00041  22486991.52046  22486989.72148
 -21861870.79649 -17035212.09247         0.00041  21026278.84647  21026277.07049
 -17902265.07108 -13949803.87708  21355985.16508  21355989.09208         0.00001
 -14269324.08508 -11118939.98208  20586002.79308  20586006.29608         0.00001
  -7125892.63148  -5552638.95146         0.00041  21754404.49346  21754401.19148
 94 03 17 01 38 30.0000000  0  8 02 04 05 07 09 12 13 24
  -8458769.25748  -6591231.13845         0.00041  23099060.70545  23099058.05248
 -17491252.36049 -13629530.78247         0.00041  20702555.08447  20702553.36349
 -11142041.04448  -8682098.23646         0.00041  23121846.24446  23121843.13348
  -4415803.34048  -3440868.35446         0.00041  22500626.38646  22500622.77748
 -21883909.48549 -17052385.08147         0.00041  21022084.89047  21022083.02149
 -17960292.84808 -13995020.28808  21344942.79108  21344946.67208         0.00001
 -14243810.34708 -11099059.13308  20590857.92208  20590861.28908         0.00001
  -7208127.17648  -5616717.75346         0.00041  21738755.95646  21738752.59448
 94 03 17 01 39 00.0000000  0  8 02 04 05 07 09 12 13 24
  -8387770.94748  -6535907.74244         0.00041  23112571.52344  23112566.94448
 -17517572.76449 -13650040.14847         0.00041  20697546.73347  20697544.81049
 -11221960.25648  -8744372.89846         0.00041  23106636.94546  23106634.47348
  -4344075.94548  -3384976.88046         0.00041  22514274.78746  22514272.25548
 -21905405.14249 -17069134.92547         0.00041  21017994.88347  21017992.82449
 -18017907.84408 -14039915.05508  21333978.98408  21333982.89108         0.00001
 -14217862.28208 -11078839.85108  20595795.75308  20595799.04708         0.00001
  -7289976.45548  -5680496.34846         0.00041  21723180.47746  21723176.96148
 94 03 17 01 39 30.0000000  0  8 02 04 05 07 09 12 13 24
  -8316537.66348  -6480401.39944         0.00041  23126125.83544  23126120.68248
 -17543293.14249 -13670081.96747         0.00041  20692651.69047  20692650.03049
 -11301871.52448  -8806641.36146         0.00041  23091430.35446  23091427.75248
  -4272266.71248  -3329021.62346         0.00041  22527939.04246  22527936.75048
 -21926340.03149 -17085447.80947         0.00041  21014010.73147  21014008.50449
 -18075113.01108 -14084490.47308  21323093.17308  21323097.03608         0.00001
 -14191487.35808 -11058287.94808  20600814.66408  20600817.98608         0.00001
  -7371432.79248  -5743968.74946         0.00041  21707679.77446  21707676.51048
 94 03 17 01 40 00.0000000  0  8 02 04 05 07 09 12 13 24
  -8245061.09148  -6424705.34145         0.00041  23139725.16345  23139723.26148
 -17568390.16849 -13689638.06047         0.00041  20687876.45947  20687874.80549
 -11381740.99648  -8868877.26246         0.00041  23076231.89346  23076230.04248
  -4200359.85548  -3272990.30246         0.00041  22541621.49246  22541619.28448
 -21946683.33949 -17101299.71847         0.00041  21010139.98947  21010137.88449
 -18131893.46208 -14128734.94808  21312288.13808  21312292.00108         0.00001
 -14164675.19108 -11037395.33708  20605916.75008  20605920.14208         0.00001
  -7452468.86048  -5807113.66546         0.00041  21692259.31046  21692255.86848
 94 03 17 01 40 30.0000000  0  8 02 04 05 07 09 12 13 24
  -8173346.59448  -6368823.90744         0.00041  23153373.20944  23153372.01948
 -17592893.52549 -13708731.55447         0.00041  20683213.43847  20683211.65849
 -11461558.35848  -8931072.55146         0.00041  23061043.92646  23061041.89248
  -4128355.03048  -3216882.64446         0.00041  22555323.95746  22555321.94148
 -21966461.47449 -17116711.23047         0.00041  21006375.68847  21006373.42249
 -18188262.07108 -14172658.50608  21301561.61508  21301565.44608         0.00001
 -14137443.46808 -11016175.80108  20611098.75108  20611102.23108         0.00001
  -7533107.96548  -5869949.26246         0.00041  21676914.05646  21676910.93248
 94 03 17 01 41 00.0000000  0  8 02 04 05 07 09 12 13 24
  -8101400.25148  -6312761.66744         0.00041  23167061.34044  23167060.84548
 -17616821.82049 -13727376.94547         0.00041  20678660.26547  20678658.33449
 -11541341.92448  -8993241.54346         0.00041  23045862.17346  23045860.15948
  -4056273.54648  -3160715.25046         0.00041  22569041.13846  22569038.62148
 -21985696.17449 -17131699.28647         0.00041  21002716.08847  21002713.83649
 -18244236.69208 -14216275.06508  21290909.96408  21290913.79708         0.00001
 -14109814.23608 -10994646.51508  20616356.43308  20616359.86408         0.00001
  -7613376.31748  -5932495.98046         0.00041  21661639.52846  21661636.42448
 94 03 17 01 41 30.0000000  0  8 02 04 05 07 09 12 13 24
  -8029227.84048  -6256523.64644         0.00041  23180801.79244  23180796.20248
 -17640187.92149 -13745584.26447         0.00041  20674213.56047  20674211.93149
 -11621088.44948  -9055381.59646         0.00041  23030685.46346  23030682.36548
  -3984114.23148  -3104487.20146         0.00041  22582772.81946  22582769.19048
 -22004376.98649 -17146255.74247         0.00041  20999161.01247  20999158.52849
 -18299811.76408 -14259580.29108  21280334.46008  21280338.23408         0.00001
 -14081786.88108 -10972807.00608  20621689.84508  20621693.32708         0.00001
  -7693278.75348  -5994757.57546         0.00041  21646434.69346  21646430.78748
 94 03 17 01 42 00.0000000  0  8 02 04 05 07 09 12 13 24
  -7956837.48848  -6200115.58244         0.00041  23194576.79944  23194570.88348
 -17663001.61649 -13763361.13547         0.00041  20669872.00747  20669870.17349
 -11700792.76648  -9117488.85146         0.00041  23015517.58746  23015515.45948
  -3911880.23548  -3048200.97246         0.00041  22596519.29046  22596515.50548
 -22022518.49849 -17160391.96247         0.00041  20995708.75647  20995706.32649
 -18354982.59808 -14302570.52708  21269835.72308  21269839.55908         0.00001
 -14053361.34108 -10950657.22108  20627099.07108  20627102.48408         0.00001
  -7772831.84348  -6056746.93946         0.00041  21631295.74046  21631292.14948
 94 03 17 01 42 30.0000000  0  8 02 04 05 07 09 12 13 24
  -7884218.02048  -6143529.01544         0.00041  23208393.88744  23208389.79248
 -17685249.32649 -13780696.98247         0.00041  20665638.52147  20665637.03049
 -11780454.25448  -9179562.69546         0.00041  23000359.98946  23000357.03648
  -3839585.12848  -2991867.12146         0.00041  22610277.49846  22610273.41348
 -22040113.73349 -17174102.51547         0.00041  20992360.12047  20992357.85749
 -18409736.38908 -14345235.79108  21259416.45008  21259420.28808         0.00001
 -14024529.13208 -10928190.55008  20632585.59108  20632589.11408         0.00001
  -7852036.95448  -6118465.15646         0.00041  21616223.25046  21616219.92248
 94 03 17 01 43 00.0000000  0  8 02 04 05 07 09 12 13 24
  -7811345.43648  -6086745.18744         0.00041  23222259.16244  23222256.69648
 -17706895.25049 -13797563.90847         0.00041  20661519.55347  20661517.68949
 -11860058.19548  -9241591.69046         0.00041  22985212.96546  22985210.07348
  -3767216.64248  -2935476.11246         0.00041  22624046.36646  22624044.51748
 -22057115.81849 -17187350.87947         0.00041  20989124.71447  20989122.92949
 -18464045.16808 -14387554.29408  21249081.70508  21249085.61108         0.00001
 -13995266.80508 -10905388.72108  20638153.99308  20638157.39408         0.00001
  -7930851.79948  -6179879.27146         0.00041  21601225.64446  21601222.21548
 94 03 17 01 43 30.0000000  0  8 02 04 05 07 09 12 13 24
  -7738237.76548  -6029778.24844         0.00041  23236174.62344  23236169.97848
 -17727954.00349 -13813973.29547         0.00041  20657512.22947  20657510.20149
 -11939614.52248  -9303583.60146         0.00041  22970072.77746  22970069.88748
  -3694782.99848  -2879034.31146         0.00041  22637830.72046  22637827.57748
 -22073531.67549 -17200142.44347         0.00041  20986000.79647  20985998.82749
 -18517919.34808 -14429534.14908  21238829.80708  21238833.71608         0.00001
 -13965589.64408 -10882263.64508  20643801.36708  20643804.81408         0.00001
  -8009282.37348  -6240993.94946         0.00041  21586300.61646  21586297.23848
 94 03 17 01 44 00.0000000  0  8 02 04 05 07 09 12 13 24
  -7664896.39147  -5972629.14544         0.00041  23250128.48544  23250124.97447
 -17748430.37149 -13829928.87047         0.00041  20653615.71247  20653614.01849
 -12019134.27448  -9365546.98946         0.00041  22954939.91546  22954936.49348
  -3622302.96048  -2822556.35546         0.00041  22651622.49746  22651620.52848
 -22089390.06849 -17212499.61847         0.00041  20982982.63347  20982980.97849
 -18571372.36008 -14471185.82408  21228658.01008  21228661.85608         0.00001
 -13935515.55708 -10858829.27808  20649524.33208  20649527.74908         0.00001
  -8087333.80448  -6301813.18946         0.00041  21571448.50946  21571444.61848
 94 03 17 01 44 30.0000000  0  8 02 04 05 07 09 12 13 24
  -7591296.54747  -5915278.59744         0.00041  23264131.32844  23264129.47747
 -17768318.94749 -13845426.43247         0.00041  20649830.84147  20649829.25649
 -12098614.03048  -9427479.20846         0.00041  22939817.58546  22939813.76248
  -3549745.16948  -2766017.83846         0.00041  22665429.78446  22665427.68148
 -22104674.33349 -17224409.42247         0.00041  20980074.80647  20980072.92649
 -18624391.73508 -14512499.60108  21218568.82308  21218572.61308         0.00001
 -13905036.54808 -10835079.38708  20655324.20908  20655327.62308         0.00001
  -8164987.00148  -6362322.11646         0.00041  21556670.57946  21556667.33248
 94 03 17 01 45 00.0000000  0  8 02 04 05 07 09 12 13 24
  -7517449.91747  -5857735.74944         0.00041  23278185.16644  23278182.79647
 -17787641.24649 -13860482.74347         0.00041  20646154.15847  20646152.31549
 -12178071.05448  -9489393.71546         0.00041  22924694.85246  22924692.88148
  -3477101.30148  -2709412.22946         0.00041  22679255.30346  22679252.37848
 -22119401.55449 -17235885.16747         0.00041  20977272.38147  20977270.13949
 -18676985.77808 -14553481.95308  21208560.39008  21208564.28908         0.00001
 -13874165.68308 -10811024.15708  20661198.79308  20661202.14408         0.00001
  -8242245.98348  -6422523.86746         0.00041  21541969.45346  21541965.68948
 94 03 17 01 45 30.0000000  0  8 02 04 05 07 09 12 13 24
  -7443353.53447  -5799998.42044         0.00041  23292299.68544  23292284.54747
 -17806388.49849 -13875090.96248         0.00041  20642586.75048  20642584.68949
 -12257491.37448  -9551279.62446         0.00041  22909581.60046  22909578.62148
  -3404371.99448  -2652740.06746         0.00041  22693094.56146  22693091.57648
 -22133571.67549 -17246926.80547         0.00041  20974575.34847  20974574.05049
 -18729142.47608 -14594123.51408  21198635.26208  21198639.13408         0.00001
 -13842895.66108 -10786657.89508  20667149.33908  20667152.59108         0.00001
  -8319107.81748  -6482416.14946         0.00041  21527342.89046  21527339.37948
 94 03 17 01 46 00.0000000  0  8 02 04 05 07 09 12 13 24
  -7369008.76548  -5742067.35444         0.00041  23306428.18144  23306431.80548
 -17824557.13149 -13889248.31048         0.00041  20639128.88648  20639127.27049
 -12336874.42748  -9613136.48346         0.00041  22894478.35646  22894474.50348
  -3331557.40048  -2596001.43446         0.00041  22706951.34146  22706947.35348
 -22147173.03849 -17257525.25947         0.00041  20971987.22047  20971985.53449
 -18780859.80108 -14634422.70708  21188793.67508  21188797.70608         0.00001
 -13811228.59808 -10761982.25008  20673175.34508  20673178.65908         0.00001
  -8395565.77248  -6541993.72546         0.00041  21512793.39546  21512789.87348
 94 03 17 01 46 30.0000000  0  8 02 04 05 07 09 12 13 24
  -7294419.37448  -5683945.74544         0.00041  23320631.59744  23320627.84748
 -17842148.93449 -13902956.18647         0.00041  20635781.30247  20635779.57349
 -12416222.04248  -9674965.73246         0.00041  22879377.35046  22879374.22848
  -3258657.85248  -2539196.60346         0.00041  22720822.76646  22720820.37648
 -22160180.43449 -17267660.88247         0.00041  20969512.26247  20969510.39949
 -18832132.41608 -14674375.37308  21179036.88408  21179040.72708         0.00001
 -13779163.87208 -10736996.74408  20679277.14008  20679280.36708         0.00001
  -8471602.68548  -6601243.21646         0.00041  21498323.97446  21498320.53648
 94 03 17 01 47 00.0000000  0  8 02 04 05 07 09 12 13 24
  -7219604.25047  -5625648.21644         0.00041  23334859.64044  23334860.85247
 -17859159.96649 -13916211.51247         0.00041  20632544.07547  20632542.58549
 -12495534.93548  -9736767.92546         0.00041  22864282.70746  22864279.76548
  -3185706.11648  -2482351.07546         0.00041  22734702.80846  22734702.15948
 -22172598.80749 -17277337.52847         0.00041  20967149.19247  20967147.47949
 -18882967.16908 -14713986.85008  21169363.40208  21169367.24008         0.00001
 -13746713.02408 -10711710.35708  20685452.21508  20685455.59808         0.00001
  -8547217.36048  -6660163.69246         0.00041  21483934.86846  21483931.74848
 94 03 17 01 47 30.0000000  0  8 02 04 05 07 09 12 13 24
  -7144552.14848  -5567166.11944         0.00041  23349146.33744  23349145.88848
 -17875583.72249 -13929009.21147         0.00041  20629418.97447  20629416.81449
 -12574810.00248  -9798540.61946         0.00041  22849199.46346  22849197.43648
  -3112709.21948  -2425470.37745         0.00041  22748593.73845  22748592.30748
 -22184418.58249 -17286547.72947         0.00041  20964899.65447  20964897.63449
 -18933365.24208 -14753258.05708  21159772.98608  21159776.74408         0.00001
 -13713881.87408 -10686127.64108  20691699.76808  20691703.16708         0.00001
  -8622420.37148  -6718763.38446         0.00041  21469624.10746  21469621.00748
 94 03 17 01 48 00.0000000  0  8 02 04 05 07 09 12 13 24
  -7069254.80048  -5508492.93544         0.00041  23363480.90644  23363472.77048
 -17891415.81149 -13941345.87248         0.00041  20626405.94748  20626404.58849
 -12654038.19348  -9860276.80346         0.00041  22834122.92646  22834119.03648
  -3039649.44148  -2368540.71245         0.00041  22762498.62645  22762495.61348
 -22195637.86149 -17295290.00847         0.00041  20962765.07647  20962762.78349
 -18983322.09108 -14792185.45208  21150266.48008  21150270.24608         0.00001
 -13680670.19808 -10660248.40608  20698019.70708  20698023.19308         0.00001
  -8697208.64248  -6777039.90346         0.00041  21455392.09546  21455388.88648
 94 03 17 01 48 30.0000000  0  8 02 04 05 07 09 12 13 24
  -6993726.76048  -5449639.89544         0.00041  23377847.29744  23377845.09548
 -17906668.92449 -13953231.38348         0.00041  20623503.25048  20623501.62249
 -12733223.77548  -9921979.76146         0.00041  22819052.58746  22819049.42348
  -2966536.86048  -2311569.83245         0.00041  22776414.64945  22776408.81748
 -22206287.25049 -17303588.21547         0.00041  20960738.46047  20960735.93849
 -19032846.91308 -14830776.20308  21140842.17308  21140846.01908         0.00001
 -13647092.07708 -10634083.63208  20704409.48308  20704412.76008         0.00001
  -8771596.80248  -6835004.64846         0.00041  21441236.15246  21441232.99948
 94 03 17 01 49 00.0000000  0  8 02 04 05 07 09 12 13 24
  -6917971.37048  -5390609.75944         0.00041  23392264.73844  23392260.25948
 -17921348.84849 -13964670.25247         0.00041  20620709.96547  20620708.26349
 -12812357.17748  -9983642.06646         0.00041  22803995.35646  22803992.23548
  -2893381.56748  -2254565.71045         0.00041  22790334.31645  22790329.83048
 -22216384.00849 -17311455.79847         0.00041  20958816.98147  20958814.87849
 -19081943.95508 -14869033.61708  21131499.23108  21131503.13408         0.00001
 -13613155.92908 -10607639.87708  20710867.29008  20710870.61308         0.00001
  -8845600.76948  -6892670.01946         0.00041  21427153.90846  21427150.70248
 94 03 17 01 49 30.0000000  0  8 02 04 05 07 09 12 13 24
  -6841981.73648  -5331396.31344         0.00041  23406725.40944  23406721.66048
 -17935449.17949 -13975657.49247         0.00041  20618026.71647  20618025.06749
 -12891414.65648 -10045245.20646         0.00041  22788951.80146  22788948.89848
  -2820174.44648  -2197521.21645         0.00041  22804264.38545  22804261.29048
 -22225916.67449 -17318883.83147         0.00041  20957003.15747  20957000.70049
 -19130598.44208 -14906946.18508  21122240.66208  21122244.47508         0.00001
 -13578851.69808 -10580909.30408  20717395.16208  20717398.46508         0.00001
  -8919201.34048  -6950021.06947         0.00041  21413147.67547  21413144.96348
 94 03 17 01 50 00.0000000  0  8 02 04 05 07 09 12 13 24
  -6765760.92848  -5272003.27644         0.00041  23421231.21244  23421227.20948
 -17948957.61049 -13986183.50548         0.00041  20615456.32048  20615454.60349
 -12970373.94748 -10106771.84546         0.00041  22773924.31846  22773921.71948
  -2746913.05348  -2140434.38945         0.00041  22818204.70945  22818200.18548
 -22234882.51649 -17325870.18347         0.00041  20955296.19047  20955294.29349
 -19178796.03908 -14944502.73608  21113068.94208  21113072.67808         0.00001
 -13544169.77508 -10553884.42308  20723994.86708  20723998.20308         0.00001
  -8992365.64849  -7007032.17247         0.00041  21399225.47047  21399222.52249
 94 03 17 01 50 30.0000000  0  8 02 04 05 07 09 12 13 24
  -6689311.98948  -5212432.72244         0.00041  23435779.33144  23435772.59248
 -17961882.67749 -13996254.95047         0.00041  20612996.52447  20612994.81449
 -13049257.58648 -10168239.54146         0.00041  22758914.43646  22758911.70248
  -2673621.90748  -2083324.41045         0.00041  22832150.69645  22832147.15648
 -22243281.71749 -17332414.99847         0.00041  20953698.67747  20953696.74249
 -19226544.36308 -14981709.20608  21103982.79108  21103986.49708         0.00001
 -13509122.10508 -10526574.54108  20730664.36208  20730667.59408         0.00001
  -9065112.18948  -7063717.74047         0.00041  21385382.10947  21385378.96448
 94 03 17 01 51 00.0000000  0  8 02 04 05 07 09 12 13 24
  -6612626.39247  -5152677.58444         0.00041  23450365.69544  23450365.27547
 -17974220.84249 -14005869.07647         0.00041  20610648.34447  20610646.81549
 -13128070.67448 -10229652.25846         0.00041  22743916.44046  22743913.19948
  -2600309.63848  -2026197.93345         0.00041  22846100.88245  22846100.06548
 -22251102.96549 -17338509.46247         0.00041  20952209.68847  20952208.01449
 -19273839.72108 -15018562.71308  21094982.77108  21094986.42908         0.00001
 -13473709.71308 -10498980.46608  20737402.94608  20737406.38108         0.00001
  -9137447.09648  -7120082.54847         0.00041  21371617.29247  21371614.33748
 94 03 17 01 51 30.0000000  0  8 02 04 05 07 09 12 13 24
  -6535700.55548  -5092735.43044         0.00041  23465009.12144  23465006.02748
 -17985967.00849 -14015021.89948         0.00041  20608413.59748  20608411.70249
 -13206826.21248 -10291020.14146         0.00041  22728927.74746  22728924.89048
  -2526960.50248  -1969042.79145         0.00041  22860059.49445  22860057.79148
 -22258357.36649 -17344162.22947         0.00041  20950829.64147  20950828.05149
 -19320679.68908 -15055061.37008  21086069.40408  21086073.15108         0.00001
 -13437934.35608 -10471103.55908  20744210.81508  20744214.17808         0.00001
  -9209374.52349  -7176129.84347         0.00041  21357930.05447  21357927.14549
 94 03 17 01 52 00.0000000  0  8 02 04 05 07 09 12 13 24
  -6458516.16448  -5032591.83944         0.00041  23479697.58044  23479694.63848
 -17997112.07549 -14023706.33447         0.00041  20606292.21647  20606290.71149
 -13285535.38848 -10352351.89046         0.00041  22713950.79546  22713947.66648
  -2453545.85548  -1911836.56145         0.00041  22874028.35645  22874027.07248
 -22265037.78649 -17349367.74147         0.00041  20949557.97147  20949556.52849
 -19367051.04908 -15091194.87308  21077245.15408  21077248.90508         0.00001
 -13401787.53208 -10442937.19708  20751089.36508  20751092.70108         0.00001
  -9280898.16148  -7231862.49646         0.00041  21344319.15146  21344315.88948
 94 03 17 01 52 30.0000000  0  8 02 04 05 07 09 12 13 24
  -6381086.08747  -4972256.57044         0.00041  23494441.37444  23494426.78047
 -18007666.04649 -14031930.17948         0.00041  20604284.14148  20604282.61449
 -13364204.04148 -10413652.06846         0.00041  22698982.73746  22698979.67948
  -2380066.33148  -1854579.79445         0.00041  22888011.27845  22888009.84048
 -22271148.96049 -17354129.68447         0.00041  20948395.18347  20948393.94349
 -19412955.98108 -15126964.92408  21068509.61808  21068513.50308         0.00001
 -13365275.93008 -10414486.59108  20758037.26708  20758040.66908         0.00001
  -9352028.61849  -7287288.76847         0.00041  21330783.16947  21330780.36949
 94 03 17 01 53 00.0000000  0  8 02 04 05 07 09 12 13 24
  -6303421.89347  -4911739.04844         0.00041  23509213.56944  23509205.59147
 -18017621.23449 -14039687.43547         0.00041  20602389.57347  20602388.11549
 -13442804.21148 -10474898.89546         0.00041  22684023.99846  22684021.14848
  -2306500.43848  -1797255.74345         0.00041  22902011.23545  22902008.42548
 -22276697.75649 -17358453.41447         0.00041  20947338.91247  20947337.43349
 -19458377.75608 -15162358.48908  21059866.13308  21059870.00708         0.00001
 -13328387.34708 -10385742.23908  20765056.82808  20765060.24508         0.00001
  -9422726.15149  -7342377.69847         0.00041  21317330.09347  21317326.90149
 94 03 17 01 53 30.0000000  0  7 04 05 07 09 12 13 24
 -18027022.86549 -14047013.35347         0.00041  20600600.48647  20600599.17449
 -13521379.72348 -10536126.48146         0.00041  22669070.05246  22669067.57248
  -2232896.78848  -1739902.25645         0.00041  22916021.73145  22916015.07848
 -22281739.70849 -17362382.20047         0.00041  20946379.78447  20946378.41249
 -19503361.90808 -15197411.05208  21051305.93808  21051309.73408         0.00001
 -13291171.90808 -10356743.19108  20772138.75108  20772142.06608         0.00001
  -9493021.02549  -7397152.87047         0.00041  21303952.70547  21303950.48149
 94 03 17 01 54 00.0000000  0  7 04 05 07 09 12 13 24
 -18035871.53449 -14053908.39847         0.00041  20598916.27947  20598914.98949
 -13599931.53148 -10597335.62346         0.00041  22654123.35746  22654120.36548
  -2159279.35348  -1682538.01644         0.00041  22930022.60144  22930024.58348
 -22286262.54849 -17365906.48547         0.00041  20945519.27747  20945517.46049
 -19547912.43708 -15232125.72908  21042828.26908  21042832.09108         0.00001
 -13253637.97808 -10327495.97108  20779281.22008  20779284.61708         0.00001
  -9562907.35149  -7451609.69247         0.00041  21290654.26847  21290651.42049
 94 03 17 01 54 30.0000000  0  8 02 04 05 07 09 12 13 24
        -0.45557         0.13654         0.00051  23553771.56854  23553766.95357
 -18043947.46049 -14060201.30248         0.00041  20597380.17948  20597378.11649
 -13678233.93248 -10658350.41946         0.00041  22639221.50946  22639218.92248
  -2085438.38048  -1624999.62644         0.00041  22944078.07744  22944075.58848
 -22290041.87349 -17368851.40447         0.00041  20944800.20947  20944798.01149
 -19591807.04908 -15266329.30108  21034475.28708  21034479.14408         0.00001
 -13215567.84008 -10297830.92108  20786525.68108  20786529.14308         0.00001
  -9632147.99749  -7505563.38147         0.00041  21277478.39547  21277475.32149
 94 03 17 01 55 00.0000000  0  8 02 04 05 07 09 12 13 24
     78598.80448     61246.16744         0.00041  23568731.36444  23568727.30748
 -18051405.31949 -14066012.59948         0.00041  20595960.61148  20595959.39049
 -13756459.87948 -10719305.64546         0.00041  22624337.27646  22624334.16048
  -2011531.69848  -1567409.93844         0.00041  22958142.83344  22958139.49648
 -22293222.74049 -17371329.99447         0.00041  20944194.99147  20944192.56749
 -19635205.89808 -15300146.56208  21026216.74708  21026220.58508         0.00001
 -13177125.96508 -10267876.20908  20793840.92708  20793844.41708         0.00001
  -9700908.26349  -7559142.75847         0.00041  21264393.65647  21264390.86249
 94 03 17 01 55 30.0000000  0  8 02 04 05 07 09 12 13 24
    157386.30847    122639.08444         0.00041  23583722.60744  23583717.94847
 -18058325.69249 -14071405.08248         0.00041  20594643.66048  20594642.04649
 -13834693.38948 -10780266.77946         0.00041  22609450.68546  22609447.54548
  -1937640.85448  -1509832.67144         0.00041  22972203.56644  22972201.97548
 -22295859.93049 -17373384.93947         0.00041  20943693.24547  20943691.00449
 -19678185.76308 -15333637.34308  21018037.92808  21018041.81908         0.00001
 -13138393.66908 -10237695.19208  20801211.44708  20801214.86208         0.00001
  -9769283.87649  -7612422.40647         0.00041  21251382.58847  21251379.44349
 94 03 17 01 56 00.0000000  0  8 02 04 05 07 09 12 13 24
    236380.51648    184193.10544         0.00041  23598745.68144  23598751.62748
 -18064721.86249 -14076389.09248         0.00041  20593426.66448  20593425.09149
 -13912938.13148 -10841236.66546         0.00041  22594558.88046  22594555.77648
  -1863758.58348  -1452262.04944         0.00041  22986262.22744  22986261.52548
 -22297938.72049 -17375004.76947         0.00041  20943297.52847  20943295.15949
 -19720744.74008 -15366800.16408  21009939.31608  21009943.04508         0.00001
 -13099373.57508 -10207289.91408  20808636.82508  20808640.10508         0.00001
  -9837276.69049  -7665403.76047         0.00041  21238443.94047  21238440.85449
 94 03 17 01 56 30.0000000  0  8 02 04 05 07 09 12 13 24
    315571.57448    245901.18144         0.00041  23613823.74644  23613819.92148
 -18070627.04449 -14080990.51048         0.00041  20592302.94048  20592301.20049
 -13991201.30648 -10902220.90546         0.00041  22579667.06046  22579664.38548
  -1789899.23548  -1394709.25444         0.00041  23000317.15844  23000317.27448
 -22299483.04149 -17376208.12947         0.00041  20943003.61547  20943001.69449
 -19762898.00308 -15399646.84608  21001917.82408  21001921.55808         0.00001
 -13060084.97708 -10176675.40908  20816113.11508  20816116.43108         0.00001
  -9904908.60249  -7718103.90347         0.00041  21225573.77047  21225570.68449
 94 03 17 01 57 00.0000000  0  8 02 04 05 07 09 12 13 24
    395029.08947    307816.29044         0.00041  23628941.60044  23628939.00947
 -18075957.90749 -14085144.41748         0.00041  20591288.05448  20591286.92749
 -14069376.59848 -10963136.67346         0.00041  22564791.10146  22564788.02548
  -1715991.16248  -1337118.59344         0.00041  23014383.70144  23014379.96148
 -22300420.10349 -17376938.30647         0.00041  20942825.21847  20942823.12149
 -19804559.27008 -15432110.15608  20993989.90808  20993993.60208         0.00001
 -13020446.55908 -10145788.31908  20823656.02008  20823659.27708         0.00001
  -9972101.36249  -7770461.84547         0.00041  21212786.56347  21212783.89749
 94 03 17 01 57 30.0000000  0  8 02 04 05 07 09 12 13 24
    474760.24147    369944.33544         0.00041  23644108.84044  23644112.57447
 -18080699.25149 -14088838.95248         0.00041  20590386.24548  20590384.59849
 -14147427.59748 -11023955.59446         0.00041  22549937.85246  22549934.96448
  -1642024.86648  -1279482.46344         0.00041  23028457.27344  23028453.96548
 -22300756.47149 -17377200.41047         0.00041  20942761.23047  20942759.42849
 -19845705.49608 -15464172.13808  20986160.07808  20986163.73308         0.00001
 -12980439.17708 -10114613.71708  20831269.21608  20831272.36408         0.00001
 -10038824.79649  -7822454.08847         0.00041  21200090.38447  21200086.93749
 94 03 17 01 58 00.0000000  0  7 04 05 07 09 12 13 24
 -18084828.55149 -14092056.56448         0.00041  20589600.25348  20589598.73149
 -14225340.28848 -11084666.74046         0.00041  22535111.76346  22535108.58948
  -1567993.92247  -1221796.03844         0.00041  23042543.32644  23042539.86847
 -22300485.12549 -17376988.96947         0.00041  20942812.42847  20942810.54949
 -19886323.44408 -15495822.47308  20978430.71208  20978434.37308         0.00001
 -12940054.35808 -10083145.01308  20838954.09608  20838957.38708         0.00001
 -10105061.69749  -7874067.20447         0.00041  21187485.74847  21187482.59449
 94 03 17 01 58 30.0000000  0  7 04 05 07 09 12 13 24
 -18088377.64749 -14094822.07847         0.00041  20588924.67947  20588923.48649
 -14303156.04548 -11145302.35646         0.00041  22520303.29646  22520301.27448
  -1493948.18247  -1164098.11144         0.00041  23056643.08444  23056630.88847
 -22299658.50949 -17376344.85147         0.00041  20942970.05147  20942968.35549
 -19926454.27008 -15527093.23208  20970794.13708  20970797.72308         0.00001
 -12899337.46408 -10051417.54808  20846702.22208  20846705.53508         0.00001
 -10170854.09449  -7925333.96547         0.00041  21174965.59147  21174962.69049
 94 03 17 01 59 00.0000000  0  7 04 05 07 09 12 13 24
 -18091342.92249 -14097132.66548         0.00041  20588360.70948  20588359.03349
 -14380895.40748 -11205878.42846         0.00041  22505510.95246  22505508.08048
  -1419897.13348  -1106396.05544         0.00041  23070729.37544  23070725.67548
 -22298280.70349 -17375271.23747         0.00041  20943232.19447  20943230.50349
 -19966108.26808 -15557992.43908  20963248.10208  20963251.83908         0.00001
 -12858303.34608 -10019442.89808  20854510.80108  20854514.14208         0.00001
 -10236210.52449  -7976261.00247         0.00041  21162528.77147  21162525.56549
 94 03 17 01 59 30.0000000  0  7 04 05 07 09 12 13 24
 -18093710.62649 -14098977.60548         0.00041  20587910.04748  20587908.59549
 -14458563.60448 -11266399.06246         0.00041  22490730.93946  22490728.89448
  -1345809.85847  -1048665.59644         0.00041  23084824.10944  23084824.24047
 -22296318.29849 -17373742.08847         0.00041  20943605.81947  20943604.05649
 -20005270.48308 -15588508.43608  20955795.87408  20955799.44608         0.00001
 -12816941.22408  -9987212.66308  20862381.76108  20862385.05408         0.00001
 -10301119.85749  -8026839.65747         0.00041  21150176.81247  21150174.19549
 94 03 17 02 00 00.0000000  0  7 04 05 07 09 12 13 24
 -18095520.73649 -14100388.05848         0.00041  20587565.47148  20587564.18749
 -14536204.21048 -11326898.17946         0.00041  22475954.64246  22475952.00048
  -1271713.49047   -990928.08444         0.00041  23098919.91044  23098919.32447
 -22293790.26249 -17371772.18847         0.00041  20944087.09247  20944085.27649
 -20043977.94708 -15618670.08108  20948429.88808  20948433.67008         0.00001
 -12775292.60708  -9954759.18608  20870307.24708  20870310.47308         0.00001
 -10365621.71749  -8077100.80147         0.00041  21137902.73747  21137899.67349
 94 03 17 02 00 30.0000000  0  7 04 05 07 09 12 13 24
 -18096683.59249 -14101294.15148         0.00041  20587344.49048  20587342.78249
 -14613706.81648 -11387289.77146         0.00041  22461208.18946  22461205.87748
  -1197504.69947   -933103.18144         0.00041  23113046.78944  23113044.32847
 -22290608.35149 -17369292.77447         0.00041  20944692.09647  20944690.36849
 -20082131.13108 -15648399.81808  20941169.66108  20941173.39008         0.00001
 -12733262.22508  -9922008.23008  20878305.29208  20878308.60408         0.00001
 -10429611.68949  -8126963.07847         0.00041  21125725.74347  21125722.81949
 94 03 17 02 01 00.0000000  0  7 04 05 07 09 12 13 24
 -18097260.38849 -14101743.58048         0.00041  20587234.45048  20587233.13549
 -14691118.94948 -11447610.87246         0.00041  22446477.48746  22446474.04748
  -1123244.01247   -875237.69144         0.00041  23127179.94444  23127177.33147
 -22286833.09249 -17366351.01347         0.00041  20945410.85347  20945408.95149
 -20119783.71008 -15677739.47208  20934004.57308  20934008.30708         0.00001
 -12690908.22908  -9889005.10908  20886364.99808  20886368.26508         0.00001
 -10493150.12549  -8176473.51147         0.00041  21113634.51547  21113631.50549
 94 03 17 02 01 30.0000000  0  7 04 05 07 09 12 13 24
 -18097273.88149 -14101754.07047         0.00041  20587231.86547  20587230.23749
 -14768441.71748 -11507862.32846         0.00041  22431762.60146  22431759.35048
  -1048945.34747   -817342.53144         0.00041  23141324.97044  23141316.51247
 -22282496.08649 -17362971.52647         0.00041  20946235.98847  20946233.68149
 -20156947.78508 -15706698.47608  20926932.49608  20926936.17208         0.00001
 -12648246.91208  -9855762.51608  20894483.11808  20894486.45808         0.00001
 -10556246.04349  -8225639.11847         0.00041  21101627.53947  21101624.61749
 94 03 17 02 02 00.0000000  0  7 04 05 07 09 12 13 24
 -18096690.72949 -14101299.64147         0.00041  20587342.78747  20587341.19949
 -14845635.22248 -11568013.06446         0.00041  22417073.45746  22417070.46448
   -974592.89247   -759405.66444         0.00041  23155464.48444  23155462.86847
 -22277581.31849 -17359141.83147         0.00041  20947171.39747  20947169.67549
 -20193588.53808 -15735249.68608  20919959.98608  20919963.71008         0.00001
 -12605247.67408  -9822256.61208  20902665.60208  20902668.96808         0.00001
 -10618862.35749  -8274431.00647         0.00041  21089712.52847  21089709.77749
 94 03 17 02 02 30.0000000  0  7 04 05 07 09 12 13 24
 -18095514.93349 -14100383.41147         0.00041  20587566.49647  20587565.10049
 -14922717.93648 -11628077.46646         0.00041  22402404.51446  22402402.10148
   -900214.16947   -701448.13544         0.00041  23169621.17844  23169617.82647
 -22272110.88449 -17354879.14847         0.00041  20948212.13447  20948209.99149
 -20229719.22908 -15763403.44908  20913084.44508  20913088.24208         0.00001
 -12561928.09308  -9788501.08908  20910909.04008  20910912.42608         0.00001
 -10681012.38749  -8322859.55547         0.00041  21077885.53747  21077882.68549
 94 03 17 02 03 00.0000000  0  7 04 05 07 09 12 13 24
 -18093748.68849 -14099007.09247         0.00041  20587902.61747  20587901.14949
 -14999704.75248 -11688067.13546         0.00041  22387753.95846  22387751.51448
   -825811.10147   -643471.66244         0.00041  23183775.15944  23183776.46647
 -22266089.95149 -17350187.50647         0.00041  20949357.47447  20949355.93149
 -20265339.87508 -15791159.77108  20906306.02808  20906309.93308         0.00001
 -12518292.85008  -9754499.60308  20919212.60108  20919216.03008         0.00001
 -10742704.57849  -8370931.34947         0.00041  21066146.04247  21066143.19049
 94 03 17 02 03 30.0000000  0  7 04 05 07 09 12 13 24
 -18091403.54149 -14097179.68448         0.00041  20588348.82348  20588347.29449
 -15076624.97348 -11748004.93046         0.00041  22373118.07346  22373114.71748
   -751384.96547   -585477.38444         0.00041  23197938.05844  23197936.82147
 -22259527.51149 -17345073.90647         0.00041  20950606.83847  20950604.97049
 -20300464.40308 -15818529.50508  20899621.94508  20899625.83408         0.00001
 -12474359.63808  -9720265.92608  20927572.84108  20927576.20508         0.00001
 -10803946.59949  -8418652.36347         0.00041  21054491.84147  21054488.59349
 94 03 17 02 04 00.0000000  0  6 04 05 09 12 13 24
 -18088460.36249 -14094886.27748         0.00041  20588909.05348  20588907.43249
 -15153478.15348 -11807890.47146         0.00041  22358491.22546  22358488.43648
 -22252388.64549 -17339511.14347         0.00041  20951965.19247  20951963.46449
 -20335076.49508 -15845499.94008  20893035.53908  20893039.42008         0.00001
 -12430116.47808  -9685790.74008  20935992.05708  20935995.37308         0.00001
 -10864715.72349  -8466004.88747         0.00041  21042927.70247  21042924.45449
 94 03 17 02 04 30.0000000  0  6 04 05 09 12 13 24
 -18084963.49349 -14092161.42848         0.00041  20589574.15648  20589572.70949
 -15230308.92048 -11867758.53746         0.00041  22343872.36646  22343870.14648
 -22244711.79049 -17333529.17247         0.00041  20953425.90147  20953424.16849
 -20369216.78808 -15872102.73908  20886538.88108  20886542.70308         0.00001
 -12385608.35208  -9651109.07508  20944461.68708  20944465.01208         0.00001
 -10925046.79549  -8513016.07047         0.00041  21031446.97047  21031443.86149
 94 03 17 02 05 00.0000000  0  7 04 05 07 09 12 13 24
 -18080825.55349 -14088937.04648         0.00041  20590361.45748  20590360.10349
 -15307005.30248 -11927521.90746         0.00041  22329277.17046  22329274.91348
        -0.34257         0.56954         0.00051  23240479.14754  23240476.44857
 -22236393.04449 -17327047.02647         0.00041  20955009.22147  20955007.26249
 -20402779.39808 -15898255.39508  20880152.14708  20880155.89908         0.00001
 -12340733.70208  -9616141.81608  20953001.05908  20953004.40408         0.00001
 -10984843.76849  -8559611.07647         0.00041  21020068.27147  21020065.12049
 94 03 17 02 05 30.0000000  0  7 04 05 07 09 12 13 24
 -18076108.16349 -14085261.14648         0.00041  20591259.66248  20591258.06849
 -15383615.88848 -11987218.41146         0.00041  22314698.17146  22314695.94648
     74631.90047     58155.59244         0.00041  23254684.40744  23254676.41547
 -22227472.29749 -17320095.78747         0.00041  20956707.04147  20956705.12349
 -20435820.68208 -15924001.82608  20873864.53108  20873868.40008         0.00001
 -12295552.87108  -9580935.96908  20961598.71008  20961601.98208         0.00001
 -11044154.81749  -8605827.43047         0.00041  21008781.63647  21008778.84449
 94 03 17 02 06 00.0000000  0  7 04 05 07 09 12 13 24
 -18070825.36849 -14081144.66948         0.00041  20592264.60948  20592263.27249
 -15460125.14248 -12046835.95746         0.00041  22300140.86846  22300137.56848
    149279.92947    116322.70744         0.00041  23268894.07344  23268880.38547
 -22217952.42049 -17312677.69047         0.00041  20958518.54547  20958516.14349
 -20468345.49208 -15949345.81108  20867675.29608  20867679.04308         0.00001
 -12250074.92508  -9545498.60408  20970252.74408  20970256.00608         0.00001
 -11102980.49849  -8651665.58047         0.00041  20997587.54947  20997584.83649
 94 03 17 02 06 30.0000000  0  7 04 05 07 09 12 13 24
 -18064972.64449 -14076584.09148         0.00041  20593378.27848  20593376.77049
 -15536511.53248 -12106357.76246         0.00041  22285603.34546  22285600.77048
    223943.91147    174502.47144         0.00041  23283088.05544  23283088.49147
 -22207836.62549 -17304795.24047         0.00041  20960443.21847  20960441.50449
 -20500343.19108 -15974279.05708  20861586.29308  20861590.10208         0.00001
 -12204293.31408  -9509824.61008  20978964.76808  20978967.93808         0.00001
 -11161324.68849  -8697128.54047         0.00041  20986484.34947  20986482.07949
 94 03 17 02 07 00.0000000  0  7 04 05 07 09 12 13 24
 -18058540.01349 -14071571.64248         0.00041  20594602.46248  20594601.10449
 -15612764.87248 -12165775.90446         0.00041  22271092.35046  22271090.18748
    298628.62648    232698.38544         0.00041  23297319.32244  23297303.86848
 -22197113.40549 -17296439.47447         0.00041  20962483.77747  20962481.65349
 -20531807.78008 -15998796.89408  20855598.81208  20855602.54808         0.00001
 -12158206.22108  -9473912.58308  20987734.83108  20987738.08008         0.00001
 -11219186.36849  -8742215.51947         0.00041  20975473.79447  20975471.38649
 94 03 17 02 07 30.0000000  0  7 04 05 07 09 12 13 24
 -18051542.19349 -14066118.77548         0.00041  20595934.02648  20595932.73749
 -15688909.71148 -12225109.48746         0.00041  22256601.60846  22256599.59648
    373310.43647    290892.47644         0.00041  23311512.34644  23311514.05447
 -22185798.16449 -17287622.39647         0.00041  20964636.99347  20964635.40349
 -20562758.20708 -16022914.09008  20849709.14508  20849712.83008         0.00001
 -12111836.73608  -9437780.50708  20996558.75108  20996561.83908         0.00001
 -11276564.22049  -8786925.49447         0.00041  20964555.34047  20964552.29549
 94 03 17 02 08 00.0000000  0  7 04 05 07 09 12 13 24
 -18044034.89749 -14060268.91548         0.00041  20597362.55548  20597361.15549
 -15765023.02448 -12284418.51846         0.00041  22242118.26646  22242116.22348
    447927.52347    349036.01744         0.00041  23325709.70844  23325713.27547
 -22173982.09349 -17278415.06547         0.00041  20966885.20147  20966883.31749
 -20593264.08508 -16046684.88508  20843904.04508  20843907.63708         0.00001
 -12065258.75208  -9401485.96208  21005422.13908  21005425.36508         0.00001
 -11333540.58049  -8831322.61247         0.00041  20953712.68047  20953710.38449
 94 03 17 02 08 30.0000000  0  7 04 05 07 09 12 13 24
 -18035905.64149 -14053934.41548         0.00041  20598909.33348  20598908.45749
 -15841025.83848 -12343641.44346         0.00041  22227656.17346  22227653.41248
    522597.63548    407220.01344         0.00041  23339921.85044  23339925.09448
 -22161565.34249 -17268739.67047         0.00041  20969248.21247  20969246.62849
 -20623222.12408 -16070028.79208  20838203.25208  20838206.82308         0.00001
 -12018372.85808  -9364951.49508  21014344.17108  21014347.40308         0.00001
 -11390026.39849  -8875337.49847         0.00041  20942964.00147  20942961.21549
 94 03 17 02 09 00.0000000  0  7 04 05 07 09 12 13 24
 -18027157.00449 -14047117.28148         0.00041  20600574.61748  20600572.79149
 -15916918.87448 -12402778.81946         0.00041  22213213.56646  22213210.97848
    597318.28348    465443.86244         0.00041  23354144.16444  23354142.52048
 -22148543.52449 -17258592.79347         0.00041  20971726.02747  20971724.16849
 -20652628.35508 -16092942.72008  20832607.31608  20832610.92708         0.00001
 -11971179.10808  -9328177.12808  21023324.84308  21023328.06508         0.00001
 -11446014.47649  -8918964.52547         0.00041  20932309.99247  20932307.31249
 94 03 17 02 09 30.0000000  0  7 04 05 07 09 12 13 24
 -18017802.78349 -14039828.25948         0.00041  20602354.52548  20602353.13249
 -15992702.25748 -12461830.76846         0.00041  22198792.60446  22198790.17448
    672084.12448    523703.10944         0.00041  23368358.03644  23368367.51948
 -22134938.75349 -17247991.66447         0.00041  20974314.93247  20974313.04249
 -20681488.39808 -16115431.04808  20827115.43208  20827119.03208         0.00001
 -11923687.28008  -9291170.49708  21032362.24508  21032365.60708         0.00001
 -11501514.13149  -8962210.96947         0.00041  20921748.41547  20921745.69449
 94 03 17 02 10 00.0000000  0  7 04 05 07 09 12 13 24
 -18007831.86749 -14032058.69648         0.00041  20604251.71648  20604250.27349
 -16068361.05748 -12520785.63246         0.00041  22184395.72946  22184393.68448
    746902.76748    582003.05444         0.00041  23382599.83444  23382606.03648
 -22120748.77949 -17236934.54047         0.00041  20977015.68147  20977013.88249
 -20709796.25208 -16137489.09608  20821728.57008  20821732.26708         0.00001
 -11875895.39908  -9253930.06008  21041456.77908  21041460.07108         0.00001
 -11556528.28249  -9005079.09447         0.00041  20911279.78747  20911277.22349
 94 03 17 02 10 30.0000000  0  7 04 05 07 09 12 13 24
 -17997313.17849 -14023862.29748         0.00041  20606253.17748  20606252.20049
 -16143928.01948 -12579668.93546         0.00041  22170015.26446  22170013.05848
    821717.35848    640300.24244         0.00041  23396849.91244  23396843.74248
 -22106024.46849 -17225461.04647         0.00041  20979817.00547  20979815.13349
 -20737597.07108 -16159152.05308  20816438.21808  20816441.89708         0.00001
 -11827852.55608  -9216494.06108  21050598.96008  21050602.21708         0.00001
 -11611087.00749  -9047592.34947         0.00041  20900897.41247  20900894.72549
 94 03 17 02 11 00.0000000  0  7 04 05 07 09 12 13 24
 -17986224.42749 -14015221.68948         0.00041  20608363.51948  20608361.93349
 -16219338.24448 -12638430.10646         0.00041  22155664.14646  22155662.60048
    896556.72048    698616.68644         0.00041  23411077.99844  23411084.66248
 -22090747.84549 -17213557.17947         0.00041  20982724.26747  20982722.65549
 -20764853.35508 -16180390.69908  20811251.49008  20811255.16808         0.00001
 -11779525.31008  -9178836.45408  21059795.28508  21059798.62208         0.00001
 -11665141.09149  -9089712.36747         0.00041  20890611.43947  20890608.44549
 94 03 17 02 11 30.0000000  0  7 04 05 07 09 12 13 24
 -17974572.69249 -14006142.39048         0.00041  20610581.07848  20610579.73149
 -16294609.70548 -12697083.14746         0.00041  22141341.03046  22141338.98148
    971415.19747    756947.90344         0.00041  23425334.59144  23425327.42347
 -22074933.83549 -17201234.57147         0.00041  20985733.44347  20985731.64849
 -20791578.31608 -16201215.32408  20806165.90508  20806169.64708         0.00001
 -11730930.72708  -9140970.53608  21069042.56908  21069045.87308         0.00001
 -11718695.19749  -9131442.79647         0.00041  20880420.25247  20880417.50349
 94 03 17 02 12 00.0000000  0  7 04 05 07 09 12 13 24
 -17962364.18949 -13996629.24447         0.00041  20612903.82247  20612902.15649
 -16369756.63248 -12755639.16346         0.00041  22127042.30246  22127039.45848
   1046292.73447    815293.68144         0.00041  23439581.20744  23439577.24547
 -22058575.65449 -17188487.93747         0.00041  20988846.78047  20988844.78349
 -20817771.16908 -16221625.32108  20801181.56508  20801185.23108         0.00001
 -11682072.13008  -9102898.88408  21078340.06108  21078343.32208         0.00001
 -11771744.59749  -9172779.95147         0.00041  20870325.30147  20870322.60449
 94 03 17 02 12 30.0000000  0  8 04 05 07 09 12 13 20 24
 -17949493.50449 -13986600.11648         0.00041  20615353.15548  20615351.99949
 -16444667.43348 -12814011.17246         0.00041  22112786.30746  22112783.91248
   1121313.77847    873750.96044         0.00041  23453856.17544  23453852.03347
 -22041554.11949 -17175224.39947         0.00041  20992085.38347  20992083.76749
 -20843307.67708 -16241523.88008  20796322.09208  20796325.81708         0.00001
 -11632829.03308  -9064527.62308  21087710.64408  21087713.90808         0.00001
        -0.87457        -0.03654         0.00051  25211935.70554  25211934.93557
 -11824171.16249  -9213631.78547         0.00041  20860348.65847  20860346.04249
 94 03 17 02 13 00.0000000  0  8 04 05 07 09 12 13 20 24
 -17936085.79749 -13976152.52447         0.00041  20617904.62147  20617903.21949
 -16519476.52948 -12872303.93446         0.00041  22098550.25646  22098548.49748
   1196362.96148    932230.30744         0.00041  23468136.40644  23468134.69748
 -22023971.10549 -17161523.34647         0.00041  20995431.37647  20995429.72849
 -20868313.43208 -16261008.86808  20791563.71408  20791567.34708         0.00001
 -11583331.01908  -9025957.73008  21097129.87708  21097133.08208         0.00001
    -95672.00447    -74548.88544         0.00041  25193729.94844  25193727.95347
 -11876109.01049  -9254102.79847         0.00041  20850465.42347  20850462.57049
 94 03 17 02 13 30.0000000  0  7 04 05 07 09 12 13 24
 -17922178.61349 -13965315.72747         0.00041  20620550.91947  20620549.32549
 -16594240.56048 -12930561.57846         0.00041  22084323.11346  22084320.95148
   1271402.78548    990702.50344         0.00041  23482409.68644  23482413.39048
 -22005849.85249 -17147402.88047         0.00041  20998879.69447  20998877.99349
 -20892829.07208 -16280111.94608  20786898.56108  20786902.26708         0.00001
 -11533622.58508  -8987223.87108  21106589.11208  21106592.26308         0.00001
 -11927605.37049  -9294229.79047         0.00041  20840666.17747  20840663.13649
 94 03 17 02 14 00.0000000  0  7 04 05 07 09 12 13 24
 -17907849.04249 -13954149.79947         0.00041  20623277.69947  20623276.35449
 -16669020.03448 -12988831.25746         0.00041  22070094.16146  22070091.18448
   1346354.77948   1049106.63144         0.00041  23496674.17044  23496678.27348
 -21987260.91949 -17132917.98847         0.00041  21002417.23247  21002415.18449
 -20916921.81308 -16298885.49608  20782313.84208  20782317.48608         0.00001
 -11483774.71808  -8948381.35508  21116074.83008  21116077.92108         0.00001
 -11978740.56149  -9334075.34947         0.00041  20830934.95047  20830932.24749
 94 03 17 02 14 30.0000000  0  7 04 05 07 09 12 13 24
 -17892922.34349 -13942518.57847         0.00041  20626118.15447  20626116.64549
 -16743630.52248 -13046969.25446         0.00041  22055894.63746  22055892.54748
   1421373.60848   1107562.69444         0.00041  23510963.04744  23510955.34548
 -21968039.36749 -17117940.14847         0.00041  21006074.79647  21006072.76949
 -20940420.46208 -16317196.11508  20777842.19508  20777845.84808         0.00001
 -11433620.06908  -8909299.79508  21125618.87408  21125621.98208         0.00001
 -12029348.63249  -9373510.16747         0.00041  20821304.81047  20821302.18449
 94 03 17 02 15 00.0000000  0  8 04 05 07 09 12 13 20 24
 -17877333.36049 -13930371.29247         0.00041  20629084.75247  20629083.13949
 -16818009.99148 -13104927.23446         0.00041  22041742.57846  22041739.97148
   1496500.70148   1166103.39244         0.00041  23525244.87544  23525249.46748
 -21948138.02049 -17102432.59547         0.00041  21009862.15947  21009860.34749
 -20963268.84308 -16335000.03008  20773494.33008  20773497.98008         0.00001
 -11383106.55908  -8869938.60208  21135231.29708  21135234.32208         0.00001
        -0.92557        -0.24454         0.00051  25120702.88054  25120704.60657
 -12079376.56049  -9412492.92647         0.00041  20811784.45247  20811781.91249
 94 03 17 02 15 30.0000000  0  8 04 05 07 09 12 13 20 24
 -17861200.88049 -13917800.50047         0.00041  20632154.81947  20632153.23549
 -16892293.13348 -13162810.15746         0.00041  22027605.60446  22027603.10648
   1571588.68548   1224613.55344         0.00041  23539536.31044  23539536.42348
 -21927706.11849 -17086511.61647         0.00041  21013749.95147  21013748.02749
 -20985595.28908 -16352397.24508  20769245.77708  20769249.37608         0.00001
 -11332366.07808  -8830400.54808  21144886.85708  21144889.92208         0.00001
    -96048.89447    -74842.51344         0.00041  25102425.13944  25102428.74847
 -12128954.63649  -9451125.15247         0.00041  20802350.20047  20802347.47749
 94 03 17 02 16 00.0000000  0  8 04 05 07 09 12 13 20 24
 -17844515.89849 -13904799.18947         0.00041  20635329.37447  20635328.04449
 -16966468.27048 -13220608.90546         0.00041  22013491.39046  22013488.55748
   1646644.80048   1283098.83044         0.00041  23553825.45144  23553824.19148
 -21906744.78249 -17070178.09547         0.00041  21017738.73447  21017736.81449
 -21007386.71708 -16369377.56008  20765098.95208  20765102.55508         0.00001
 -11281389.22208  -8790678.30608  21154587.31908  21154590.56308         0.00001
   -192174.63647   -149745.71144         0.00041  25084141.30144  25084134.80747
 -12178065.22249  -9489393.09647         0.00041  20793004.54347  20793001.84849
 94 03 17 02 16 30.0000000  0  7 04 05 07 09 12 13 24
 -17827253.66149 -13891348.07047         0.00041  20638614.32347  20638613.10249
 -17040509.84848 -13278303.59146         0.00041  21999401.22046  21999399.29348
   1721694.85748   1341579.44744         0.00041  23568109.08044  23568104.41748
 -21885225.35549 -17053409.69947         0.00041  21021833.76647  21021831.88949
 -21028621.79508 -16385924.35908  20761058.05908  20761061.66308         0.00001
 -11230158.57608  -8750758.31208  21164336.12708  21164339.39408         0.00001
 -12226672.70749  -9527269.01347         0.00041  20783754.89847  20783752.53049
 94 03 17 02 17 00.0000000  0  7 04 05 07 09 12 13 24
 -17809466.22049 -13877487.69747         0.00041  20641999.06547  20641997.42749
 -17114468.82648 -13335933.90846         0.00041  21985326.98946  21985324.41048
   1796701.54148   1400026.27444         0.00041  23582371.04044  23582374.24848
 -21863204.73649 -17036250.76347         0.00041  21026023.82647  21026022.19449
 -21049354.84308 -16402079.96008  20757112.60308  20757116.26308         0.00001
 -11178731.99408  -8710685.63308  21174122.20808  21174125.47108         0.00001
 -12274827.88249  -9564792.47747         0.00041  20774591.38947  20774588.84049
 94 03 17 02 17 30.0000000  0  7 04 05 07 09 12 13 24
 -17791099.06149 -13863175.59948         0.00041  20645494.13048  20645493.17549
 -17188285.11248 -13393453.03046         0.00041  21971280.08746  21971277.57248
   1871729.25348   1458489.43044         0.00041  23596657.53444  23596654.63048
 -21840622.84249 -17018654.46947         0.00041  21030320.93347  21030319.41049
 -21069534.89808 -16417804.65908  20753272.45508  20753276.07708         0.00001
 -11127062.34808  -8670423.55908  21183954.58208  21183957.98308         0.00001
 -12322478.05449  -9601922.43947         0.00041  20765523.35247  20765521.15549
 94 03 17 02 18 00.0000000  0  7 04 05 07 09 12 13 24
 -17772077.92249 -13848353.90848         0.00041  20649113.70448  20649112.57449
 -17261861.13948 -13450784.94546         0.00041  21957278.82746  21957277.03848
   1946866.75248   1517038.14944         0.00041  23610954.28744  23610952.67348
 -21817401.89049 -17000560.21247         0.00041  21034739.95647  21034738.42349
 -21089081.80508 -16433035.99608  20749552.73108  20749556.40708         0.00001
 -11075073.08208  -8629912.43008  21193847.82808  21193851.22408         0.00001
 -12369541.64249  -9638595.32647         0.00041  20756567.45847  20756565.00849
 94 03 17 02 18 30.0000000  0  7 04 05 07 09 12 13 24
 -17752435.34649 -13833047.97848         0.00041  20652851.79348  20652850.49949
 -17335216.80148 -13507945.14746         0.00041  21943319.26146  21943317.33448
   2022081.49948   1575647.05344         0.00041  23625262.74844  23625264.67848
 -21793565.43949 -16981986.34747         0.00041  21039275.57047  21039273.88949
 -21108021.90108 -16447794.49108  20745948.55608  20745952.17908         0.00001
 -11022794.29208  -8589175.69708  21203796.17908  21203799.51608         0.00001
 -12416054.48949  -9674839.05847         0.00041  20747716.56447  20747714.10949
 94 03 17 02 19 00.0000000  0  7 04 05 07 09 12 13 24
 -17732285.91749 -13817347.09748         0.00041  20656685.91948  20656684.63449
 -17408490.53448 -13565041.50846         0.00041  21929375.71346  21929373.91248
   2097250.42948   1634220.22344         0.00041  23639569.78944  23639570.34748
 -21769240.39849 -16963031.76147         0.00041  21043905.10447  21043903.40049
 -21126467.70708 -16462167.82808  20742438.28908  20742442.02908         0.00001
 -10970341.93608  -8548303.71808  21213777.58508  21213780.87608         0.00001
 -12462138.13049  -9710748.34447         0.00041  20738947.27647  20738944.75549
 94 03 17 02 19 30.0000000  0  8 04 05 07 09 12 13 20 24
 -17711471.68649 -13801128.19548         0.00041  20660646.66648  20660645.66049
 -17481534.10648 -13621958.51846         0.00041  21915477.03846  21915475.20048
   2172531.75448   1692881.01544         0.00041  23653897.19144  23653895.22448
 -21744252.41949 -16943560.60047         0.00041  21048660.00147  21048658.09749
 -21144245.52908 -16476020.65408  20739055.32608  20739058.99708         0.00001
 -10917546.09308  -8507164.08308  21223824.35708  21223827.58008         0.00001
        -0.41057         0.56554         0.00051  24955803.71454  24955798.65657
 -12507612.75749  -9746183.07547         0.00041  20730293.42147  20730291.07749
 94 03 17 02 20 00.0000000  0  8 04 05 07 09 12 13 20 24
 -17690116.72949 -13784487.94648         0.00041  20664710.44648  20664709.24349
 -17554461.62848 -13678785.10346         0.00041  21901597.65846  21901596.04548
   2247814.43948   1751542.84544         0.00041  23668221.58744  23668222.10048
 -21718700.53449 -16923650.03947         0.00041  21053522.83747  21053520.61049
 -21161454.69508 -16489430.37808  20735780.49908  20735784.17908         0.00001
 -10864509.46308  -8465836.82608  21233916.81008  21233920.13108         0.00001
    -96460.24947    -75162.93944         0.00041  24937445.60244  24937444.75147
 -12552567.93449  -9781213.04247         0.00041  20721738.86447  20721736.24049
 94 03 17 02 20 30.0000000  0  8 04 05 07 09 12 13 20 24
 -17668269.13849 -13767463.83148         0.00041  20668868.12248  20668866.84849
 -17627331.06948 -13735566.42646         0.00041  21887732.96546  21887730.71148
   2323043.14748   1810162.66844         0.00041  23682541.94744  23682537.63148
 -21692628.95449 -16903334.51947         0.00041  21058483.41547  21058481.88049
 -21178144.12208 -16502435.11108  20732604.65808  20732608.20008         0.00001
 -10811284.64208  -8424362.92408  21244045.28508  21244048.43508         0.00001
   -193016.19147   -150401.35044         0.00041  24919073.16444  24919068.24247
 -12597051.01649  -9815875.15047         0.00041  20713273.72947  20713271.09749
 94 03 17 02 21 00.0000000  0  7 04 05 07 09 12 13 24
 -17645980.89849 -13750096.35448         0.00041  20673109.33448  20673107.89249
 -17700182.69048 -13792333.86746         0.00041  21873868.25546  21873865.95448
   2398177.94148   1868709.24844         0.00041  23696833.99444  23696834.59448
 -21666085.33549 -16882651.17347         0.00041  21063534.81347  21063533.21449
 -21194360.40808 -16515071.16408  20729518.84708  20729522.32608         0.00001
 -10757921.42108  -8382781.17608  21254199.91608  21254203.06708         0.00001
 -12641099.37649  -9850198.50547         0.00041  20704891.81447  20704889.02349
 94 03 17 02 21 30.0000000  0  7 04 05 07 09 12 13 24
 -17623240.17849 -13732376.29048         0.00041  20677436.63448  20677435.49249
 -17772955.40849 -13849039.81946         0.00041  21860021.25746  21860019.43549
   2473251.47148   1927208.08244         0.00041  23711122.84044  23711120.53748
 -21639049.37649 -16861584.18947         0.00041  21068679.36347  21068677.84149
 -21210080.43208 -16527320.52008  20726527.44608  20726530.90508         0.00001
 -10704400.37508  -8341076.45108  21264384.55908  21264387.78108         0.00001
 -12684685.55749  -9884161.72647         0.00041  20696597.67747  20696595.12649
 94 03 17 02 22 00.0000000  0  7 04 05 07 09 12 13 24
 -17599824.84249 -13714130.55948         0.00041  20681892.58948  20681891.14149
 -17845407.74448 -13905496.13346         0.00041  21846232.98146  21846230.83548
   2548481.59848   1985829.03544         0.00041  23725438.26244  23725437.95148
 -21611311.31949 -16839970.11747         0.00041  21073957.64947  21073955.96149
 -21225090.24708 -16539016.46508  20723671.13808  20723674.65808         0.00001
 -10650511.14008  -8299084.82308  21274639.34608  21274642.53008         0.00001
 -12727604.63049  -9917605.12247         0.00041  20688430.24047  20688428.01249
 94 03 17 02 22 30.0000000  0  8 04 05 07 09 12 13 20 24
 -17575769.23449 -13695385.91048         0.00041  20686470.09848  20686468.73749
 -17917579.00548 -13961733.42846         0.00041  21832499.64946  21832497.43848
   2623825.84548   2044538.86045         0.00041  23739775.03445  23739775.48748
 -21582934.97249 -16817858.67647         0.00041  21079358.06847  21079356.13349
 -21239440.84608 -16550198.73508  20720940.31808  20720943.85508         0.00001
 -10596308.07208  -8256848.64308  21284953.91908  21284957.04708         0.00001
        -0.55758        -0.29954         0.00051  24845448.24354  24845443.49058
 -12769909.16949  -9950569.66547         0.00041  20680380.06747  20680377.58049
 94 03 17 02 23 00.0000000  0  8 04 05 07 09 12 13 20 24
 -17551261.84049 -13676289.21948         0.00041  20691133.62948  20691132.06349
 -17989662.89148 -14017902.64546         0.00041  21818783.16946  21818780.79348
   2699101.50148   2103195.22144         0.00041  23754098.28244  23754097.61548
 -21554114.10749 -16795400.85047         0.00041  21084842.30647  21084840.12249
 -21253317.40508 -16561011.61908  20718299.65008  20718303.26308         0.00001
 -10541979.86508  -8214514.95508  21295292.12808  21295295.26208         0.00001
    -96823.24148    -75446.52344         0.00041  24827023.34444  24827017.37248
 -12811775.84049  -9983193.00347         0.00041  20672412.90147  20672410.22749
 94 03 17 02 23 30.0000000  0  8 04 05 07 09 12 13 20 24
 -17526249.24749 -13656798.87548         0.00041  20695893.20948  20695892.15249
 -18061630.21048 -14073981.03046         0.00041  21805087.18946  21805084.59848
   2774341.94548   2161824.17144         0.00041  23768413.02944  23768415.12948
 -21524814.14749 -16772569.70147         0.00041  21090418.07447  21090416.00549
 -21266683.61908 -16571426.83208  20715756.07808  20715759.71908         0.00001
 -10487493.22508  -8172057.81608  21305660.58908  21305663.64208         0.00001
   -193751.41747   -150974.81344         0.00041  24808566.44244  24808570.38447
 -12853170.03949 -10015448.18747         0.00041  20664535.66247  20664533.18949
 94 03 17 02 24 00.0000000  0  8 04 05 07 09 12 13 20 24
 -17500648.02849 -13636849.85148         0.00041  20700764.83648  20700763.44849
 -18133416.52048 -14129918.36846         0.00041  21791427.28946  21791424.99148
   2849612.79548   2220476.82144         0.00041  23782737.80744  23782740.13448
 -21494937.72649 -16749289.36147         0.00041  21096103.20247  21096100.93549
 -21279462.29808 -16581384.22908  20713324.40008  20713328.02308         0.00001
 -10432774.60308  -8129419.90608  21316073.24908  21316076.28308         0.00001
   -290708.23647   -226525.49544         0.00041  24790122.94744  24790117.34347
 -12894014.37449 -10047274.90647         0.00041  20656763.37047  20656760.99949
 94 03 17 02 24 30.0000000  0  8 04 05 07 09 12 13 20 24
 -17474484.14349 -13616462.38748         0.00041  20705744.11548  20705742.54949
 -18205040.76848 -14185729.42247         0.00041  21777797.28447  21777794.88848
   2924889.42348   2279133.91844         0.00041  23797059.91344  23797063.00748
 -21464501.63249 -16725572.92347         0.00041  21101894.77147  21101892.77149
 -21291669.02608 -16590895.94708  20711001.52708  20711005.17808         0.00001
 -10377842.84908  -8086615.92208  21326526.40208  21326529.53508         0.00001
   -387709.21148   -302110.51644         0.00041  24771663.71344  24771660.82848
 -12934313.16549 -10078676.52347         0.00041  20649095.02547  20649092.30649
 94 03 17 02 25 00.0000000  0  8 04 05 07 09 12 13 20 24
 -17447759.07249 -13595637.63748         0.00041  20710829.36448  20710828.33649
 -18276499.08648 -14241411.19147         0.00041  21764199.30047  21764196.93448
   3000172.79248   2337796.26944         0.00041  23811389.52144  23811388.79848
 -21433501.43049 -16701416.91547         0.00041  21107794.29047  21107792.31049
 -21303298.18808 -16599957.61408  20708788.57308  20708792.12008         0.00001
 -10322695.62508  -8043644.04408  21337020.54708  21337023.72508         0.00001
   -484748.56847   -377725.38144         0.00041  24753194.06044  24753194.48447
 -12974069.18049 -10109655.19547         0.00041  20641529.13547  20641526.87449
 94 03 17 02 25 30.0000000  0  8 04 05 07 09 12 13 20 24
 -17420502.63049 -13574398.82947         0.00041  20716016.22847  20716014.55649
 -18347791.07648 -14296963.34747         0.00041  21750632.47647  21750630.35548
   3075438.29648   2396444.69444         0.00041  23825712.69644  23825711.54848
 -21401957.02949 -16676836.85547         0.00041  21113796.41747  21113794.56249
 -21314363.51408 -16608579.92808  20706682.86308  20706686.50708         0.00001
 -10267349.84008  -8000517.43808  21347552.32108  21347555.61808         0.00001
   -581839.81447   -453380.91444         0.00041  24734717.74144  24734718.14647
 -13013305.57349 -10140228.96747         0.00041  20634063.23947  20634060.66849
 94 03 17 02 26 00.0000000  0  8 04 05 07 09 12 13 20 24
 -17392719.01649 -13552749.24147         0.00041  20721303.48047  20721301.97649
 -18418916.29949 -14352385.57047         0.00041  21737098.47347  21737096.35049
   3150685.29548   2455078.78944         0.00041  23840037.84544  23840029.94548
 -21369869.78349 -16651833.79947         0.00041  21119902.83347  21119900.82049
 -21324858.67408 -16616757.95708  20704685.72008  20704689.25508         0.00001
 -10211802.34308  -7957233.66308  21358122.62508  21358125.81108         0.00001
   -678976.28347   -529071.53544         0.00041  24716232.33044  24716233.34747
 -13052023.07649 -10170398.40847         0.00041  20626695.36047  20626692.98349
 94 03 17 02 26 30.0000000  0  8 04 05 07 09 12 13 20 24
 -17364383.07449 -13530669.26547         0.00041  20726695.36147  20726693.96749
 -18489863.12948 -14407668.77847         0.00041  21723597.37647  21723594.97248
   3225944.28248   2513722.17445         0.00041  23854350.44145  23854353.35048
 -21337257.22549 -16626421.41047         0.00041  21126108.69047  21126106.61549
 -21334764.81208 -16624477.01008  20702800.61708  20702804.17108         0.00001
 -10156037.70008  -7913780.68408  21368734.43908  21368737.33108         0.00001
   -776139.18847   -604782.85144         0.00041  24697742.70444  24697744.14047
 -13090219.70849 -10200161.97847         0.00041  20619426.53447  20619424.20349
 94 03 17 02 27 00.0000000  0  8 04 05 07 09 12 13 20 24
 -17335490.34249 -13508155.42747         0.00041  20732193.48947  20732191.91449
 -18560640.61248 -14462820.02547         0.00041  21710128.69247  21710126.55748
   3301221.29148   2572379.60744         0.00041  23868677.02144  23868676.66648
 -21304123.52549 -16600602.93947         0.00041  21132413.74147  21132411.81349
 -21344078.37808 -16631734.32108  20701028.24508  20701031.87108         0.00001
 -10100055.30308  -7870158.01808  21379387.53508  21379390.40608         0.00001
   -873324.31748   -680511.51144         0.00041  24679251.86044  24679253.48948
 -13127910.95049 -10229531.73747         0.00041  20612254.01047  20612251.42149
 94 03 17 02 27 30.0000000  0  8 04 05 07 09 12 13 20 24
 -17306040.88949 -13485207.78147         0.00041  20737797.46647  20737796.27249
 -18631250.49948 -14517840.67747         0.00041  21696691.29147  21696689.42048
   3376516.93748   2631051.56845         0.00041  23883007.82445  23883004.02848
 -21270452.56049 -16574365.81347         0.00041  21138821.47047  21138819.24549
 -21352792.21208 -16638524.30408  20699370.03808  20699373.62508         0.00001
 -10043851.29908  -7826362.68608  21390082.61108  21390085.78908         0.00001
   -970524.69348   -756252.05444         0.00041  24660755.61244  24660758.00848
 -13165096.94249 -10258507.79447         0.00041  20605177.59547  20605175.53749
 94 03 17 02 28 00.0000000  0  8 04 05 07 09 12 13 20 24
 -17276041.13549 -13461831.32147         0.00041  20743506.41247  20743504.71749
 -18701717.60749 -14572750.07547         0.00041  21683283.06347  21683280.84149
   3451834.73248   2689740.78344         0.00041  23897344.06444  23897336.93748
 -21236250.93049 -16547715.18547         0.00041  21145329.29847  21145327.71849
 -21360924.95808 -16644861.49208  20697822.43208  20697826.03408         0.00001
  -9987447.31708  -7782411.52108  21400815.95308  21400819.09208         0.00001
  -1067758.36848   -832018.52144         0.00041  24642259.57144  24642254.85448
 -13201800.57449 -10287107.98447         0.00041  20598193.07047  20598191.25449
 94 03 17 02 28 30.0000000  0  8 04 05 07 09 12 13 20 24
 -17245508.84249 -13438039.90247         0.00041  20749316.18247  20749315.01349
 -18772028.85449 -14627538.02747         0.00041  21669902.85347  21669900.54449
   3527177.52548   2748449.48844         0.00041  23911677.58744  23911676.05448
 -21201511.83449 -16520645.74947         0.00041  21151939.95147  21151938.41049
 -21368475.00408 -16650744.63008  20696385.69808  20696389.31008         0.00001
  -9930844.82308  -7738305.66608  21411587.06808  21411590.08008         0.00001
  -1165023.53848   -907809.45944         0.00041  24623747.41544  24623745.82348
 -13238011.36249 -10315324.14947         0.00041  20591302.57347  20591300.10249
 94 03 17 02 29 00.0000000  0  8 04 05 07 09 12 13 20 24
 -17214458.21549 -13413844.58447         0.00041  20755224.88947  20755223.75249
 -18842175.17349 -14682197.45247         0.00041  21656553.97947  21656552.25349
   3602543.32648   2807176.06844         0.00041  23926018.83144  23926016.91848
 -21166199.73049 -16493129.82447         0.00041  21158659.57547  21158658.15549
 -21375427.93608 -16656162.48808  20695062.67908  20695066.14208         0.00001
  -9874032.52108  -7694036.32408  21422398.05008  21422401.12308         0.00001
  -1262305.40848   -983613.46844         0.00041  24605234.01644  24605234.08448
 -13273696.99749 -10343131.09847         0.00041  20584511.89547  20584509.34549
 94 03 17 02 29 30.0000000  0  8 04 05 07 09 12 13 20 24
 -17182886.48449 -13389243.21447         0.00041  20761232.91147  20761231.41549
 -18912140.85649 -14736716.12147         0.00041  21643240.26647  21643238.72149
   3677933.70448   2865921.82644         0.00041  23940361.88244  23940361.80848
 -21130308.09449 -16465162.31247         0.00041  21165489.51647  21165488.05049
 -21381783.73908 -16661115.04908  20693853.18808  20693856.66008         0.00001
  -9817013.56108  -7649605.95308  21433248.44008  21433251.47008         0.00001
  -1359603.32548  -1059430.06344         0.00041  24586717.79144  24586716.38048
 -13308848.43749 -10370521.79447         0.00041  20577822.62947  20577820.44849
 94 03 17 02 30 00.0000000  0  8 04 05 07 09 12 13 20 24
 -17150792.75649 -13364235.08647         0.00041  20767339.80247  20767338.85349
 -18981917.79049 -14791087.71847         0.00041  21629962.05147  21629959.84849
   3753330.49348   2924672.60844         0.00041  23954710.36544  23954708.99648
 -21093868.03149 -16436767.45147         0.00041  21172423.65547  21172421.90749
 -21387546.68708 -16665605.65108  20692756.49708  20692759.92808         0.00001
  -9759795.01208  -7605020.05208  21444136.72808  21444139.92308         0.00001
  -1456921.18248  -1135262.20944         0.00041  24568202.81944  24568197.78948
 -13343454.61049 -10397487.60947         0.00041  20571236.91247  20571234.80149
 94 03 17 02 30 30.0000000  0  8 04 05 07 09 12 13 20 24
 -17118197.20549 -13338835.93547         0.00041  20773542.75247  20773541.53049
 -19051506.48649 -14845312.62547         0.00041  21616719.34547  21616717.35549
   3828699.99048   2983402.08544         0.00041  23969055.51244  23969052.96548
 -21056903.30649 -16407963.75347         0.00041  21179458.19047  21179456.46649
 -21392723.18608 -16669639.27408  20691771.44508  20691774.93108         0.00001
  -9702386.02308  -7560285.75808  21455061.24908  21455064.53508         0.00001
  -1554264.97848  -1211114.50844         0.00041  24549680.98244  24549674.51548
 -13377521.90249 -10424033.51247         0.00041  20564754.44047  20564752.13449
 94 03 17 02 31 00.0000000  0  8 04 05 07 09 12 13 20 24
 -17085082.98149 -13313032.62247         0.00041  20779844.07047  20779843.00449
 -19120909.63349 -14899392.95147         0.00041  21603513.38247  21603511.65549
   3904045.83048   3042113.11844         0.00041  23983396.10044  23983389.68648
 -21019421.63649 -16378757.24347         0.00041  21186590.75647  21186588.60849
 -21397315.65808 -16673217.81008  20690897.51208  20690900.96408         0.00001
  -9644792.43308  -7515407.61908  21466020.96308  21466024.21508         0.00001
  -1651636.49548  -1286988.44244         0.00041  24531147.43744  24531143.99548
 -13411062.01449 -10450168.62447         0.00041  20558371.77147  20558369.62949
 94 03 17 02 31 30.0000000  0  8 04 05 07 09 12 13 20 24
 -17051411.82649 -13286795.33547         0.00041  20786251.14447  20786250.18649
 -19190092.52049 -14953301.64447         0.00041  21590347.33247  21590345.84049
   3979398.75748   3100829.69544         0.00041  23997729.88744  23997728.19848
 -20981425.78749 -16349150.08047         0.00041  21193821.12847  21193819.22049
 -21401307.17008 -16676328.06708  20690137.97708  20690141.45408         0.00001
  -9587000.00208  -7470374.53708  21477018.54308  21477021.67808         0.00001
  -1749018.31848  -1362870.35745         0.00041  24512615.91245  24512612.50348
 -13444060.14449 -10475881.41847         0.00041  20552092.43847  20552090.32649
 94 03 17 02 32 00.0000000  0  8 04 05 07 09 12 13 20 24
 -17017210.55349 -13260144.96947         0.00041  20792759.70347  20792758.57149
 -19259068.79949 -15007049.33847         0.00041  21577220.40747  21577218.87849
   4054752.12348   3159546.62144         0.00041  24012072.61544  24012069.12748
 -20942931.86849 -16319154.81447         0.00041  21201146.21247  21201144.59349
 -21404711.71208 -16678980.93908  20689490.08808  20689493.62208         0.00001
  -9529025.55808  -7425199.63408  21488050.65408  21488053.81308         0.00001
  -1846423.80748  -1438770.68845         0.00041  24494083.19645  24494078.13448
 -13476522.08449 -10501176.40247         0.00041  20545915.16847  20545912.88849
 94 03 17 02 32 30.0000000  0  8 04 05 07 09 12 13 20 24
 -16982489.26649 -13233089.39747         0.00041  20799367.05547  20799366.02949
 -19327837.68949 -15060635.43747         0.00041  21564135.93247  21564134.31849
   4130125.50448   3218279.16744         0.00041  24026414.37544  24026411.83148
 -20903911.72149 -16288749.49547         0.00041  21208571.42647  21208569.66649
 -21407529.17108 -16681176.34108  20688953.84108  20688957.40708         0.00001
  -9470871.57308  -7379884.82008  21499116.93308  21499120.07108         0.00001
  -1943852.30948  -1514688.90645         0.00041  24475540.82545  24475539.81748
 -13508453.11049 -10526057.68547         0.00041  20539839.12847  20539836.70149
 94 03 17 02 33 00.0000000  0  8 04 05 07 09 12 13 20 24
 -16947238.42749 -13205621.18847         0.00041  20806075.22247  20806074.07949
 -19396395.18349 -15114056.81347         0.00041  21551088.32847  21551086.71649
   4205533.02048   3277038.27644         0.00041  24040763.03644  24040759.38248
 -20864354.62749 -16257925.76747         0.00041  21216099.06247  21216097.08149
 -21409755.87308 -16682911.41308  20688530.08008  20688533.69708         0.00001
  -9412537.41308  -7334429.61408  21510217.60608  21510220.71908         0.00001
  -2041299.43548  -1590621.59845         0.00041  24457001.26645  24456996.15848
 -13539834.11649 -10550510.38747         0.00041  20533867.30547  20533864.95749
 94 03 17 02 33 30.0000000  0  8 04 05 07 09 12 13 20 24
 -16911476.91949 -13177755.05647         0.00041  20812880.30747  20812879.00849
 -19464750.19849 -15167320.41247         0.00041  21538081.92247  21538079.84149
   4280947.74248   3335803.00944         0.00041  24055114.12344  24055111.17248
 -20824266.46849 -16226688.23047         0.00041  21223727.42447  21223725.52049
 -21411399.73708 -16684192.32508  20688217.32208  20688220.86508         0.00001
  -9354033.88208  -7288842.42308  21521350.62608  21521353.61808         0.00001
  -2138772.63948  -1666574.60345         0.00041  24438450.17745  24438447.80148
 -13570668.55849 -10574537.19147         0.00041  20527999.46247  20527997.23249
 94 03 17 02 34 00.0000000  0  8 04 05 07 09 12 13 20 24
 -16875225.26749 -13149506.99847         0.00041  20819778.62347  20819777.38249
 -19532909.46449 -15220431.49347         0.00041  21525111.45347  21525109.75849
   4356361.66848   3394567.08845         0.00041  24069465.72345  24069463.24648
 -20783624.39849 -16195019.07547         0.00041  21231461.07447  21231459.26049
 -21412462.24308 -16685020.23508  20688015.08408  20688018.63108         0.00001
  -9295364.84108  -7243126.26808  21532514.91308  21532517.95408         0.00001
  -2236272.33448  -1742548.26645         0.00041  24419896.14345  24419894.14448
 -13600965.79449 -10598145.39547         0.00041  20522233.89647  20522231.95849
 94 03 17 02 34 30.0000000  0  8 04 05 07 09 12 13 20 24
 -16838504.91249 -13120893.71647         0.00041  20826766.26347  20826765.15149
 -19600904.30849 -15273414.45047         0.00041  21512171.94747  21512170.70049
   4431740.87948   3453304.20444         0.00041  24083805.95544  24083806.88648
 -20742459.24149 -16162942.31847         0.00041  21239294.57247  21239292.99549
 -21412963.84108 -16685411.07308  20687919.65308  20687923.18508         0.00001
  -9236553.84708  -7197299.51408  21543706.24708  21543709.30908         0.00001
  -2333818.23048  -1818557.89145         0.00041  24401336.25345  24401331.96648
 -13630754.86049 -10621357.61947         0.00041  20516565.57647  20516563.30149
 94 03 17 02 35 00.0000000  0  8 04 05 07 09 12 13 20 24
 -16801284.24249 -13091890.58147         0.00041  20833849.43847  20833848.19449
 -19668715.73749 -15326254.48347         0.00041  21499268.32147  21499266.56249
   4507097.86848   3512023.94244         0.00041  24098146.54344  24098144.68048
 -20700770.38249 -16130457.48347         0.00041  21247227.77647  21247226.33949
 -21412882.07408 -16685347.34108  20687935.14808  20687938.74508         0.00001
  -9177580.94708  -7151346.59508  21554928.33608  21554931.33808         0.00001
  -2431387.09148  -1894585.39545         0.00041  24382765.42645  24382763.78548
 -13660010.95549 -10644154.54347         0.00041  20510998.34847  20510996.00949
 94 03 17 02 35 30.0000000  0  8 04 05 07 09 12 13 20 24
 -16763526.79849 -13062469.17447         0.00041  20841033.78847  20841032.76449
 -19736304.88349 -15378921.31947         0.00041  21486406.46147  21486404.06449
   4582476.97148   3570760.89644         0.00041  24112484.40044  24112487.67548
 -20658528.68849 -16097541.86447         0.00041  21255265.73747  21255264.63549
 -21412176.01808 -16684797.14808  20688069.47608  20688073.07008         0.00001
  -9118407.76108  -7105237.60608  21566188.60408  21566191.44508         0.00001
  -2528937.10648  -1970598.22445         0.00041  24364204.33545  24364198.42348
 -13688704.65949 -10666513.24447         0.00041  20505538.21647  20505535.87449
 94 03 17 02 36 00.0000000  0  8 04 05 07 09 12 13 20 24
 -16725268.68549 -13032657.64247         0.00041  20848314.42947  20848313.23349
 -19803708.39949 -15431443.50747         0.00041  21473580.35247  21473578.28049
   4657862.13848   3629502.55444         0.00041  24126832.65844  24126834.59048
 -20615787.59249 -16064237.10647         0.00041  21263399.54947  21263398.05849
 -21410883.26908 -16683789.79308  20688315.51808  20688319.09808         0.00001
  -9059074.66408  -7059004.00308  21577479.23308  21577482.17008         0.00001
  -2626505.24748  -2046625.20145         0.00041  24345634.72745  24345632.06648
 -13716865.46549 -10688456.69848         0.00041  20500179.24848  20500176.87849
 94 03 17 02 36 30.0000000  0  8 04 05 07 09 12 13 20 24
 -16686490.64049 -13002440.97047         0.00041  20855693.62647  20855692.35649
 -19870915.54249 -15483812.67347         0.00041  21460790.26747  21460788.92749
   4733251.64448   3688247.69444         0.00041  24141183.97044  24141180.55148
 -20572570.14349 -16030561.16547         0.00041  21271623.17047  21271621.91749
 -21409000.47808 -16682322.66808  20688673.81508  20688677.27108         0.00001
  -8999580.70008  -7012645.06408  21588800.41908  21588803.61508         0.00001
  -2724087.41448  -2122663.10645         0.00041  24327066.91845  24327063.64748
 -13744487.21949 -10709980.11048         0.00041  20494923.22948  20494921.06049
 94 03 17 02 37 00.0000000  0  8 04 05 07 09 12 13 20 24
 -16647178.35349 -12971807.99847         0.00041  20863174.53847  20863173.10649
 -19937899.46849 -15536007.91047         0.00041  21448044.14647  21448042.43849
   4808677.20648   3747020.94144         0.00041  24155540.72944  24155533.00148
 -20528860.49949 -15996501.69547         0.00041  21279940.79147  21279939.71849
 -21406512.69208 -16680384.12208  20689147.20708  20689150.67608         0.00001
  -8939913.55408  -6966151.18208  21600154.82108  21600157.92908         0.00001
  -2821667.53648  -2198699.43945         0.00041  24308498.66945  24308494.96048
 -13771559.08549 -10731075.04248         0.00041  20489771.15648  20489769.16149
 94 03 17 02 37 30.0000000  0  8 04 05 07 09 12 13 20 24
 -16607362.57549 -12940782.70147         0.00041  20870751.04847  20870749.76249
 -20004660.31049 -15588029.32047         0.00041  21435340.38047  21435338.26549
   4884133.24447   3805817.87744         0.00041  24169898.70844  24169889.80347
 -20484662.90049 -15962061.98947         0.00041  21288351.60747  21288350.15649
 -21403428.32608 -16677980.70808  20689734.07008  20689737.59408         0.00001
  -8880084.04608  -6919530.77108  21611539.98308  21611543.08408         0.00001
  -2919253.19748  -2274740.09045         0.00041  24289929.26345  24289925.93948
 -13798097.91149 -10751754.61047         0.00041  20484720.90847  20484718.75249
 94 03 17 02 38 00.0000000  0  7 04 05 09 12 13 20 24
 -16567093.79649 -12909404.41347         0.00041  20878413.88547  20878412.90849
 -20071246.26949 -15639914.45747         0.00041  21422669.14647  21422666.96249
 -20440012.44349 -15927269.41847         0.00041  21296848.11447  21296846.75849
 -21399799.11008 -16675152.73708  20690424.74808  20690428.23908         0.00001
  -8820146.29208  -6872826.02208  21622945.68908  21622948.98208         0.00001
  -3016895.00348  -2350824.48845         0.00041  24271346.29645  24271344.54448
 -13824159.49549 -10772062.30647         0.00041  20479761.71047  20479759.63949
 94 03 17 02 38 30.0000000  0  7 04 05 09 12 13 20 24
 -16526390.63849 -12877687.65347         0.00041  20886159.57347  20886158.15549
 -20137669.18749 -15691672.54547         0.00041  21410029.53047  21410027.89349
 -20394910.01949 -15892124.67047         0.00041  21305430.91447  21305429.54349
 -21395631.95908 -16671905.59608  20691217.76108  20691221.23808         0.00001
  -8760109.91608  -6826044.42808  21634370.15608  21634373.51408         0.00001
  -3114598.70048  -2426957.17845         0.00041  24252753.38245  24252752.28748
 -13849764.03149 -10792013.86247         0.00041  20474889.19947  20474886.86749
 94 03 17 02 39 00.0000000  0  7 04 05 09 12 13 20 24
 -16485131.14949 -12845537.38347         0.00041  20894010.88247  20894009.63249
 -20203799.24949 -15743202.43647         0.00041  21397444.47347  21397442.82049
 -20349225.77649 -15856526.55647         0.00041  21314124.13747  21314122.85949
 -21390795.80108 -16668137.15508  20692138.05608  20692141.53108         0.00001
  -8699846.14108  -6779085.64108  21645838.12008  21645841.29208         0.00001
  -3212232.26948  -2503035.21145         0.00041  24234175.57745  24234173.37448
 -13874775.76349 -10811503.49847         0.00041  20470129.45347  20470127.40249
 94 03 17 02 39 30.0000000  0  7 04 05 09 12 13 20 24
 -16443335.11849 -12812969.02947         0.00041  20901964.70547  20901963.62549
 -20269673.85749 -15794533.27047         0.00041  21384908.92247  21384907.21249
 -20302993.59049 -15820501.47147         0.00041  21322921.90947  21322921.04749
 -21385323.33408 -16663872.89008  20693179.37008  20693182.86608         0.00001
  -8639390.14408  -6731977.06208  21657342.53408  21657345.68108         0.00001
  -3309827.38348  -2579083.28445         0.00041  24215604.53445  24215603.56348
 -13899220.98349 -10830551.69747         0.00041  20465477.83547  20465475.55049
 94 03 17 02 40 00.0000000  0  7 04 05 09 12 13 20 24
 -16401008.06349 -12779986.89347         0.00041  20910018.92447  20910017.72449
 -20335318.75749 -15845685.11247         0.00041  21372417.50447  21372415.83949
 -20256239.05749 -15784069.35747         0.00041  21331818.99347  21331817.95549
 -21379236.99708 -16659130.28608  20694337.57108  20694341.03708         0.00001
  -8578766.31208  -6684737.70508  21668878.85208  21668881.92008         0.00001
  -3407405.37148  -2655118.05645         0.00041  24197036.04445  24197033.02248
 -13923122.16349 -10849175.96447         0.00041  20460929.67747  20460927.08349
 94 03 17 02 40 30.0000000  0  7 04 05 09 12 13 20 24
 -16358176.18749 -12746611.39047         0.00041  20918169.56847  20918168.27049
 -20400741.52449 -15896663.86747         0.00041  21359968.07347  21359966.53049
 -20208993.18949 -15747254.39747         0.00041  21340809.47247  21340808.07849
 -21372551.83708 -16653921.06908  20695609.61108  20695613.15508         0.00001
  -8517992.35008  -6637381.36308  21680443.90608  21680446.75708         0.00001
  -3504979.91348  -2731150.09345         0.00041  24178468.75645  24178463.40248
 -13946493.25849 -10867387.17847         0.00041  20456481.98647  20456479.87449
 94 03 17 02 41 00.0000000  0  7 04 05 09 12 13 20 24
 -16314842.04049 -12712844.50947         0.00041  20926416.01447  20926414.70649
 -20465934.95849 -15947463.92147         0.00041  21347561.99347  21347560.23849
 -20161254.51448 -15710055.43547         0.00041  21349894.48347  21349892.51048
 -21365271.79308 -16648248.30208  20696995.02108  20696998.49708         0.00001
  -8457074.36508  -6589912.79508  21692036.25308  21692039.09908         0.00001
  -3602553.81248  -2807181.66045         0.00041  24159898.60245  24159893.74948
 -13969331.00149 -10885182.79947         0.00041  20452135.94347  20452133.98049
 94 03 17 02 41 30.0000000  0  7 04 05 09 12 13 20 24
 -16271024.11749 -12678700.65647         0.00041  20934753.82947  20934752.41149
 -20530910.15349 -15998093.92047         0.00041  21335197.65347  21335195.96749
 -20113017.10448 -15672467.84747         0.00041  21359073.62947  21359071.20748
 -21357404.69608 -16642118.08908  20698491.99808  20698495.61008         0.00001
  -8396022.29308  -6542339.74408  21703654.03608  21703656.97008         0.00001
  -3700133.18748  -2883217.49145         0.00041  24141326.90545  24141323.21948
 -13991654.67049 -10902577.83447         0.00041  20447888.07647  20447886.04349
 94 03 17 02 42 00.0000000  0  7 04 05 09 12 13 20 24
 -16226721.92149 -12644179.44947         0.00041  20943184.70347  20943183.46649
 -20595647.06849 -16048538.24347         0.00041  21322878.24047  21322876.77449
 -20064271.82749 -15634484.51347         0.00041  21368348.90547  21368347.50249
 -21348936.46408 -16635519.45708  20700103.53308  20700107.08308         0.00001
  -8334824.38708  -6494653.05208  21715299.52308  21715302.53708         0.00001
  -3797702.98348  -2959245.87545         0.00041  24122765.73445  24122759.25348
 -14013449.62049 -10919560.87847         0.00041  20443740.49147  20443738.59049
 94 03 17 02 42 30.0000000  0  7 04 05 09 12 13 20 24
 -16181953.59249 -12609295.02147         0.00041  20951703.45347  20951702.18949
 -20660145.81149 -16098796.97947         0.00041  21310605.28647  21310603.52549
 -20015036.00649 -15596118.93347         0.00041  21377718.86547  21377717.40449
 -21339872.25708 -16628456.42908  20701828.37208  20701831.95108         0.00001
  -8273487.83508  -6446858.32608  21726971.40508  21726974.41708         0.00001
  -3895266.97748  -3035269.74945         0.00041  24104201.69345  24104196.34548
 -14034708.45849 -10936126.18047         0.00041  20439694.91547  20439693.12549
 94 03 17 02 43 00.0000000  0  7 04 05 09 12 13 20 24
 -16136704.78749 -12574036.19647         0.00041  20960314.26047  20960313.22749
 -20724406.71749 -16148870.38547         0.00041  21298375.97147  21298374.60849
 -19965310.97749 -15557372.15047         0.00041  21387180.68847  21387179.06249
 -21330210.86908 -16620928.06708  20703666.87908  20703670.39708         0.00001
  -8212013.66508  -6398956.36208  21738669.62308  21738672.60708         0.00001
  -3992822.68948  -3111287.14445         0.00041  24085633.61745  24085631.25048
 -14055423.37349 -10952267.64447         0.00041  20435753.04647  20435750.93749
 94 03 17 02 43 30.0000000  0  7 04 05 09 12 13 20 24
 -16090964.71749 -12538394.56647         0.00041  20969017.88847  20969016.97449
 -20788430.43649 -16198758.97247         0.00041  21286193.45047  21286192.04049
 -19915110.77249 -15518255.11047         0.00041  21396733.59747  21396732.04949
 -21319950.10108 -16612932.65208  20705619.34308  20705622.94108         0.00001
  -8150401.75408  -6350947.06408  21750394.03908  21750396.99608         0.00001
  -4090366.25648  -3187295.07545         0.00041  24067074.38845  24067068.46448
 -14075591.51449 -10967983.05047         0.00041  20431915.35047  20431913.00949
 94 03 17 02 44 00.0000000  0  7 04 05 09 12 13 20 24
 -16044750.78149 -12502383.68947         0.00041  20977812.13147  20977811.28749
 -20852229.39849 -16248472.42147         0.00041  21274052.42147  21274050.30949
 -19864457.54349 -15478785.07047         0.00041  21406372.89847  21406371.31749
 -21309104.24008 -16604481.32308  20707683.31808  20707686.82708         0.00001
  -8088668.34108  -6302843.09408  21762141.43808  21762144.51908         0.00001
  -4187910.39848  -3263303.42045         0.00041  24048508.98845  24048505.69148
 -14095216.17249 -10983274.96347         0.00041  20428181.11947  20428178.84349
 94 03 17 02 44 30.0000000  0  7 04 05 09 12 13 20 24
 -15998044.30549 -12465989.02147         0.00041  20986700.24247  20986698.90649
 -20915783.77449 -16297995.27947         0.00041  21261958.73647  21261957.04149
 -19813318.75749 -15438936.66947         0.00041  21416103.64947  21416102.24449
 -21297649.05508 -16595555.19608  20709863.21508  20709866.65408         0.00001
  -8026791.16608  -6254627.10408  21773916.23808  21773919.16208         0.00001
  -4285429.66648  -3339292.36645         0.00041  24029949.60645  24029947.28748
 -14114279.59449 -10998129.54947         0.00041  20424553.14647  20424551.29749
 94 03 17 02 45 00.0000000  0  7 04 05 09 12 13 20 24
 -15950853.80649 -12429217.18847         0.00041  20995680.35447  20995679.51049
 -20979110.55549 -16347340.79447         0.00041  21249907.73147  21249906.26449
 -19761696.04949 -15398711.18347         0.00041  21425927.57047  21425926.42449
 -21285596.07708 -16586163.25508  20712156.85408  20712160.30308         0.00001
  -7964783.88108  -6206309.72208  21785715.85508  21785718.67308         0.00001
  -4382934.07448  -3415269.68345         0.00041  24011399.78145  24011395.30648
 -14132814.82149 -11012572.55547         0.00041  20421025.97347  20421023.97149
 94 03 17 02 45 30.0000000  0  7 04 05 09 12 13 20 24
 -15903197.19549 -12392082.15247         0.00041  21004748.94547  21004748.12149
 -21042212.77649 -16396511.32347         0.00041  21237899.73347  21237898.31349
 -19709589.01749 -15358108.30947         0.00041  21435843.56647  21435841.87049
 -21272943.70508 -16576304.25708  20714564.53608  20714567.90208         0.00001
  -7902646.86108  -6157891.25008  21797540.05308  21797542.95608         0.00001
  -4480420.55748  -3491233.05845         0.00041  23992847.07545  23992845.32148
 -14150829.85549 -11026610.21447         0.00041  20417598.19947  20417596.16949
 94 03 17 02 46 00.0000000  0  7 04 05 09 12 13 20 24
 -15855082.00049 -12354589.78047         0.00041  21013905.06147  21013904.11349
 -21105069.49749 -16445490.55547         0.00041  21225938.50447  21225937.36449
 -19656982.00949 -15317115.85047         0.00041  21445853.91847  21445852.37949
 -21259680.17008 -16565969.02508  20717088.42008  20717091.87208         0.00001
  -7840370.09008  -6109363.88508  21809390.84608  21809393.82808         0.00001
  -4577875.61948  -3567171.96645         0.00041  23974302.85245  23974300.31148
 -14168319.63049 -11040238.58947         0.00041  20414269.36747  20414267.35149
 94 03 17 02 46 30.0000000  0  7 04 05 09 12 13 20 24
 -15806507.96649 -12316739.87347         0.00041  21023148.46647  21023147.37049
 -21167679.87549 -16494277.82847         0.00041  21214024.12647  21214022.53549
 -19603897.98949 -15275751.68047         0.00041  21455956.01247  21455953.97649
 -21245813.88408 -16555164.11608  20719727.05108  20719730.47608         0.00001
  -7777964.01308  -6060735.76308  21821266.30008  21821269.34108         0.00001
  -4675306.30648  -3643091.87745         0.00041  23955760.29145  23955757.63248
 -14185297.81749 -11053468.32347         0.00041  20411039.03947  20411036.60849
 94 03 17 02 47 00.0000000  0  7 04 05 09 12 13 20 24
 -15757478.62949 -12278535.18747         0.00041  21032478.04747  21032476.86349
 -21230035.31149 -16542866.44547         0.00041  21202158.34147  21202156.59849
 -19550353.84149 -15234028.96747         0.00041  21466144.97947  21466143.02549
 -21231348.93408 -16543892.72008  20722479.58008  20722483.03908         0.00001
  -7715434.49008  -6012011.44708  21833165.23208  21833168.29808         0.00001
  -4772714.87048  -3718994.50545         0.00041  23937221.27445  23937219.63548
 -14201756.60349 -11066293.32747         0.00041  20407906.87347  20407904.95749
 94 03 17 02 47 30.0000000  0  7 04 05 09 12 13 20 24
 -15707986.03849 -12239969.51847         0.00041  21041896.41947  21041895.24849
 -21292113.69449 -16591239.17847         0.00041  21190345.06447  21190343.44049
 -19496333.67549 -15191935.32447         0.00041  21476424.98147  21476422.63649
 -21216274.06908 -16532146.06508  20725348.28208  20725351.66108         0.00001
  -7652772.12508  -5963183.61708  21845089.52108  21845092.55808         0.00001
  -4870088.44948  -3794869.88045         0.00041  23918697.06345  23918691.92548
 -14217661.41249 -11078686.66147         0.00041  20404880.39847  20404877.99849
 94 03 17 02 48 00.0000000  0  7 04 05 09 12 13 20 24
 -15658028.56649 -12201041.60247         0.00041  21051403.08747  21051402.14949
 -21353915.89249 -16639396.69947         0.00041  21178585.01947  21178583.22449
 -19441853.71348 -15149483.40447         0.00041  21486791.70447  21486789.70348
 -21200601.88408 -16519933.96708  20728330.58808  20728333.95408         0.00001
  -7589991.21508  -5914263.41508  21857036.26708  21857039.40908         0.00001
  -4967437.91148  -3870726.47745         0.00041  23900171.15245  23900167.73148
 -14233015.43649 -11090650.81447         0.00041  20401958.25247  20401956.36449
 94 03 17 02 48 30.0000000  0  7 04 05 09 12 13 20 24
 -15607590.52349 -12161739.22547         0.00041  21061001.08047  21060999.92549
 -21415446.52249 -16687342.60747         0.00041  21166875.59147  21166873.66449
 -19386909.17948 -15106669.48247         0.00041  21497247.79147  21497245.29648
 -21184333.80308 -16507257.53708  20731426.21608  20731429.66708         0.00001
  -7527094.90608  -5865253.29708  21869004.97608  21869008.12908         0.00001
  -5064762.59948  -3946563.77845         0.00041  23881649.09545  23881644.22248
 -14247812.77749 -11102181.18847         0.00041  20399142.40947  20399140.44949
 94 03 17 02 49 00.0000000  0  7 04 05 09 12 13 20 24
 -15556679.29249 -12122068.12247         0.00041  21070688.85347  21070688.11049
 -21476718.90949 -16735087.29147         0.00041  21155215.54547  21155213.98149
 -19331496.41848 -15063490.71746         0.00041  21507792.02446  21507789.18148
 -21167474.98008 -16494120.78408  20734634.34208  20734637.90508         0.00001
  -7464090.05408  -5816158.59608  21880994.47008  21880997.55808         0.00001
  -5162065.97048  -4022384.47745         0.00041  23863130.55945  23863128.54848
 -14262056.83249 -11113280.43147         0.00041  20396432.16547  20396429.91349
 94 03 17 02 49 30.0000000  0  7 04 05 09 12 13 20 24
 -15505298.80349 -12082031.36247         0.00041  21080466.58047  21080465.45549
 -21537742.21049 -16782637.87847         0.00041  21143603.24547  21143601.60249
 -19275621.82548 -15019952.07446         0.00041  21518424.58346  21518422.69248
 -21150028.83808 -16480526.38208  20737954.26708  20737957.74408         0.00001
  -7400981.71508  -5766983.25608  21893003.73308  21893006.68708         0.00001
  -5259349.91048  -4098190.04845         0.00041  23844618.20445  23844617.08848
 -14275757.14249 -11123955.97347         0.00041  20393824.81647  20393822.65049
 94 03 17 02 50 00.0000000  0  7 04 05 09 12 13 20 24
 -15453449.31449 -12041629.15547         0.00041  21090332.82347  21090331.87649
 -21598519.23049 -16829996.55947         0.00041  21132038.59247  21132036.97849
 -19219296.15248 -14976061.93547         0.00041  21529142.74347  21529141.23348
 -21131989.32208 -16466469.61308  20741387.11408  20741390.58808         0.00001
  -7337765.44208  -5717723.81908  21905033.41808  21905036.31608         0.00001
  -5356606.13648  -4173974.00645         0.00041  23826112.66845  23826109.48248
 -14288914.51849 -11134208.45347         0.00041  20391321.14047  20391318.86549
 94 03 17 02 50 30.0000000  0  7 04 05 09 12 13 20 24
 -15401159.39349 -12000883.74847         0.00041  21100283.64747  21100282.74949
 -21659059.06849 -16877170.42347         0.00041  21120516.96847  21120515.44549
 -19162517.55848 -14931818.87147         0.00041  21539947.07947  21539945.72748
 -21113360.58108 -16451953.70408  20744932.08108  20744935.44608         0.00001
  -7274446.91808  -5668384.70408  21917082.52408  21917085.41608         0.00001
  -5453836.92048  -4249738.15145         0.00041  23807611.70745  23807607.24748
 -14301534.07749 -11144041.85147         0.00041  20388919.60047  20388917.61349
 94 03 17 02 51 00.0000000  0  7 04 05 09 12 13 20 24
 -15348438.87049 -11959802.80447         0.00041  21110316.16647  21110314.45349
 -21719345.73049 -16924147.00947         0.00041  21109045.61947  21109044.12749
 -19105281.70248 -14887219.50847         0.00041  21550838.92247  21550837.45548
 -21094132.00308 -16436970.39508  20748591.06808  20748594.51208         0.00001
  -7211017.33508  -5618959.04308  21929152.68008  21929155.64308         0.00001
  -5551029.91748  -4325472.82945         0.00041  23789113.76545  23789113.88448
 -14313604.04149 -11153446.99647         0.00041  20386622.63247  20386620.67949
 94 03 17 02 51 30.0000000  0  7 04 05 09 12 13 20 24
 -15295305.76849 -11918400.37547         0.00041  21120426.82847  21120426.14149
 -21779360.38449 -16970911.64047         0.00041  21097625.30347  21097623.42549
 -19047594.02148 -14842268.07646         0.00041  21561816.17446  21561814.81248
 -21074306.70308 -16421522.10508  20752363.68408  20752367.13908         0.00001
  -7147481.14508  -5569450.31808  21941243.20808  21941246.21208         0.00001
  -5648186.01848  -4401178.84145         0.00041  23770627.40845  23770623.37348
 -14325120.20449 -11162420.60347         0.00041  20384431.22547  20384429.19049
 94 03 17 02 52 00.0000000  0  7 04 05 09 12 13 20 24
 -15241763.39249 -11876679.03247         0.00041  21130615.15847  21130614.28249
 -21839095.72249 -17017458.62547         0.00041  21086257.68247  21086255.90449
 -18989437.13348 -14796951.03046         0.00041  21572882.92746  21572881.76448
 -21053881.03608 -16405605.99808  20756250.58308  20756254.06608         0.00001
  -7083836.24508  -5519856.88408  21953354.55908  21953357.37408         0.00001
  -5745299.61348  -4476851.71645         0.00041  23752149.67445  23752142.89848
 -14336089.36049 -11170967.97447         0.00041  20382343.91147  20382341.94049
 94 03 17 02 52 30.0000000  0  7 04 05 09 12 13 20 24
 -15187817.17549 -11834643.01047         0.00041  21140881.10047  21140879.94349
 -21898551.36849 -17063787.67047         0.00041  21074943.21447  21074941.78849
 -18930814.88449 -14751271.35647         0.00041  21584038.60247  21584037.89849
 -21032864.98108 -16389229.84908  20760249.81208  20760253.27808         0.00001
  -7020093.92808  -5470187.53408  21965484.39008  21965487.09808         0.00001
  -5842378.76748  -4552497.72045         0.00041  23733677.45845  23733669.94048
 -14346533.78749 -11179106.46547         0.00041  20380356.22147  20380354.46349
 94 03 17 02 53 00.0000000  0  7 04 05 09 12 13 20 24
 -15133447.08449 -11792276.68847         0.00041  21151227.94247  21151226.76649
 -21957711.11949 -17109886.14747         0.00041  21063686.03747  21063684.54449
 -18871741.47649 -14705240.13047         0.00041  21595279.70347  21595279.04949
 -21011250.92208 -16372387.72308  20764362.94108  20764366.35408         0.00001
  -6956247.77708  -5420437.27808  21977633.79008  21977636.58808         0.00001
  -5939413.50448  -4628109.14945         0.00041  23715206.02945  23715203.49448
 -14356454.19549 -11186836.63047         0.00041  20378468.43547  20378466.44249
 94 03 17 02 53 30.0000000  0  7 04 05 09 12 13 20 24
 -15078635.62949 -11749566.44747         0.00041  21161657.91047  21161656.92249
 -22016577.18949 -17155755.78547         0.00041  21052483.78947  21052481.98749
 -18812223.21749 -14658862.27247         0.00041  21606606.20147  21606605.28949
 -20989034.08908 -16355075.90608  20768590.68008  20768594.13708         0.00001
  -6892294.75208  -5370603.74108  21989803.55908  21989806.38908         0.00001
  -6036397.14448  -4703680.73545         0.00041  23696749.31945  23696747.77548
 -14365858.90349 -11194164.95047         0.00041  20376678.81547  20376676.90949
 94 03 17 02 54 00.0000000  0  7 04 05 09 12 13 20 24
 -15023372.37649 -11706504.16447         0.00041  21172173.65247  21172172.75549
 -22075166.31049 -17201409.62647         0.00041  21041334.51347  21041333.15149
 -18752266.16748 -14612142.50647         0.00041  21618015.15547  21618014.39648
 -20966213.38108 -16337293.53808  20772933.19708  20772936.68908         0.00001
  -6828234.97008  -5320687.01608  22001993.70108  22001996.57508         0.00001
  -6133326.30648  -4779209.91945         0.00041  23678305.59345  23678303.69848
 -14374757.39949 -11201098.81847         0.00041  20374985.54747  20374983.78049
 94 03 17 02 54 30.0000000  0  7 04 05 09 12 13 20 24
 -14967657.48849 -11663089.96147         0.00041  21182776.11447  21182774.93049
 -22133470.19549 -17246841.19847         0.00041  21030239.80947  21030238.41649
 -18691900.96348 -14565104.69647         0.00041  21629502.69847  21629501.79948
 -20942787.52308 -16319039.62208  20777390.94808  20777394.43908         0.00001
  -6764068.47508  -5270687.14208  22014204.32308  22014207.15508         0.00001
  -6230197.66548  -4854694.02845         0.00041  23659873.51745  23659870.56348
 -14383133.45849 -11207625.59247         0.00041  20373391.56747  20373389.66249
 94 03 17 02 55 00.0000000  0  7 04 05 09 12 13 20 24
 -14911488.72149 -11619322.07547         0.00041  21193465.44447  21193464.10949
 -22191489.73649 -17292051.20547         0.00041  21019198.73347  21019197.83849
 -18631121.60048 -14517744.17947         0.00041  21641069.23147  21641067.24348
 -20918757.46908 -16300314.90708  20781963.76308  20781967.16308         0.00001
  -6699797.46608  -5220605.82308  22026434.77108  22026437.43808         0.00001
  -6327009.68148  -4930131.92945         0.00041  23641449.27345  23641446.61548
 -14390966.09849 -11213728.92647         0.00041  20371900.91747  20371898.94349
 94 03 17 02 55 30.0000000  0  7 04 05 09 12 13 20 24
 -14854873.86749 -11575206.59147         0.00041  21204238.04247  21204236.88849
 -22249227.37149 -17337041.55047         0.00041  21008211.84947  21008210.37149
 -18569904.35248 -14470042.43947         0.00041  21652717.64547  21652716.62448
 -20894124.49208 -16281120.38408  20786651.29008  20786654.67608         0.00001
  -6635424.35508  -5170444.94508  22038684.47808  22038687.23208         0.00001
  -6423761.55548  -5005522.96445         0.00041  23623041.74445  23623038.33248
 -14398246.54449 -11219401.98047         0.00041  20370515.60647  20370513.96049
 94 03 17 02 56 00.0000000  0  7 04 05 09 12 13 20 24
 -14797823.39149 -11530751.66747         0.00041  21215094.25447  21215093.25949
 -22306666.85749 -17381799.57147         0.00041  20997281.51947  20997279.88849
 -18508241.44248 -14421993.42146         0.00041  21664452.69646  21664450.41748
 -20868887.13408 -16261454.91308  20791453.92108  20791457.16608         0.00001
  -6570948.97608  -5120204.37808  22050953.67908  22050956.53508         0.00001
  -6520449.47048  -5080864.15545         0.00041  23604641.53545  23604636.25448
 -14404964.55649 -11224636.77447         0.00041  20369237.18847  20369235.13649
 94 03 17 02 56 30.0000000  0  7 04 05 09 12 13 20 24
 -14740348.58449 -11485966.09347         0.00041  21226031.40647  21226030.29249
 -22363826.15349 -17426339.26447         0.00041  20986404.24747  20986402.91949
 -18446139.19948 -14373602.06046         0.00041  21676270.70946  21676268.07348
 -20843063.87308 -16241332.89508  20796367.87608  20796371.19308         0.00001
  -6506390.74008  -5069899.24708  22063238.69008  22063241.69308         0.00001
  -6617089.27148  -5156167.86745         0.00041  23586249.57945  23586247.05448
 -14411134.98849 -11229444.88248         0.00041  20368062.98748  20368060.97849
 94 03 17 02 57 00.0000000  0  7 04 05 09 12 13 20 24
 -14682444.78149 -11440846.23247         0.00041  21237050.49547  21237049.52449
 -22420715.96849 -17470668.97847         0.00041  20975578.72647  20975577.12449
 -18383582.81348 -14324856.82546         0.00041  21688174.50546  21688171.60348
 -20816659.28808 -16220757.89408  20801392.39608  20801395.83408         0.00001
  -6441755.42508  -5019534.05808  22075538.27508  22075541.33608         0.00001
  -6713683.38448  -5231435.93645         0.00041  23567868.30245  23567865.82448
 -14416772.42349 -11233837.67447         0.00041  20366990.26447  20366988.41649
 94 03 17 02 57 30.0000000  0  7 04 05 09 12 13 20 24
 -14624114.60049 -11395394.13147         0.00041  21248149.82947  21248148.62649
 -22477331.74549 -17514785.15047         0.00041  20964804.90347  20964803.56649
 -18320595.35948 -14275775.69646         0.00041  21700160.81346  21700158.45048
 -20789669.65808 -16199727.00908  20806528.30808  20806531.80808         0.00001
  -6377040.41608  -4969106.77108  22087853.15908  22087856.00208         0.00001
  -6810225.50048  -5306663.54745         0.00041  23549497.20845  23549494.47448
 -14421897.44549 -11237831.18248         0.00041  20366014.90148  20366012.84349
 94 03 17 02 58 00.0000000  0  7 04 05 09 12 13 20 24
 -14565357.37549 -11349609.27647         0.00041  21259331.22747  21259329.86549
 -22533676.00349 -17558689.75447         0.00041  20954083.42447  20954081.67849
 -18257200.36348 -14226377.00146         0.00041  21712224.12646  21712222.27648
 -20762100.38808 -16178244.45708  20811774.49308  20811777.92508         0.00001
  -6312252.09208  -4918622.35908  22100181.91308  22100184.84908         0.00001
  -6906718.72548  -5381853.01545         0.00041  23531133.85445  23531132.76448
 -14426522.64649 -11241435.22048         0.00041  20365135.02748  20365132.93349
 94 03 17 02 58 30.0000000  0  7 04 05 09 12 13 20 24
 -14506162.52649 -11303483.41447         0.00041  21270595.90147  21270594.81549
 -22589744.84149 -17602379.74147         0.00041  20943413.64447  20943411.87749
 -18193400.72548 -14176662.99946         0.00041  21724365.42746  21724362.41748
 -20733943.63908 -16156304.13008  20817132.56708  20817136.06808         0.00001
  -6247383.79308  -4868075.63208  22112525.80608  22112529.02108         0.00001
  -7003152.73748  -5456996.34845         0.00041  23512782.75845  23512781.56848
 -14430641.68049 -11244644.84248         0.00041  20364350.85548  20364348.91849
 94 03 17 02 59 00.0000000  0  7 04 05 09 12 13 20 24
 -14446542.08249 -11257025.91847         0.00041  21281941.10947  21281940.09549
 -22645498.44749 -17645824.08847         0.00041  20932803.57747  20932802.09349
 -18129203.59748 -14126639.26946         0.00041  21736580.63246  21736579.32448
 -20705185.30308 -16133895.03508  20822605.15508  20822608.62308         0.00001
  -6182422.24708  -4817456.25008  22124887.64208  22124890.72508         0.00001
  -7099511.05748  -5532080.68545         0.00041  23494448.06545  23494446.14448
 -14434239.97149 -11247448.69248         0.00041  20363666.10648  20363664.30049
 94 03 17 02 59 30.0000000  0  7 04 05 09 12 13 20 24
 -14386515.81549 -11210252.19947         0.00041  21293363.60047  21293362.34349
 -22700932.65149 -17689019.55447         0.00041  20922255.62547  20922253.84949
 -18064614.49648 -14076310.10646         0.00041  21748871.51146  21748869.63948
 -20675830.21608 -16111020.93908  20828191.28908  20828194.77108         0.00001
  -6117373.14108  -4766768.63208  22137266.19608  22137269.15108         0.00001
  -7195795.55448  -5607107.50945         0.00041  23476125.01745  23476121.55948
 -14437321.03849 -11249849.50648         0.00041  20363079.80048  20363077.94849
 94 03 17 03 00 00.0000000  0  7 04 05 09 12 13 20 24
 -14326082.10649 -11163160.99447         0.00041  21304864.10347  21304862.86049
 -22756032.13049 -17731954.19547         0.00041  20911769.69047  20911768.30749
 -17999605.16848 -14025653.50446         0.00041  21761242.52746  21761240.92648
 -20645873.57808 -16087678.09908  20833891.87008  20833895.35308         0.00001
  -6052232.85208  -4716009.95808  22149661.93908  22149664.82108         0.00001
  -7291998.93848  -5682071.09845         0.00041  23457815.40145  23457815.50848
 -14439872.59449 -11251837.71548         0.00041  20362594.21548  20362592.21949
 94 03 17 03 00 30.0000000  0  7 04 05 09 12 13 20 24
 -14265259.87549 -11115767.04647         0.00041  21316437.99747  21316436.85549
 -22810796.51749 -17774627.72147         0.00041  20901348.91747  20901347.46749
 -17934171.15048 -13974665.95446         0.00041  21773694.41846  21773692.93848
 -20615320.65508 -16063870.62408  20839705.92108  20839709.36908         0.00001
  -5987007.13108  -4665184.72008  22162073.96808  22162076.81308         0.00001
  -7388123.81248  -5756973.54846         0.00041  23439525.18346  23439522.58748
 -14441895.72649 -11253414.16948         0.00041  20362209.28148  20362207.34149
 94 03 17 03 01 00.0000000  0  7 04 05 09 12 13 20 24
 -14204069.87449 -11068086.52347         0.00041  21328081.65547  21328080.95349
 -22865243.27149 -17817053.75047         0.00041  20890987.69147  20890986.19649
 -17868324.43148 -13923356.83146         0.00041  21786224.77546  21786223.02748
 -20584195.45108 -16039617.21608  20845628.86408  20845632.26708         0.00001
  -5921720.88608  -4614312.31408  22174497.55708  22174500.52508         0.00001
  -7484191.72248  -5831831.58245         0.00041  23421243.33945  23421240.89748
 -14443419.04949 -11254601.15748         0.00041  20361919.42948  20361917.75249
 94 03 17 03 01 30.0000000  0  7 04 05 09 12 13 20 24
 -14142470.88949 -11020087.31247         0.00041  21339803.59747  21339802.20949
 -22919364.43649 -17859226.06447         0.00041  20880688.92647  20880687.52149
 -17802034.81948 -13871702.59346         0.00041  21798838.76846  21798837.15048
 -20552476.12408 -16014900.86008  20851664.89208  20851668.31608         0.00001
  -5856353.23608  -4563376.47308  22186936.52308  22186939.58308         0.00001
  -7580178.12448  -5906626.11545         0.00041  23402979.09845  23402975.35048
 -14444426.27149 -11255385.98148         0.00041  20361727.52948  20361725.66449
 94 03 17 03 02 00.0000000  0  7 04 05 09 12 13 20 24
 -14080463.25349 -10971769.67047         0.00041  21351603.69147  21351602.60249
 -22973155.93149 -17901141.49747         0.00041  20870452.91147  20870451.24449
 -17735318.48248 -13819715.83746         0.00041  21811534.50446  21811533.05848
 -20520166.00908 -15989724.15108  20857813.36508  20857816.71208         0.00001
  -5790908.01108  -4512380.18908  22199390.39108  22199393.34808         0.00001
  -7676083.36248  -5981357.40845         0.00041  23384730.31445  23384724.66348
 -14444916.29549 -11255767.80348         0.00041  20361634.24048  20361632.59049
 94 03 17 03 02 30.0000000  0  7 04 05 09 12 13 20 24
 -14018059.67849 -10923143.50147         0.00041  21363478.09347  21363477.59749
 -23026634.49849 -17942813.08948         0.00041  20860275.92748  20860274.99049
 -17668202.31848 -13767417.53146         0.00041  21824306.43846  21824305.14148
 -20487271.46708 -15964092.04508  20864072.85808  20864076.33408         0.00001
  -5725392.43508  -4461329.08808  22211857.73408  22211860.55208         0.00001
  -7771911.23148  -6056028.40845         0.00041  23366495.11045  23366490.54348
 -14444886.38049 -11255744.47747         0.00041  20361640.01047  20361638.34349
 94 03 17 03 03 00.0000000  0  7 04 05 09 12 13 20 24
 -13955251.18749 -10874201.82047         0.00041  21375430.38147  21375429.28549
 -23079809.01149 -17984247.74848         0.00041  20850157.23648  20850155.87449
 -17600700.45448 -13714818.68846         0.00041  21837151.21646  21837150.30748
 -20453794.38808 -15938006.01608  20870443.33608  20870446.80908         0.00001
  -5659808.88708  -4410225.01808  22224337.80508  22224340.65008         0.00001
  -7867660.53748  -6130638.17446         0.00041  23348272.79546  23348269.79748
 -14444342.75249 -11255320.84847         0.00041  20361743.21547  20361741.39249
 94 03 17 03 03 30.0000000  0  7 04 05 09 12 13 20 24
 -13892058.91349 -10824961.08847         0.00041  21387455.65047  21387454.46149
 -23132682.05949 -18025447.50148         0.00041  20840095.80548  20840094.69349
 -17532826.43148 -13661929.86246         0.00041  21850067.16546  21850066.72748
 -20419740.56708 -15911470.57508  20876923.55508  20876927.06208         0.00001
  -5594163.90808  -4359073.08908  22236829.57108  22236832.48508         0.00001
  -7963334.54548  -6205189.31646         0.00041  23330067.61146  23330065.97448
 -14443278.32749 -11254491.40647         0.00041  20361946.03847  20361944.16949
 94 03 17 03 04 00.0000000  0  7 04 05 09 12 13 20 24
 -13828495.36949 -10775431.04447         0.00041  21399551.72247  21399550.70649
 -23185249.34949 -18066408.99748         0.00041  20830092.34348  20830091.29849
 -17464573.12048 -13608745.47546         0.00041  21863055.42646  21863054.56148
 -20385108.48308 -15884484.53908  20883513.76208  20883517.23808         0.00001
  -5528456.70408  -4307872.67008  22249333.24208  22249336.14808         0.00001
  -8058928.59448  -6279678.10646         0.00041  23311872.92046  23311872.77848
 -14441680.82849 -11253246.58747         0.00041  20362250.00147  20362248.30449
 94 03 17 03 04 30.0000000  0  7 04 05 09 12 13 20 24
 -13764547.22749 -10725601.32047         0.00041  21411720.03547  21411719.26449
 -23237504.55149 -18107127.31048         0.00041  20820148.55448  20820147.15549
 -17395921.92048 -13555251.05946         0.00041  21876119.72146  21876117.84048
 -20349886.81208 -15857039.08408  20890216.25408  20890219.77708         0.00001
  -5462676.19508  -4256615.12808  22261850.83008  22261853.74908         0.00001
  -8154428.57348  -6354093.58746         0.00041  23293702.47946  23293700.53148
 -14439540.11849 -11251578.48347         0.00041  20362657.15747  20362655.13549
 94 03 17 03 05 00.0000000  0  7 04 05 09 12 13 20 24
 -13700210.59749 -10675468.87947         0.00041  21423963.16847  21423962.26949
 -23289432.82049 -18147590.87148         0.00041  20810266.91848  20810265.51949
 -17326873.64148 -13501447.21046         0.00041  21889259.03146  21889257.92248
 -20314081.42608 -15829138.78508  20897029.79808  20897033.27708         0.00001
  -5396829.06308  -4205305.66908  22274381.18608  22274384.07808         0.00001
  -8249837.51848  -6428438.15746         0.00041  23275547.53246  23275545.31148
 -14436867.39549 -11249495.82848         0.00041  20363166.12448  20363164.30949
 94 03 17 03 05 30.0000000  0  7 04 05 09 12 13 20 24
 -13635503.73649 -10625047.94947         0.00041  21436276.21247  21436275.34749
 -23341031.07949 -18187797.28248         0.00041  20800448.82548  20800447.33149
 -17257437.28648 -13447340.96146         0.00041  21902472.94146  21902470.91148
 -20277701.20308 -15800790.56408  20903952.75308  20903956.19508         0.00001
  -5330924.32508  -4153951.31308  22286922.52008  22286925.23708         0.00001
  -8345160.87848  -6502716.05646         0.00041  23257408.88746  23257405.25148
 -14433663.19949 -11246999.03848         0.00041  20363775.70448  20363773.75449
 94 03 17 03 06 00.0000000  0  7 04 05 09 12 13 20 24
 -13570400.17149 -10574317.89547         0.00041  21448665.48447  21448664.54349
 -23392286.08449 -18227736.22448         0.00041  20790694.19348  20790692.62649
 -17187604.12548 -13392925.50846         0.00041  21915761.23446  21915759.63048
 -20240733.34708 -15771984.44708  20910987.44908  20910990.95408         0.00001
  -5264949.95308  -4102542.69408  22299476.88008  22299479.69608         0.00001
  -8440382.92748  -6576914.98346         0.00041  23239286.43546  23239284.19648
 -14429928.03949 -11244088.50948         0.00041  20364486.61048  20364484.54849
 94 03 17 03 06 30.0000000  0  7 04 05 09 12 13 20 24
 -13504912.28949 -10523288.36647         0.00041  21461127.19847  21461126.37949
 -23443200.63349 -18267409.87548         0.00041  20781005.80148  20781004.42849
 -17117408.93048 -13338227.95346         0.00041  21929118.49046  21929117.03148
 -20203193.22808 -15742732.41508  20918131.09808  20918134.59208         0.00001
  -5198921.39608  -4051091.85408  22312041.57008  22312044.43708         0.00001
  -8535516.17948  -6651044.71946         0.00041  23221183.99446  23221181.29548
 -14425685.47049 -11240782.59748         0.00041  20365293.62648  20365291.97649
 94 03 17 03 07 00.0000000  0  7 04 05 09 12 13 20 24
 -13439056.35349 -10471972.06147         0.00041  21473659.36647  21473658.04749
 -23493772.96949 -18306816.86948         0.00041  20771382.65248  20771380.86649
 -17046866.55948 -13283259.88646         0.00041  21942543.17046  21942541.14248
 -20165084.42208 -15713037.24408  20925382.90608  20925386.51108         0.00001
  -5132843.14408  -3999602.30208  22324615.85608  22324618.84908         0.00001
  -8630561.32248  -6725105.83146         0.00041  23203097.84046  23203094.74948
 -14420936.73349 -11237082.26948         0.00041  20366197.59848  20366195.65849
 94 03 17 03 07 30.0000000  0  7 04 05 09 12 13 20 24
 -13372840.53549 -10420375.31047         0.00041  21486259.59847  21486258.48049
 -23544002.75849 -18345956.94548         0.00041  20761823.96948  20761822.47449
 -16975962.88848 -13228010.29146         0.00041  21956035.88946  21956033.76448
 -20126395.78808 -15682890.26408  20932745.23608  20932748.70608         0.00001
  -5066703.92608  -3948065.24808  22337201.75808  22337204.73408         0.00001
  -8725503.73848  -6799086.88046         0.00041  23185031.09046  23185028.40448
 -14415674.19049 -11232981.57148         0.00041  20367199.11248  20367197.11549
 94 03 17 03 08 00.0000000  0  7 04 05 09 12 13 20 24
 -13306270.00249 -10368502.16047         0.00041  21498927.16747  21498926.63349
 -23593891.85649 -18384831.55248         0.00041  20752330.24448  20752328.90049
 -16904694.39448 -13172476.41046         0.00041  21969597.31546  21969595.39548
 -20087128.63508 -15652292.49008  20940217.55008  20940220.99308         0.00001
  -5000505.46808  -3896482.04208  22349798.79208  22349801.88608         0.00001
  -8820341.75648  -6872986.58546         0.00041  23166982.67946  23166981.05748
 -14409898.11149 -11228480.71448         0.00041  20368297.98448  20368296.29549
 94 03 17 03 08 30.0000000  0  7 04 05 09 12 13 20 24
 -13239352.06649 -10316358.30247         0.00041  21511661.69847  21511660.70749
 -23643438.22849 -18423439.10848         0.00041  20742902.31348  20742901.05349
 -16833059.51848 -13116657.03446         0.00041  21983229.86846  21983227.38148
 -20047278.48808 -15621240.43408  20947800.85008  20947804.15908         0.00001
  -4934243.58208  -3844849.41208  22362408.17708  22362411.07508         0.00001
  -8915067.54148  -6946798.81946         0.00041  23148958.24646  23148955.41148
 -14403595.65149 -11223569.68848         0.00041  20369497.27548  20369495.41549
 94 03 17 03 09 00.0000000  0  7 04 05 09 12 13 20 24
 -13172090.77048 -10263946.89247         0.00041  21524460.92747  21524459.46648
 -23692655.84749 -18461790.48848         0.00041  20733536.03448  20733534.96649
 -16761050.43148 -13060546.06746         0.00041  21996932.52346  21996929.58648
 -20006851.08208 -15589738.57008  20955493.92808  20955497.28508         0.00001
  -4867924.28208  -3793172.03908  22375028.37108  22375031.11908         0.00001
  -9009683.79048  -7020525.71146         0.00041  23130953.39146  23130951.06748
 -14396770.21549 -11218251.15348         0.00041  20370796.10248  20370794.37649
 94 03 17 03 09 30.0000000  0  7 04 05 09 12 13 20 24
 -13104467.42149 -10211253.36347         0.00041  21537329.61847  21537328.20749
 -23741538.19049 -18499880.60648         0.00041  20724233.95648  20724232.76149
 -16688653.63348 -13004132.98846         0.00041  22010709.11146  22010706.00048
 -19965847.01608 -15557787.36208  20963296.73208  20963300.07308         0.00001
  -4801548.27408  -3741450.47308  22387659.34008  22387662.00108         0.00001
  -9104187.55948  -7094164.97046         0.00041  23112970.93146  23112967.87448
 -14389426.24849 -11212528.56248         0.00041  20372193.65648  20372191.60649
 94 03 17 03 10 00.0000000  0  7 04 05 09 12 13 20 24
 -13036462.71748 -10158262.68147         0.00041  21550270.00447  21550269.05848
 -23790070.54449 -18537698.00648         0.00041  20714999.04248  20714997.81749
 -16615875.72848 -12947422.92446         0.00041  22024558.13546  22024555.82448
 -19924265.85108 -15525386.46308  20971209.37308  20971212.61408         0.00001
  -4735115.29308  -3689684.50608  22400301.10608  22400303.77008         0.00001
  -9198575.27548  -7167713.79446         0.00041  23095006.66246  23095004.98448
 -14381569.17949 -11206406.15448         0.00041  20373688.65848  20373686.92849
 94 03 17 03 10 30.0000000  0  7 04 05 09 12 13 20 24
 -12968078.32449 -10104976.14147         0.00041  21563282.72447  21563282.05849
 -23838255.39849 -18575244.63048         0.00041  20705829.20348  20705827.65049
 -16542739.83148 -12890433.92146         0.00041  22038475.69846  22038473.16148
 -19882120.86108 -15492546.22108  20979229.16108  20979232.64508         0.00001
  -4668638.85108  -3637884.66808  22412951.15208  22412953.98508         0.00001
  -9292857.03748  -7241180.04546         0.00041  23077066.47246  23077063.56148
 -14373227.66149 -11199906.25248         0.00041  20375275.89048  20375274.32649
 94 03 17 03 11 00.0000000  0  7 04 05 09 12 13 20 24
 -12899301.68849 -10051383.94846         0.00041  21576371.14946  21576370.11449
 -23886076.74749 -18612508.00848         0.00041  20696729.79148  20696728.67249
 -16469248.45948 -12833167.93146         0.00041  22052460.29046  22052457.55648
 -19839411.29708 -15459266.04908  20987356.56008  20987359.97108         0.00001
  -4602118.06008  -3586050.27008  22425609.58008  22425612.52608         0.00001
  -9387028.69948  -7314560.52546         0.00041  23059146.95946  23059143.33348
 -14364398.50749 -11193026.37248         0.00041  20376956.10548  20376954.30349
 94 03 17 03 11 30.0000000  0  7 04 05 09 12 13 20 24
 -12830147.48948  -9997497.54846         0.00041  21589530.70446  21589529.01748
 -23933523.75949 -18649479.69348         0.00041  20687700.27748  20687699.00949
 -16395419.38748 -12775638.78846         0.00041  22066510.12446  22066506.56348
 -19796142.58708 -15425550.17808  20995590.31608  20995593.73608         0.00001
  -4535558.70708  -3534185.82808  22438275.45708  22438278.31708         0.00001
  -9481092.44448  -7387856.90046         0.00041  23041246.53746  23041244.19048
 -14355087.43549 -11185770.97248         0.00041  20378727.85748  20378726.20049
 94 03 17 03 12 00.0000000  0  7 04 05 09 12 13 20 24
 -12760646.61148  -9943341.00946         0.00041  21602756.00446  21602754.66048
 -23980606.40149 -18686167.44048         0.00041  20678740.31548  20678739.14849
 -16321280.88248 -12717868.53446         0.00041  22080617.98946  22080615.33648
 -19752327.08608 -15391408.23808  21003928.19508  21003931.60108         0.00001
  -4468972.94108  -3482300.80608  22450946.36408  22450949.02108         0.00001
  -9575057.01748  -7461076.01346         0.00041  23023364.90546  23023362.18348
 -14345296.69249 -11178141.80548         0.00041  20380590.98348  20380589.39049
 94 03 17 03 12 30.0000000  0  7 04 05 09 12 13 20 24
 -12690795.44548  -9888911.52246         0.00041  21616048.33646  21616047.71848
 -24027311.12349 -18722560.70948         0.00041  20669853.63748  20669852.21549
 -16246810.97148 -12659840.04346         0.00041  22094787.95546  22094786.00548
 -19707947.44408 -15356826.70608  21012373.33408  21012376.78408         0.00001
  -4402343.33108  -3430381.61708  22463625.39508  22463628.16808         0.00001
  -9668901.69548  -7534201.68846         0.00041  23005507.54846  23005504.98248
 -14334995.78649 -11170115.11047         0.00041  20382550.95547  20382549.23249
 94 03 17 03 13 00.0000000  0  7 04 05 09 12 13 20 24
 -12620616.99648  -9834227.01246         0.00041  21629402.25746  21629401.48148
 -24073645.39049 -18758665.31648         0.00041  20661035.84848  20661034.57349
 -16172001.22248 -12601546.74746         0.00041  22109024.51646  22109022.46548
 -19663006.50608 -15321807.80108  21020925.25408  21020928.84208         0.00001
  -4335672.64308  -3378430.42508  22476312.19408  22476315.25608         0.00001
  -9762625.61248  -7607233.26746         0.00041  22987674.05646  22987669.43048
 -14324171.51949 -11161680.60148         0.00041  20384611.14548  20384609.37549
 94 03 17 03 13 30.0000000  0  7 04 05 09 12 13 20 24
 -12550118.70148  -9779293.26846         0.00041  21642818.59146  21642817.01548
 -24119614.50649 -18794485.38848         0.00041  20652288.16148  20652286.79149
 -16096838.10448 -12542978.09946         0.00041  22123327.87946  22123326.18148
 -19617501.47408 -15286349.34008  21029584.52408  21029588.15908         0.00001
  -4268958.03208  -3326445.01308  22489007.71408  22489010.59708         0.00001
  -9856222.44948  -7680165.79946         0.00041  22969860.12446  22969858.47748
 -14312823.88149 -11152838.27048         0.00041  20386770.16048  20386768.62249
 94 03 17 03 14 00.0000000  0  7 04 05 09 12 13 20 24
 -12479300.82348  -9724110.49746         0.00041  21656294.77346  21656293.14748
 -24165229.80749 -18830029.76748         0.00041  20643608.47448  20643607.43949
 -16021318.14848 -12484131.39746         0.00041  22137698.26146  22137696.72548
 -19571432.98108 -15250451.81908  21038351.20408  21038354.73708         0.00001
  -4202200.14008  -3274425.87808  22501711.46608  22501714.17708         0.00001
  -9949689.53348  -7752997.25546         0.00041  22952076.87446  22952074.29948
 -14300946.74749 -11143583.34748         0.00041  20389030.41048  20389028.66649
 94 03 17 03 14 30.0000000  0  7 04 05 09 12 13 20 24
 -12408165.04848  -9668680.01746         0.00041  21669830.84146  21669830.15548
 -24210505.42849 -18865309.45948         0.00041  20634991.91348  20634990.65749
 -15945452.05648 -12425014.96246         0.00041  22152135.90546  22152134.18848
 -19524808.02108 -15214120.69308  21047223.67608  21047227.11708         0.00001
  -4135405.68908  -3222378.25108  22514421.97108  22514424.70108         0.00001
 -10043030.04148  -7825730.05446         0.00041  22934313.17046  22934310.46748
 -14288555.48649 -11133927.80748         0.00041  20391388.57048  20391386.91749
 94 03 17 03 15 00.0000000  0  7 04 05 09 12 13 20 24
 -12336712.89648  -9613003.00946         0.00041  21683427.47546  21683426.29248
 -24255450.15849 -18900331.30848         0.00041  20626440.03248  20626438.87549
 -15869256.82948 -12365642.06446         0.00041  22166634.51246  22166632.94348
 -19477632.39408 -15177360.47208  21056200.98308  21056204.32508         0.00001
  -4068580.34508  -3170306.55108  22527138.47108  22527141.09508         0.00001
 -10136245.99148  -7898365.79146         0.00041  22916573.99246  22916571.71848
 -14275657.77549 -11123877.62648         0.00041  20393842.93748  20393841.21349
 94 03 17 03 15 30.0000000  0  7 04 05 09 12 13 20 24
 -12264923.13248  -9557062.93146         0.00041  21697089.22546  21697088.11848
 -24300052.68649 -18935086.50848         0.00041  20617952.40148  20617951.06049
 -15792742.38848 -12306020.42746         0.00041  22181195.01446  22181193.52348
 -19429898.63208 -15140165.34208  21065284.43208  21065287.80508         0.00001
  -4001716.34908  -3118204.73308  22539862.23108  22539865.06508         0.00001
 -10229326.53248  -7970896.01346         0.00041  22898862.54346  22898860.98748
 -14262261.42749 -11113438.90048         0.00041  20396391.95848  20396390.17149
 94 03 17 03 16 00.0000000  0  7 04 05 09 12 13 20 24
 -12192799.60548  -9500862.76946         0.00041  21710813.67146  21710812.79648
 -24344300.91349 -18969565.62848         0.00041  20609531.52548  20609530.19349
 -15715921.53748 -12246160.03446         0.00041  22195813.21746  22195811.92048
 -19381607.87508 -15102536.19008  21074473.82808  21074477.17308         0.00001
  -3934814.52708  -3066073.45208  22552593.09208  22552596.06708         0.00001
 -10322268.96848  -8043318.62146         0.00041  22881175.52746  22881172.85848
 -14248377.51249 -11102620.25248         0.00041  20399033.85248  20399032.38949
 94 03 17 03 16 30.0000000  0  7 04 05 09 12 13 20 24
 -12120319.30748  -9444384.60446         0.00041  21724606.55746  21724605.58348
 -24388172.58249 -19003751.33048         0.00041  20601183.95148  20601182.88149
 -15638780.67348 -12186050.28946         0.00041  22210493.66946  22210491.94848
 -19332752.55208 -15064467.11408  21083770.73008  21083774.05508         0.00001
  -3867867.05608  -3013906.59408  22565332.74708  22565335.74908         0.00001
 -10415062.24948  -8115625.00046         0.00041  22863517.64246  22863514.95748
 -14234019.50249 -11091432.18148         0.00041  20401766.47848  20401764.62849
 94 03 17 03 17 00.0000000  0  7 04 05 09 12 13 20 24
 -12047489.63248  -9387634.20846         0.00041  21738465.58546  21738464.30248
 -24431650.02949 -19037629.84748         0.00041  20592909.68848  20592908.26349
 -15561317.24348 -12125689.19446         0.00041  22225234.42546  22225232.32248
 -19283340.90508 -15025964.53508  21093173.43508  21093176.81108         0.00001
  -3800881.72008  -2961710.22207  22578079.68208  22578082.53707         0.00001
 -10507710.67948  -8187818.50446         0.00041  22845887.07546  22845885.06448
 -14219199.21449 -11079883.89148         0.00041  20404586.11048  20404584.72249
 94 03 17 03 17 30.0000000  0  7 04 05 09 12 13 20 24
 -11974304.03548  -9330606.46546         0.00041  21752391.95946  21752391.39348
 -24474704.49049 -19071178.76048         0.00041  20584716.57648  20584715.29449
 -15483510.35048 -12065060.46446         0.00041  22240040.40446  22240038.67148
 -19233364.13108 -14987021.60008  21102683.64208  21102687.00408         0.00001
  -3733849.51508  -2909477.32007  22590835.61208  22590838.34007         0.00001
 -10600201.76148  -8259889.38146         0.00041  22828286.46446  22828284.66548
 -14203911.12349 -11067971.08148         0.00041  20407495.78248  20407493.75849
 94 03 17 03 18 00.0000000  0  7 04 05 09 12 13 20 24
 -11900781.89648  -9273316.48446         0.00041  21766382.92046  21766382.11548
 -24517349.06749 -19104408.29448         0.00041  20576602.58048  20576600.89149
 -15405370.88048 -12004172.58046         0.00041  22254909.04946  22254908.13248
 -19182839.43608 -14947651.71908  21112298.13508  21112301.54308         0.00001
  -3666787.19708  -2857220.95207  22603596.89708  22603599.99907         0.00001
 -10692548.86248  -8331848.10446         0.00041  22810713.26546  22810710.79048
 -14188155.64549 -11055694.07248         0.00041  20410493.99248  20410492.25149
 94 03 17 03 18 30.0000000  0  7 04 05 09 12 13 20 24
 -11826922.99848  -9215764.09046         0.00041  21780437.49046  21780436.94148
 -24559586.15849 -19137320.30448         0.00041  20568564.20448  20568562.64349
 -15326901.50148 -11943027.62046         0.00041  22269842.09146  22269839.94048
 -19131766.01608 -14907854.25308  21122017.09708  21122020.45308         0.00001
  -3599693.57508  -2804940.19107  22616364.40708  22616367.43907         0.00001
 -10784747.25948  -8403690.93746         0.00041  22793168.33846  22793165.76148
 -14171919.62949 -11043042.61848         0.00041  20413583.47648  20413581.85549
 94 03 17 03 19 00.0000000  0  7 04 05 09 12 13 20 24
 -11752775.37748  -9157986.72246         0.00041  21794547.19046  21794546.20048
 -24601446.03749 -19169938.38048         0.00041  20560598.90648  20560597.66249
 -15248135.53048 -11881651.55846         0.00041  22284830.19846  22284828.52048
 -19080163.58308 -14867644.56308  21131836.77008  21131840.17008         0.00001
  -3532587.87608  -2752650.01907  22629134.36408  22629137.42307         0.00001
 -10876813.19148  -8475430.54346         0.00041  22775647.54946  22775646.30048
 -14155190.31149 -11030006.77748         0.00041  20416767.03648  20416765.37049
 94 03 17 03 19 30.0000000  0  7 04 05 09 12 13 20 24
 -11678352.34848  -9099994.75646         0.00041  21808709.87346  21808708.58948
 -24642946.56749 -19202276.44248         0.00041  20552701.66648  20552700.16549
 -15169085.36148 -11820054.05046         0.00041  22299873.05346  22299870.99448
 -19028034.42408 -14827024.44908  21141756.56508  21141760.07908         0.00001
  -3465471.74308  -2700351.72307  22641906.22608  22641909.00107         0.00001
 -10968744.70148  -8547065.41646         0.00041  22758155.87346  22758153.20248
 -14137955.28149 -11016576.86948         0.00041  20420046.73148  20420044.85049
 94 03 17 03 20 00.0000000  0  7 04 05 09 12 13 20 24
 -11603653.84948  -9041788.13746         0.00041  21822924.67746  21822923.72748
 -24684086.77949 -19234333.74448         0.00041  20544872.29248  20544870.94549
 -15089746.29648 -11758231.40546         0.00041  22314970.06646  22314968.31748
 -18975370.47408 -14785987.61308  21151778.15608  21151781.71208         0.00001
  -3398336.68508  -2648038.67507  22654681.24508  22654684.06807         0.00001
 -11060529.83248  -8618586.21946         0.00041  22740685.59946  22740684.84548
 -14120201.19349 -11002742.50448         0.00041  20423424.98648  20423423.36149
 94 03 17 03 20 30.0000000  0  7 04 05 09 12 13 20 24
 -11528673.48748  -8983361.87946         0.00041  21837193.06146  21837192.31348
 -24724855.19149 -19266101.33348         0.00041  20537115.66948  20537114.03349
 -15010113.44548 -11696179.84246         0.00041  22330124.54646  22330121.67648
 -18922167.27008 -14744530.58008  21161902.45808  21161905.83208         0.00001
  -3331177.63108  -2595706.93707  22667461.43708  22667464.30707         0.00001
 -11152160.08348  -8689986.34546         0.00041  22723250.34446  22723249.50148
 -14101929.96449 -10988505.16848         0.00041  20426902.13748  20426900.19549
 94 03 17 03 21 00.0000000  0  7 04 05 09 12 13 20 24
 -11453393.85048  -8924702.41946         0.00041  21851517.54146  21851516.87248
 -24765229.70749 -19297561.98748         0.00041  20529430.95948  20529429.37149
 -14930174.32048 -11633889.61246         0.00041  22345335.02046  22345333.04348
 -18868416.21308 -14702646.65108  21172130.93508  21172134.35108         0.00001
  -3263985.30707  -2543349.27507  22680247.68607  22680250.85407         0.00001
 -11243622.90448  -8761256.01346         0.00041  22705846.59046  22705844.03148
 -14083141.48449 -10973864.78348         0.00041  20430477.41348  20430475.60649
 94 03 17 03 21 30.0000000  0  7 04 05 09 12 13 20 24
 -11377794.39948  -8865793.75846         0.00041  21865905.01346  21865903.44248
 -24805199.16249 -19328707.00948         0.00041  20521826.18548  20521824.81649
 -14849928.95348 -11571360.74446         0.00041  22360607.12746  22360604.45848
 -18814123.07508 -14660340.31808  21182462.50008  21182465.99708         0.00001
  -3196764.85507  -2490969.71307  22693039.03707  22693042.37707         0.00001
 -11334920.16148  -8832396.66946         0.00041  22688472.45946  22688471.08448
 -14063868.79349 -10958847.08548         0.00041  20434144.79848  20434142.82949
 94 03 17 03 22 00.0000000  0  7 04 05 09 12 13 20 24
 -11301871.52748  -8806633.07346         0.00041  21880351.77546  21880350.79348
 -24844764.54649 -19359537.16748         0.00041  20514296.98048  20514295.75849
 -14769388.07848 -11508601.64246         0.00041  22375932.62946  22375930.26248
 -18759302.57208 -14617623.05008  21192894.60308  21192898.03708         0.00001
  -3129530.56407  -2438579.37707  22705833.26307  22705836.48807         0.00001
 -11426062.54248  -8903416.65946         0.00041  22671130.03646  22671127.63248
 -14044143.75649 -10943476.91248         0.00041  20437898.45148  20437896.70449
 94 03 17 03 22 30.0000000  0  7 04 05 09 12 13 20 24
 -11225600.53948  -8747201.13446         0.00041  21894865.14446  21894864.36648
 -24883905.86949 -19390036.88648         0.00041  20506848.11348  20506847.02849
 -14688557.44148 -11445616.75146         0.00041  22391313.54546  22391311.58848
 -18703947.96908 -14574489.60308  21203428.26708  21203431.68508         0.00001
  -3062274.61007  -2386172.15907  22718631.89007  22718634.97407         0.00001
 -11517039.12648  -8974307.44846         0.00041  22653817.77346  22653814.94648
 -14023968.73049 -10927756.09748         0.00041  20441737.51048  20441735.85249
 94 03 17 03 23 00.0000000  0  7 04 05 09 12 13 20 24
 -11148989.35048  -8687504.10546         0.00041  21909444.75646  21909443.37648
 -24922610.47249 -19420196.30848         0.00041  20499483.52848  20499482.27149
 -14607436.38748 -11382405.55846         0.00041  22406750.67846  22406748.99848
 -18648056.06908 -14530937.48108  21214064.16608  21214067.56308         0.00001
  -2994993.25007  -2333745.13807  22731435.23307  22731437.74207         0.00001
 -11607842.69748  -9045063.41246         0.00041  22636538.44546  22636535.70148
 -14003332.52049 -10911675.92048         0.00041  20445664.59248  20445662.86149
 94 03 17 03 23 30.0000000  0  7 04 05 09 12 13 20 24
 -11072078.25948  -8627573.38346         0.00041  21924080.08746  21924079.31948
 -24960909.82149 -19450039.95148         0.00041  20492194.45448  20492193.29049
 -14526055.69348 -11318992.04346         0.00041  22422237.33546  22422235.22348
 -18591656.54008 -14486989.80508  21224796.74008  21224800.15008         0.00001
  -2927715.32907  -2281320.79007  22744237.91307  22744240.31607         0.00001
 -11698498.93848  -9115704.57646         0.00041  22619286.66846  22619284.73748
 -13982258.54049 -10895254.62348         0.00041  20449674.58048  20449672.85749
 94 03 17 03 24 00.0000000  0  7 04 05 09 12 13 20 24
 -10994879.50048  -8567418.50746         0.00041  21938770.11346  21938769.44548
 -24998797.37149 -19479562.70748         0.00041  20484985.59148  20484984.22049
 -14444412.64048 -11255374.10846         0.00041  22437773.55046  22437771.76848
 -18534739.41308 -14442638.80308  21235627.72508  21235631.09808         0.00001
  -2860430.00607  -2228890.66307  22757041.76707  22757044.21407         0.00001
 -11788993.22548  -9186219.55146         0.00041  22602065.61846  22602063.00948
 -13960723.17549 -10878473.80548         0.00041  20453772.47348  20453770.94949
 94 03 17 03 24 30.0000000  0  7 04 05 09 12 13 20 24
 -10917418.67448  -8507059.42746         0.00041  21953510.79846  21953509.88348
 -25036288.00549 -19508776.18148         0.00041  20477851.00948  20477849.88949
 -14362526.51348 -11191566.75246         0.00041  22453355.89846  22453354.20948
 -18477314.18008 -14397891.87108  21246555.35508  21246558.75108         0.00001
  -2793146.12907  -2176461.66607  22769844.96807  22769848.04707         0.00001
 -11879331.33348  -9256612.82446         0.00041  22584875.55646  22584873.70548
 -13938721.12149 -10861329.33948         0.00041  20457959.64348  20457957.71849
 94 03 17 03 25 00.0000000  0  7 04 05 09 12 13 20 24
 -10839691.65248  -8446492.92146         0.00041  21968301.63046  21968300.49948
 -25073376.13649 -19537676.00748         0.00041  20470793.33448  20470792.02149
 -14280366.01448 -11127545.61046         0.00041  22468991.58446  22468989.17748
 -18419358.39508 -14352731.52808  21257583.99008  21257587.29608         0.00001
  -2725840.22007  -2124015.50607  22782653.26607  22782656.10407         0.00001
 -11969486.46248  -9326863.51846         0.00041  22567717.62246  22567716.45448
 -13916222.01549 -10843797.55548         0.00041  20462240.65348  20462238.91849
 94 03 17 03 25 30.0000000  0  7 04 05 09 12 13 20 24
 -10761701.95148  -8385721.71446         0.00041  21983142.75546  21983141.66348
 -25110087.86549 -19566282.53848         0.00041  20463807.65448  20463806.32949
 -14197946.44248 -11063322.58246         0.00041  22484675.50246  22484672.46248
 -18360884.45408 -14307167.43308  21268711.16608  21268714.42908         0.00001
  -2658523.90807  -2071561.25007  22795463.37307  22795465.82607         0.00001
 -12059467.04148  -9396978.20646         0.00041  22550597.32546  22550595.04948
 -13893250.06049 -10825897.31748         0.00041  20466612.57948  20466610.71649
 94 03 17 03 26 00.0000000  0  7 04 05 09 12 13 20 24
 -10683429.17748  -8324729.94346         0.00041  21998036.96746  21998035.73748
 -25146400.84749 -19594578.35148         0.00041  20456896.92648  20456895.49049
 -14115259.61048 -10998891.30946         0.00041  22500410.33646  22500407.14948
 -18301878.53808 -14261188.80908  21279939.61408  21279942.89908         0.00001
  -2591182.48607  -2019087.42506  22808277.74807  22808280.75406         0.00001
 -12149254.70648  -9466942.56846         0.00041  22533511.06046  22533508.81548
 -13869788.14449 -10807615.29448         0.00041  20471077.06348  20471075.04849
 94 03 17 03 26 30.0000000  0  7 04 05 09 12 13 20 24
 -10604854.73248  -8263503.10246         0.00041  22012989.40146  22012988.12148
 -25182298.43149 -19622550.48048         0.00041  20450066.20148  20450064.86549
 -14032291.32048 -10934240.71546         0.00041  22516198.59746  22516196.13148
 -18242335.14708 -14214791.37308  21291270.33708  21291273.67408         0.00001
  -2523809.22707  -1966588.77306  22821098.66307  22821101.53406         0.00001
 -12238839.43148  -9536748.80746         0.00041  22516463.09146  22516459.61248
 -13845830.23849 -10788946.78148         0.00041  20475636.19248  20475634.41349
 94 03 17 03 27 00.0000000  0  7 04 05 09 12 13 20 24
 -10525999.13348  -8202057.17446         0.00041  22027995.45946  22027994.10448
 -25217780.90349 -19650199.14348         0.00041  20443313.94948  20443312.68649
 -13949044.82748 -10869373.33446         0.00041  22532040.56446  22532037.63848
 -18182272.34208 -14167989.19708  21302699.89408  21302703.33508         0.00001
  -2456421.16807  -1914078.58906  22833922.38907  22833924.60606         0.00001
 -12328234.94948  -9606407.60246         0.00041  22499452.14146  22499449.60948
 -13821402.98349 -10769912.54548         0.00041  20480284.17348  20480282.70949
 94 03 17 03 27 30.0000000  0  7 04 05 09 12 13 20 24
 -10446874.97448  -8140401.98346         0.00041  22043052.65646  22043051.52248
 -25252836.26849 -19677514.99348         0.00041  20436643.12848  20436641.69549
 -13865528.49848 -10804295.70046         0.00041  22547933.24146  22547930.76248
 -18121703.74008 -14120792.90208  21314225.71608  21314229.14508         0.00001
  -2389031.08806  -1861566.86306  22846745.38206  22846748.53006         0.00001
 -12417450.86148  -9675926.44646         0.00041  22482473.61546  22482472.11348
 -13796515.50549 -10750519.69248         0.00041  20485020.29648  20485018.50349
 94 03 17 03 28 00.0000000  0  6 04 05 09 12 20 24
 -10367492.75848  -8078545.71246         0.00041  22058157.85846  22058157.04148
 -25287455.89049 -19704491.30748         0.00041  20430055.29648  20430054.37649
 -13781735.60048 -10739002.55246         0.00041  22563878.45046  22563875.42048
 -18060629.79508 -14073202.82508  21325847.68208  21325851.20308         0.00001
 -12506483.21748  -9745302.26446         0.00041  22465532.06546  22465529.76248
 -13771160.73049 -10730762.71448         0.00041  20489845.21948  20489843.56149
 94 03 17 03 28 30.0000000  0  6 04 05 09 12 20 24
 -10287894.85348  -8016521.37246         0.00041  22073305.12546  22073303.93648
 -25321688.29249 -19731165.89448         0.00041  20423540.85648  20423539.73349
 -13697685.79948 -10673509.21946         0.00041  22579872.44646  22579870.22448
 -17999081.24208 -14025242.92108  21337560.03308  21337563.62308         0.00001
 -12595358.42148  -9814555.62746         0.00041  22448620.29646  22448618.18248
 -13745378.60149 -10710672.73248         0.00041  20494751.02748  20494749.61349
 94 03 17 03 29 00.0000000  0  6 04 05 09 12 20 24
 -10208060.99548  -7954313.17946         0.00041  22088496.79346  22088495.53648
 -25355520.47149 -19757528.62148         0.00041  20417103.30748  20417102.12649
 -13613366.73248 -10607806.07446         0.00041  22595917.18546  22595914.64248
 -17937035.90508 -13976895.91208  21349366.87208  21349370.48808         0.00001
 -12684049.94748  -9883665.85746         0.00041  22431741.55546  22431739.76748
 -13719153.05549 -10690237.23248         0.00041  20499741.69448  20499739.87249
 94 03 17 03 29 30.0000000  0  6 04 05 09 12 20 24
 -10127947.49748  -7891887.09246         0.00041  22103741.45646  22103740.57148
 -25388928.53849 -19783560.86548         0.00041  20410745.31848  20410744.02249
 -13528766.01148 -10541883.45046         0.00041  22612016.63946  22612014.16848
 -17874456.44408 -13928132.70208  21361275.44708  21361278.91308         0.00001
 -12772515.58248  -9952600.07246         0.00041  22414908.25046  22414905.95248
 -13692443.59649 -10669424.65748         0.00041  20504824.58448  20504822.80449
 94 03 17 03 30 00.0000000  0  6 04 05 09 12 20 24
 -10047578.01448  -7829261.52846         0.00041  22119035.52446  22119035.04048
 -25421937.99049 -19809282.50648         0.00041  20404464.45848  20404463.08049
 -13443930.26948 -10475777.69546         0.00041  22628160.20146  22628157.52448
 -17811368.36608 -13878973.16808  21373280.76008  21373284.11308         0.00001
 -12860776.63048 -10021374.88346         0.00041  22398111.69046  22398109.02148
 -13665289.49949 -10648265.61248         0.00041  20509991.86448  20509990.07749
 94 03 17 03 30 30.0000000  0  6 04 05 09 12 20 24
  -9966905.73848  -7766400.01646         0.00041  22134387.28446  22134386.21248
 -25454502.25949 -19834657.24948         0.00041  20398267.19548  20398266.16349
 -13358841.37148 -10409474.66946         0.00041  22644350.69146  22644349.45148
 -17747737.07708 -13829390.35308  21385389.41708  21385392.69408         0.00001
 -12948793.89848 -10089959.72246         0.00041  22381363.69946  22381361.09548
 -13637654.59049 -10626731.90748         0.00041  20515250.32248  20515248.49149
 94 03 17 03 31 00.0000000  0  6 04 05 09 12 20 24
  -9885942.90548  -7703312.10146         0.00041  22149793.22946  22149792.32748
 -25486604.57349 -19859672.03048         0.00041  20392158.69648  20392157.46349
 -13273529.82348 -10342998.16646         0.00041  22660585.96046  22660584.12148
 -17683580.20308 -13779398.00308  21397598.05208  21397601.42808         0.00001
 -13036580.50748 -10158364.83546         0.00041  22364657.20446  22364655.22748
 -13609543.06849 -10604826.81848         0.00041  20520599.78248  20520598.02849
 94 03 17 03 31 30.0000000  0  7 04 05 09 12 13 20 24
  -9804694.70248  -7640001.81946         0.00041  22165254.77746  22165253.53048
 -25518228.06349 -19884313.69348         0.00041  20386140.60148  20386139.52949
 -13187994.48148 -10276347.28146         0.00041  22676863.25446  22676861.30048
 -17618901.98908 -13728999.40608  21409905.99208  21409909.14808         0.00001
        -0.22018        -0.31316  22949385.27118  22949387.90716         0.00011
 -13124136.11348 -10226589.94946         0.00041  22347996.11546  22347994.66548
 -13580948.24249 -10582545.12448         0.00041  20526041.61948  20526040.01249
 94 03 17 03 32 00.0000000  0  7 04 05 09 12 13 20 24
  -9723204.88548  -7576503.26346         0.00041  22180762.05346  22180760.80248
 -25549404.57549 -19908607.06848         0.00041  20380207.97748  20380206.82049
 -13102257.18448 -10209539.01746         0.00041  22693177.74946  22693176.58348
 -17553748.66808 -13678230.59708  21422304.27808  21422307.52108         0.00001
     67492.62208     52591.49306  22962228.77308  22962231.02206         0.00001
 -13211502.36548 -10294667.50646         0.00041  22331369.80646  22331368.22748
 -13551919.88749 -10559925.61948         0.00041  20531565.22048  20531563.58049
 94 03 17 03 32 30.0000000  0  7 04 05 09 12 13 20 24
  -9641505.06048  -7512841.06446         0.00041  22196308.31246  22196307.64448
 -25580165.30949 -19932576.46448         0.00041  20374354.60148  20374353.46949
 -13016326.92348 -10142580.40346         0.00041  22709529.49146  22709528.03548
 -17488152.23508 -13627116.50508  21434786.92408  21434790.08008         0.00001
    134936.89108    105145.45706  22975062.81908  22975065.66906         0.00001
 -13298706.77548 -10362618.96446         0.00041  22314776.44846  22314774.51448
 -13522481.27949 -10536986.43248         0.00041  20537167.25448  20537165.36549
 94 03 17 03 33 00.0000000  0  7 04 05 09 12 13 20 24
  -9559571.51748  -7448996.75046         0.00041  22211899.80346  22211898.92248
 -25610477.61449 -19956196.43648         0.00041  20368585.81948  20368584.72549
 -12930162.09548 -10075438.98846         0.00041  22725926.62546  22725924.74748
 -17422080.36408 -13575631.93808  21447359.91108  21447363.15208         0.00001
    202366.15308    157687.72507  22987894.25908  22987896.89407         0.00001
 -13385712.57448 -10430415.64246         0.00041  22298219.62046  22298218.55848
 -13492612.20949 -10513711.82148         0.00041  20542851.02848  20542849.35249
 94 03 17 03 33 30.0000000  0  7 04 05 09 12 13 20 24
  -9477399.66148  -7384966.73046         0.00041  22227536.65746  22227536.10748
 -25640360.35449 -19979481.68248         0.00041  20362900.12748  20362898.61549
 -12843758.42648 -10008111.46546         0.00041  22742369.08446  22742367.49948
 -17355533.13408 -13523776.96408  21460023.35808  21460026.78408         0.00001
    269781.87308    210219.44207  23000722.85808  23000725.76607         0.00001
 -13472515.00448 -10498053.86846         0.00041  22281701.80146  22281699.69848
 -13462332.97249 -10490117.60048         0.00041  20548612.94148  20548611.41249
 94 03 17 03 34 00.0000000  0  7 04 05 09 12 13 20 24
  -9394981.71948  -7320744.95546         0.00041  22243221.17646  22243219.99648
 -25669818.25749 -20002435.87748         0.00041  20357293.81648  20357292.41049
 -12757106.65748  -9940590.61846         0.00041  22758858.72846  22758856.55148
 -17288502.37408 -13471545.21308  21472778.72708  21472782.31808         0.00001
    337193.43508    262747.92607  23013550.89108  23013554.06407         0.00001
 -13559101.05948 -10565523.48646         0.00041  22265225.31746  22265223.59548
 -13431645.07549 -10466204.94148         0.00041  20554452.69048  20554450.99249
 94 03 17 03 34 30.0000000  0  7 04 05 09 12 13 20 24
  -9312311.90648  -7256326.92246         0.00041  22258952.48746  22258951.60848
 -25698840.99249 -20025050.98348         0.00041  20351771.37348  20351770.28949
 -12670217.94048  -9872885.12246         0.00041  22775391.63446  22775390.30748
 -17220982.43008 -13418932.27608  21485627.40808  21485630.90208         0.00001
    404608.14208    315278.86707  23026379.78708  23026382.40707         0.00001
 -13645460.31948 -10632816.38146         0.00041  22248790.68346  22248788.52848
 -13400536.41749 -10441964.41848         0.00041  20560372.36748  20560370.70749
 94 03 17 03 35 00.0000000  0  7 04 05 09 12 13 20 24
  -9229396.05348  -7191717.16746         0.00041  22274730.12846  22274729.14348
 -25727433.77449 -20047331.06948         0.00041  20346330.04048  20346329.06549
 -12583115.93048  -9805013.44946         0.00041  22791966.48246  22791964.76848
 -17152983.83808 -13365946.36008  21498567.09708  21498570.64208         0.00001
    472017.17208    367805.39807  23039206.86108  23039209.87307         0.00001
 -13731598.60348 -10699937.08146         0.00041  22232399.87546  22232398.48848
 -13369012.72049 -10417400.48548         0.00041  20566371.09248  20566369.43349
 94 03 17 03 35 30.0000000  0  7 04 05 09 12 13 20 24
  -9146235.80548  -7126916.97546         0.00041  22290554.72546  22290553.69548
 -25755591.16749 -20069271.88748         0.00041  20340971.88748  20340970.73949
 -12495795.36248  -9736971.47046         0.00041  22808581.70646  22808580.99748
 -17084505.53608 -13312586.65108  21511598.04308  21511601.61408         0.00001
    539422.72707    420329.22307  23052033.77207  23052036.93507         0.00001
 -13817510.55848 -10766881.42146         0.00041  22216049.96146  22216048.96448
 -13337057.56549 -10392500.35548         0.00041  20572452.11748  20572450.44949
 94 03 17 03 36 00.0000000  0  7 04 05 09 12 13 20 24
  -9062835.19248  -7061929.49346         0.00041  22306425.83246  22306425.13148
 -25783287.79249 -20090853.67348         0.00041  20335701.58748  20335700.34749
 -12408263.30648  -9668764.68846         0.00041  22825240.43746  22825238.30048
 -17015545.48908 -13258851.55908  21524720.79708  21524724.18308         0.00001
    606828.50507    472853.23407  23064860.86407  23064863.54507         0.00001
 -13903189.36448 -10833644.07646         0.00041  22199746.87746  22199745.60548
 -13304647.14049 -10367245.46248         0.00041  20578619.36148  20578617.66449
 94 03 17 03 36 30.0000000  0  7 04 05 09 12 13 20 24
  -8979203.95748  -6996762.30146         0.00041  22322340.56246  22322340.02448
 -25810522.38149 -20112075.43048         0.00041  20330518.55548  20330517.59149
 -12320535.79748  -9600405.59446         0.00041  22841934.95346  22841932.96748
 -16946109.82008 -13204745.84708  21537933.97408  21537937.36608         0.00001
    674230.00707    525373.92907  23077687.27007  23077689.94407         0.00001
 -13988636.12048 -10900225.92846         0.00041  22183487.54346  22183484.89248
 -13271779.59049 -10341634.37348         0.00041  20584874.17148  20584872.57949
 94 03 17 03 37 00.0000000  0  7 04 05 09 12 13 20 24
  -8895345.37148  -6931417.94046         0.00041  22338298.74746  22338298.24048
 -25837293.44449 -20132935.99848         0.00041  20325424.62948  20325423.42749
 -12232603.10948  -9531886.65846         0.00041  22858667.44446  22858665.04148
 -16876194.37808 -13150266.29408  21551238.55108  21551241.84808         0.00001
    741632.81707    577895.63607  23090513.62607  23090516.20507         0.00001
 -14073841.85948 -10966619.97946         0.00041  22167271.93746  22167270.25948
 -13238449.91949 -10315663.19148         0.00041  20591216.20248  20591214.68149
 94 03 17 03 37 30.0000000  0  7 04 05 09 12 13 20 24
  -8811277.65448  -6865910.63246         0.00041  22354295.68446  22354295.06248
 -25863620.91149 -20153450.90648         0.00041  20320414.39448  20320413.14049
 -12144489.16448  -9463226.45546         0.00041  22875435.84846  22875432.21548
 -16805813.98808 -13095424.44508  21564631.53908  21564634.76308         0.00001
    809024.02207    630408.28007  23103337.57907  23103340.16907         0.00001
 -14158816.55748 -11032833.98246         0.00041  22151103.11946  22151101.00148
 -13204677.83649 -10289347.27348         0.00041  20597642.87248  20597641.43549
 94 03 17 03 38 00.0000000  0  7 04 05 09 12 13 20 24
  -8727005.52148  -6800244.03046         0.00041  22370331.90046  22370330.65248
 -25889522.62949 -20173634.05548         0.00041  20315485.85548  20315484.42249
 -12056219.52448  -9394444.95646         0.00041  22892232.77946  22892229.72648
 -16734982.87708 -13040231.38208  21578110.32708  21578113.45308         0.00001
    876390.60107    682901.71006  23116157.04307  23116159.71406         0.00001
 -14243570.01948 -11098875.60046         0.00041  22134974.17046  22134972.38348
 -13170484.42149 -10262703.04448         0.00041  20604149.83748  20604148.28649
 94 03 17 03 38 30.0000000  0  7 04 05 09 12 13 20 24
  -8642499.45348  -6734395.16046         0.00041  22386412.33646  22386411.77948
 -25914977.62349 -20193469.11048         0.00041  20310641.55148  20310640.31249
 -11967758.44448  -9325514.26446         0.00041  22909066.80246  22909061.88748
 -16663674.79308 -12984666.65408  21591679.77708  21591682.88808         0.00001
    943760.98008    735398.08306  23128976.90508  23128979.58506         0.00001
 -14328070.71448 -11164720.24646         0.00041  22118894.15546  22118892.63848
 -13135862.11449 -10235724.61148         0.00041  20610738.30948  20610736.49649
 94 03 17 03 39 00.0000000  0  7 04 05 09 12 13 20 24
  -8557768.49148  -6668371.03446         0.00041  22402535.62646  22402535.58548
 -25939973.60849 -20212946.49448         0.00041  20305885.23748  20305884.06549
 -11879105.28748  -9256433.92046         0.00041  22925934.47946  22925930.27248
 -16591896.82408 -12928735.77708  21605338.62708  21605341.85308         0.00001
   1011129.49608    787892.98606  23141796.46308  23141799.59206         0.00001
 -14412321.09348 -11230369.84646         0.00041  22102862.84146  22102860.00248
 -13100820.63549 -10208419.55048         0.00041  20617406.18248  20617404.68749
 94 03 17 03 39 30.0000000  0  7 04 05 09 12 13 20 24
  -8472814.37848  -6602173.01546         0.00041  22418703.70346  22418701.39148
 -25964504.23449 -20232061.26048         0.00041  20301217.07648  20301215.78149
 -11790272.89448  -9187213.88646         0.00041  22942842.41446  22942836.01148
 -16519657.53708 -12872445.43408  21619085.20008  21619088.44708         0.00001
   1078489.42308    840381.20806  23154614.88808  23154617.84906         0.00001
 -14496324.73148 -11295827.18646         0.00041  22086876.55746  22086874.62948
 -13065365.09449 -10180791.84748         0.00041  20624152.98148  20624151.57749
 94 03 17 03 40 00.0000000  0  7 04 05 09 12 13 20 24
  -8387637.02048  -6535801.06346         0.00041  22434912.71546  22434910.94348
 -25988543.87849 -20250793.44548         0.00041  20296642.23748  20296641.30149
 -11701243.81048  -9117840.58646         0.00041  22959782.91446  22959779.15348
 -16446956.73508 -12815795.46708  21632919.71508  21632923.06408         0.00001
   1145842.71908    892864.26606  23167431.93508  23167435.08306         0.00001
 -14580076.58148 -11361088.32146         0.00041  22070939.35946  22070937.56548
 -13029498.44149 -10152843.79148         0.00041  20630978.71848  20630976.99049
 94 03 17 03 40 30.0000000  0  6 04 05 09 12 20 24
  -8302249.16648  -6469265.07046         0.00041  22451161.80846  22451160.85348
 -26012079.88949 -20269133.19248         0.00041  20292163.84948  20292162.54549
 -11612017.07748  -9048313.30546         0.00041  22976761.97846  22976757.82648
 -16373797.61908 -12758788.38108  21646841.47208  21646844.79308         0.00001
 -14663574.79148 -11426151.82046         0.00041  22055049.86446  22055048.21748
 -12993213.69649 -10124569.95648         0.00041  20637883.17048  20637881.50749
 94 03 17 03 41 00.0000000  0  7 03 04 05 09 12 20 24
         0.44217         0.12017  25629491.56717  25629495.88017         0.00011
  -8216665.64148  -6402576.61046         0.00041  22467447.92546  22467446.90748
 -26035124.31949 -20287089.88348         0.00041  20287778.58048  20287777.28549
 -11522607.42348  -8978643.48346         0.00041  22993776.14146  22993771.83748
 -16300187.31308 -12701429.71708  21660849.04308  21660852.43608         0.00001
 -14746821.51048 -11491019.35546         0.00041  22039207.81846  22039206.18548
 -12956496.59849 -10095959.21748         0.00041  20644870.18848  20644868.63649
 94 03 17 03 41 30.0000000  0  7 03 04 05 09 12 20 24
    -73629.61307    -57373.86507  25615480.80907  25615484.66207         0.00001
  -8130862.27948  -6335716.85046         0.00041  22483775.15346  22483774.22248
 -26057665.78949 -20304654.65548         0.00041  20283489.12448  20283487.85149
 -11432994.79648  -8908815.48046         0.00041  23010829.30446  23010825.20348
 -16226101.19508 -12643700.28108  21674947.14108  21674950.56508         0.00001
 -14829787.04048 -11555667.78246         0.00041  22023421.52746  22023419.74948
 -12919330.33649 -10066998.48848         0.00041  20651942.56448  20651940.93749
 94 03 17 03 42 00.0000000  0  7 03 04 05 09 12 20 24
   -147200.97507   -114702.13307  25601480.52707  25601484.92407         0.00001
  -8044926.36848  -6268753.79646         0.00041  22500127.52546  22500127.07448
 -26079784.76549 -20321890.21448         0.00041  20279279.75548  20279278.65349
 -11343253.95648  -8838887.57346         0.00041  23027905.75046  23027902.24148
 -16151618.13008 -12585661.53308  21689120.77808  21689124.30808         0.00001
 -14912545.42548 -11620154.80346         0.00041  22007671.77446  22007669.69548
 -12881800.30849 -10037754.29748         0.00041  20659084.73848  20659082.88949
 94 03 17 03 42 30.0000000  0  7 03 04 05 09 12 20 24
   -220655.56607   -171939.41907  25587501.47507  25587507.14407         0.00001
  -7958803.90348  -6201645.40246         0.00041  22516516.03746  22516515.62448
 -26101437.23749 -20338762.26748         0.00041  20275159.61748  20275158.68849
 -11253343.51448  -8768827.51846         0.00041  23045015.18646  23045011.54048
 -16076682.40508 -12527270.06508  21703380.56408  21703384.18908         0.00001
 -14995035.78348 -11684432.96946         0.00041  21991974.17346  21991972.12548
 -12843840.21249 -10008174.99348         0.00041  20666307.97448  20666306.34349
 94 03 17 03 43 00.0000000  0  7 03 04 05 09 12 20 24
   -294003.30607   -229093.47707  25573542.47707  25573549.13807         0.00001
  -7872500.50648  -6134396.01246         0.00041  22532939.84146  22532938.83148
 -26122633.84149 -20355279.10448         0.00041  20271125.83248  20271124.38849
 -11163273.65548  -8698643.23946         0.00041  23062154.95946  23062152.29948
 -16001306.53608 -12468535.62608  21717724.05408  21717727.64608         0.00001
 -15077265.81748 -11748508.30146         0.00041  21976327.43546  21976325.74248
 -12805472.92649  -9978278.40548         0.00041  20673609.06948  20673607.54149
 94 03 17 03 43 30.0000000  0  6 04 05 09 12 20 24
  -7785992.98948  -6066987.54946         0.00041  22549401.11846  22549400.17148
 -26143338.39349 -20371412.52348         0.00041  20267186.11648  20267184.73449
 -11073031.11048  -8628324.39846         0.00041  23079328.78646  23079324.69848
 -15925483.33508 -12409452.61808  21732152.69708  21732156.37108         0.00001
 -15159223.20048 -11812371.17146         0.00041  21960730.35246  21960729.37548
 -12766700.85749  -9948066.39347         0.00041  20680987.26747  20680985.42949
 94 03 17 03 44 00.0000000  0  7 03 04 05 09 12 20 24
        -0.13916        -0.59817  25545690.03616  25545696.52017         0.00011
  -7699283.07248  -5999421.37446         0.00041  22565901.45046  22565900.70048
 -26163547.52749 -20387159.89748         0.00041  20263340.41548  20263339.06349
 -10982630.07548  -8557882.05946         0.00041  23096529.75246  23096527.54048
 -15849230.28508 -12350034.67408  21746663.19408  21746666.93808         0.00001
 -15240920.13048 -11876031.09546         0.00041  21945185.16046  21945183.94348
 -12727522.07549  -9917537.47048         0.00041  20688442.63748  20688440.91749
 94 03 17 03 44 30.0000000  0  7 03 04 05 09 12 20 24
    -73021.81507    -56900.55807  25531796.17807  25531800.64707         0.00001
  -7612357.02248  -5931686.79646         0.00041  22582442.85046  22582441.90448
 -26183269.45749 -20402527.62648         0.00041  20259587.32448  20259586.22749
 -10892067.13648  -8487313.55846         0.00041  23113763.99746  23113761.06148
 -15772542.27808 -12290277.79608  21761256.44808  21761260.19108         0.00001
 -15322346.47648 -11939480.17746         0.00041  21929688.84846  21929686.96748
 -12687929.43949  -9886686.05847         0.00041  20695977.04547  20695975.15749
 94 03 17 03 45 00.0000000  0  7 03 04 05 09 12 20 24
   -145947.21007   -113725.51707  25517919.82707  25517923.26607         0.00001
  -7525228.17648  -5863794.18346         0.00041  22599022.34246  22599021.59048
 -26202514.86949 -20417524.04948         0.00041  20255925.27748  20255923.81649
 -10801349.81048  -8416624.77246         0.00041  23131027.35246  23131023.93648
 -15695434.19008 -12230193.57908  21775929.46108  21775933.34108         0.00001
 -15403512.11848 -12002726.11746         0.00041  21914244.68346  21914242.62548
 -12647947.07249  -9855530.96747         0.00041  20703585.24047  20703583.51649
 94 03 17 03 45 30.0000000  0  7 03 04 05 09 12 20 24
   -218769.45207   -170470.11307  25504062.07307  25504065.50207         0.00001
  -7437892.32648  -5795740.26346         0.00041  22615642.87046  22615641.30848
 -26221287.43549 -20432152.01848         0.00041  20252353.06248  20252351.69449
 -10710480.87848  -8345817.82746         0.00041  23148318.60946  23148316.50048
 -15617901.60208 -12169778.58608  21790683.52308  21790687.35308         0.00001
 -15484407.35948 -12065761.35446         0.00041  21898850.97046  21898848.83948
 -12607565.20849  -9824064.56847         0.00041  20711269.40247  20711268.22249
 94 03 17 03 46 00.0000000  0  7 03 04 05 09 12 20 24
   -291486.28007   -227132.55607  25490223.68207  25490227.55307         0.00001
  -7350362.97448  -5727535.57446         0.00041  22632299.40346  22632298.22948
 -26239616.34749 -20446434.28648         0.00041  20248864.75548  20248863.58949
 -10619471.93948  -8274901.80746         0.00041  23165638.19146  23165636.24948
 -15539944.64008 -12109032.90308  21805518.42608  21805522.02208         0.00001
 -15565027.36148 -12128582.12446         0.00041  21883508.65146  21883506.70748
 -12566797.14449  -9792297.24947         0.00041  20719027.45247  20719025.78449
 94 03 17 03 46 30.0000000  0  6 04 05 09 12 20 24
  -7262669.35548  -5659202.88646         0.00041  22648985.96646  22648985.57148
 -26257516.09749 -20460382.14348         0.00041  20245458.93448  20245457.65749
 -10528342.65748  -8203891.99246         0.00041  23182978.34946  23182977.32748
 -15461572.50208 -12047963.71308  21820432.27308  21820435.71508         0.00001
 -15645376.24848 -12191191.62546         0.00041  21868219.23446  21868218.02648
 -12525669.87849  -9760250.02547         0.00041  20726853.91247  20726851.83449
 94 03 17 03 47 00.0000000  0  6 04 05 09 12 20 24
  -7174823.12248  -5590751.26546         0.00041  22665701.79446  22665702.05448
 -26274965.04049 -20473978.72148         0.00041  20242138.38648  20242137.27249
 -10437100.28148  -8132794.06446         0.00041  23200341.15846  23200339.97848
 -15382795.22908 -11986578.83708  21835423.02808  21835426.38708         0.00001
 -15725458.82748 -12253593.61946         0.00041  21852979.61546  21852977.89248
 -12484190.37949  -9727928.32547         0.00041  20734746.92647  20734745.08949
 94 03 17 03 47 30.0000000  0  7 03 04 05 09 12 20 24
         0.26617        -0.04716  25448835.92717  25448838.78916         0.00011
  -7086738.96648  -5522114.27246         0.00041  22682464.97146  22682464.44548
 -26291872.07749 -20487153.03848         0.00041  20238920.76848  20238919.68549
 -10345666.81048  -8061547.23246         0.00041  23217739.16846  23217738.43848
 -15303529.95608 -11924813.70308  21850506.70808  21850510.05708         0.00001
 -15805186.89348 -12315719.35146         0.00041  21837808.79046  21837807.00348
 -12442274.08549  -9695266.27747         0.00041  20742723.86747  20742721.94149
 94 03 17 03 48 00.0000000  0  7 03 04 05 09 12 20 24
    -72219.35208    -56275.01906  25435093.74708  25435096.23306         0.00001
  -6998465.95048  -5453330.11446         0.00041  22699263.98846  22699262.77648
 -26308270.42849 -20499930.97248         0.00041  20235800.36048  20235799.12249
 -10254075.57548  -7990177.47346         0.00041  23235169.15446  23235167.88248
 -15223824.23308 -11862705.36208  21865674.36608  21865677.61008         0.00001
 -15884602.95148 -12377601.97746         0.00041  21822696.29146  21822694.58148
 -12399967.88849  -9662300.40647         0.00041  20750773.91247  20750772.56949
